GFSMW_250_spd_000.txt.gz
Wind_Speed
18 20 19 17 18 19 21 24 26 27 29 32 34 35 38 40 42 44 46 48 52 51 49 50 52 54 56 60 61 63 63 65 65 68 70 71 73 74 75 74 75 75 77
18 17 16 18 22 24 27 29 31 33 34 35 36 39 40 40 40 42 44 45 43 45 44 48 51 52 54 62 64 64 66 68 70 74 77 77 78 79 78 79 79 80 81
18 21 24 27 28 28 29 31 34 36 38 40 43 44 45 46 47 49 50 50 51 51 52 56 56 59 63 64 68 75 72 70 78 77 78 78 81 82 81 81 83 83 83
22 25 27 29 31 33 34 34 37 39 40 42 44 43 47 50 50 53 53 56 58 58 60 65 68 68 71 75 76 76 76 78 81 82 84 82 83 85 84 85 86 85 82
26 29 31 32 33 35 38 40 42 42 44 46 49 54 58 57 61 64 65 66 68 70 75 72 74 77 78 78 77 79 81 82 84 86 87 88 87 89 88 88 89 85 89
30 31 33 36 38 41 43 44 46 48 51 54 58 62 64 66 67 69 71 73 74 75 77 79 82 85 82 81 84 87 89 93 95 97 94 93 91 93 95 93 91 88 92
32 35 38 41 44 47 49 50 53 56 58 61 63 67 70 71 73 76 78 82 86 87 89 88 89 87 88 91 90 92 95 98 99 101 102 103 101 98 94 91 91 90 96
36 38 41 43 47 50 52 55 59 61 64 68 69 71 74 78 81 84 86 88 91 92 94 92 90 92 92 89 87 86 89 93 98 98 97 96 99 95 92 93 91 92 91
44 46 48 50 52 56 58 60 65 69 69 68 76 78 82 84 87 87 89 93 95 97 94 92 92 88 83 84 82 82 83 87 90 97 101 104 99 93 92 92 91 91 83
53 57 60 61 64 66 65 68 71 72 74 80 83 84 85 88 91 93 93 94 94 90 88 86 82 86 86 83 83 88 93 94 96 95 97 96 99 96 92 90 84 84 81
53 56 59 63 66 69 73 75 76 77 80 87 92 91 93 96 100 93 89 83 83 85 86 87 88 90 88 92 93 96 97 100 102 99 94 93 95 95 90 85 87 80 81
60 64 69 71 74 77 80 83 85 85 84 89 94 97 98 97 90 87 86 88 86 89 87 91 94 95 96 98 99 99 102 102 100 103 95 89 88 89 85 81 81 78 79
67 72 76 81 83 82 86 91 95 95 94 97 102 98 92 88 81 81 83 84 86 90 92 97 97 99 103 108 108 108 106 109 106 102 89 83 83 81 81 76 73 72 66
80 81 78 82 85 87 87 89 93 95 97 99 89 83 79 77 78 79 80 85 89 94 95 97 99 101 104 106 109 110 111 112 107 102 87 80 75 76 75 70 60 62 64
87 89 93 89 89 91 96 99 97 94 92 79 78 77 77 80 82 84 88 92 94 97 96 99 102 104 107 107 109 113 113 112 108 98 82 75 70 68 66 59 63 65 70
88 93 98 101 97 98 98 99 99 91 84 83 83 82 83 85 85 86 88 90 92 95 100 103 107 109 109 112 114 114 116 112 107 91 79 73 68 63 63 56 57 64 72
97 92 92 94 102 101 102 104 92 85 86 86 86 86 89 93 94 95 96 99 99 104 106 107 106 104 109 114 118 118 115 107 104 88 75 70 65 62 61 58 57 60 65
107 104 102 104 103 100 91 86 87 89 91 91 92 96 99 101 101 102 103 104 107 109 109 110 107 106 110 113 117 118 114 104 97 83 75 67 65 63 58 60 55 59 65
107 106 97 92 87 88 90 92 93 94 95 98 103 105 107 109 109 108 109 109 111 110 113 112 112 109 107 116 115 115 110 96 88 81 73 65 63 61 64 61 63 63 64
101 101 101 95 92 94 98 100 102 102 103 106 108 112 114 114 116 116 119 116 115 114 114 113 113 115 111 110 113 109 98 85 83 78 70 64 65 67 65 66 60 63 67
102 99 100 99 101 102 104 107 109 111 114 116 117 119 122 124 124 121 120 119 118 120 115 111 112 108 111 110 109 99 89 85 78 71 67 65 66 70 70 71 64 59 66
103 105 107 109 111 113 116 118 119 121 123 124 126 126 126 126 124 122 122 119 117 114 113 109 108 111 110 110 100 89 88 80 67 66 65 65 66 69 72 72 64 67 70
115 117 120 122 124 126 128 129 129 130 131 133 133 133 130 128 125 124 124 123 119 117 117 112 108 105 108 99 88 87 79 71 62 60 61 63 66 69 68 64 62 64 68
126 128 130 132 134 135 136 136 132 131 130 131 131 132 133 131 129 126 125 121 121 114 105 100 97 97 92 87 82 76 69 63 59 57 57 59 64 62 61 61 62 61 66
135 135 137 138 138 134 133 132 128 126 127 127 128 130 130 130 129 126 121 118 109 104 100 91 84 81 80 80 70 63 62 60 57 52 53 56 57 54 55 58 60 62 65
129 128 125 125 127 128 132 132 131 130 130 129 129 129 127 120 114 109 103 101 94 90 85 79 76 76 73 68 61 59 58 56 54 51 51 50 50 49 49 52 57 61 62

GFSMW_250_spd_003.txt.gz
Wind_Speed
25 21 20 18 19 21 20 21 22 23 25 28 32 33 35 36 36 38 41 42 44 45 49 53 53 54 58 59 61 64 68 70 73 76 79 82 83 83 84 85 84 84 83
21 20 19 20 21 21 22 24 25 26 27 29 33 35 37 40 42 42 43 44 47 50 52 55 58 59 61 61 65 70 68 78 78 80 79 81 83 86 90 93 92 93 93
20 21 23 23 24 26 27 29 30 31 32 32 35 35 36 40 43 44 47 53 54 56 59 62 65 65 67 69 72 75 79 81 81 79 84 82 82 85 89 89 90 89 90
23 24 27 29 31 32 32 33 34 34 36 39 40 42 45 47 49 52 55 59 59 61 64 66 69 71 75 80 79 81 84 81 81 81 80 81 81 80 81 88 91 92 90
27 30 31 33 35 36 36 37 40 41 43 44 46 48 49 50 55 59 61 60 63 66 68 71 74 78 81 84 84 82 81 81 82 80 80 81 85 85 87 85 91 92 95
30 32 34 36 37 38 40 42 45 47 50 53 55 56 58 60 63 68 64 66 67 70 76 78 80 83 84 84 82 79 76 76 78 82 82 82 82 89 92 95 96 97 95
32 32 34 36 39 41 44 47 50 52 54 55 55 58 62 66 68 68 69 75 78 83 85 86 89 89 87 79 77 74 75 78 78 83 85 86 87 94 96 98 96 99 98
36 39 41 43 45 47 50 53 56 59 63 65 68 68 68 70 73 75 77 79 81 85 88 90 92 91 82 76 73 83 79 80 82 87 89 91 94 96 101 101 103 104 98
42 45 48 49 49 51 55 60 62 65 67 68 70 72 77 79 81 83 86 87 90 96 97 96 91 82 76 76 78 81 81 83 84 87 90 93 97 97 102 108 109 104 95
45 47 50 54 56 58 58 61 62 64 70 77 79 82 83 83 84 87 90 92 93 93 95 90 79 77 78 80 79 80 82 84 86 89 91 96 100 101 105 107 108 105 95
53 56 58 61 61 63 64 65 69 72 77 78 80 84 84 85 87 90 94 96 95 92 88 82 78 77 78 81 83 84 86 84 86 87 93 97 102 106 108 109 109 106 94
59 61 65 69 71 72 74 76 78 82 84 88 90 93 94 95 96 99 100 98 94 85 82 82 80 78 82 85 85 87 88 88 89 92 98 100 106 109 110 111 110 100 90
69 70 73 76 80 82 83 86 86 86 88 90 96 98 97 98 99 102 104 100 93 81 81 79 81 82 84 89 94 96 96 98 98 101 105 105 110 110 114 113 107 97 85
74 78 82 82 83 84 87 90 92 95 95 97 102 100 100 103 102 105 106 105 94 86 84 82 82 85 86 92 96 97 98 97 99 104 106 108 110 109 113 111 105 93 81
81 82 83 86 90 93 96 98 100 102 102 106 111 112 109 109 109 107 107 92 89 89 89 89 92 93 95 101 106 108 105 103 104 107 110 112 113 110 112 111 102 90 76
88 89 92 94 97 102 104 105 105 107 110 115 118 116 109 105 106 103 96 94 93 94 94 96 98 96 101 108 112 115 115 114 111 111 115 116 115 111 110 106 98 84 73
97 98 101 103 102 100 101 102 107 115 118 121 117 108 102 99 99 95 95 95 97 98 101 103 103 104 108 113 118 122 124 119 115 118 115 116 114 117 109 102 90 79 70
106 106 106 104 104 104 107 111 115 113 109 106 103 104 100 97 96 100 101 101 104 106 109 111 113 114 116 121 123 128 124 120 118 119 114 110 113 110 108 97 82 74 68
111 108 108 111 112 117 117 111 111 101 100 100 103 103 105 107 109 112 114 115 116 118 119 120 120 123 123 125 130 132 129 123 120 116 113 110 111 105 99 85 75 71 64
113 114 117 117 112 108 107 108 108 106 112 111 114 116 117 119 120 120 122 124 124 125 127 128 129 130 131 131 130 129 122 116 111 111 110 110 109 99 85 77 72 62 58
101 103 107 109 113 113 117 119 120 121 123 124 126 127 129 129 129 128 129 129 130 131 134 134 134 132 129 124 122 121 119 116 112 109 106 98 87 78 72 72 62 56 55
116 119 121 124 127 129 130 131 132 132 133 132 133 133 134 134 133 134 134 133 131 130 131 129 127 124 120 119 120 120 120 113 102 98 92 81 73 68 66 62 55 53 54
127 129 132 134 136 134 133 131 128 127 125 125 127 129 131 131 133 133 131 127 127 127 127 126 126 125 122 117 115 106 98 91 83 76 70 66 67 64 57 54 52 51 52
136 136 136 135 132 130 130 128 125 126 125 124 125 127 128 128 128 128 129 131 130 123 113 108 107 104 103 102 97 92 83 74 71 68 65 63 62 52 52 51 49 49 51
114 119 122 125 126 128 128 126 125 125 126 126 127 127 126 126 127 129 127 124 116 106 101 97 91 88 87 88 86 82 77 73 68 63 63 58 50 49 48 47 47 47 44
110 107 114 111 113 117 121 122 121 120 122 120 119 119 117 117 116 113 109 105 98 96 95 91 84 83 80 79 75 71 67 62 57 59 54 47 46 45 44 44 43 39 38

GFSMW_250_spd_006.txt.gz
Wind_Speed
30 33 33 33 34 32 24 25 24 21 22 23 25 28 30 32 34 37 39 41 42 43 43 47 53 55 56 59 63 67 69 72 76 78 78 76 75 79 68 68 68 74 76
33 34 35 33 29 26 26 25 24 23 26 28 30 33 34 36 37 37 38 41 43 45 47 51 56 60 59 63 65 67 70 73 78 80 80 77 74 71 70 69 73 78 79
32 31 30 27 26 26 27 28 29 31 32 34 37 38 38 41 42 43 46 47 48 50 53 59 62 61 64 68 72 75 79 80 84 85 80 74 63 65 72 73 77 78 81
26 27 28 28 28 28 31 34 35 37 39 40 42 42 45 47 48 50 52 55 55 57 60 62 62 64 67 72 76 77 82 85 90 87 74 65 67 71 68 71 76 78 82
28 29 29 29 32 34 36 39 42 43 43 45 46 48 51 53 55 57 56 56 60 65 70 69 71 73 76 79 81 84 86 89 88 78 66 66 72 73 71 69 75 78 82
30 30 31 33 35 38 42 45 48 49 49 50 51 54 57 58 59 63 65 69 69 70 74 78 81 82 81 83 85 90 85 87 77 67 66 67 69 72 74 75 79 79 84
31 33 36 39 42 44 46 47 49 52 54 56 59 60 61 62 64 64 64 70 73 76 80 81 81 83 85 87 88 92 94 82 72 69 72 73 73 74 74 79 81 82 87
37 40 41 44 45 47 50 52 55 57 60 61 60 61 63 65 64 65 69 75 76 81 84 86 86 88 91 90 94 94 90 79 73 69 72 72 76 76 79 83 86 85 87
42 44 46 48 50 53 56 60 63 62 62 65 67 68 67 69 71 76 79 81 82 86 90 91 93 93 93 94 95 92 89 79 76 72 71 73 75 80 82 85 89 92 90
47 48 50 53 56 59 62 64 66 66 69 72 73 76 77 79 82 84 86 88 89 91 93 93 96 98 99 97 98 92 90 82 78 74 75 74 75 79 86 91 94 97 101
52 53 56 60 62 64 67 69 70 72 74 78 80 83 87 88 89 90 91 93 95 96 98 98 103 106 108 104 102 96 86 82 79 76 77 79 82 84 89 96 101 102 105
57 58 60 63 66 69 72 77 77 79 83 86 88 89 90 91 94 97 100 104 104 104 104 108 108 111 111 104 96 90 82 83 81 81 82 85 88 90 94 100 104 107 108
67 66 69 72 74 77 78 82 82 84 87 90 92 95 97 100 104 108 109 107 107 109 110 112 116 117 113 103 96 88 84 84 85 86 87 89 91 94 97 102 109 112 112
73 76 78 79 83 84 84 87 91 94 97 100 104 106 108 111 112 112 111 112 111 114 117 113 104 99 99 98 94 92 91 89 90 93 96 96 98 101 102 106 108 115 117
78 83 86 89 91 92 93 94 97 100 102 105 109 111 116 116 115 114 115 117 119 117 110 103 99 94 92 95 98 97 96 97 99 102 105 107 108 110 111 112 110 117 118
84 88 89 91 96 100 104 107 108 110 114 117 119 121 119 116 117 120 120 117 108 100 101 98 100 102 106 105 106 105 103 105 109 110 113 115 117 118 118 118 118 118 114
90 95 98 100 104 107 110 115 118 119 118 120 121 122 122 121 120 120 116 112 108 110 109 112 114 113 116 116 118 118 116 116 118 119 120 121 123 124 123 120 115 114 108
97 101 105 109 112 115 118 119 119 120 121 120 117 118 119 121 121 119 117 118 120 123 122 121 124 124 125 126 125 124 124 124 124 124 124 124 123 124 124 119 111 103 104
108 113 116 119 120 119 120 120 120 120 120 122 126 128 129 129 127 126 124 126 126 128 130 130 130 130 130 129 127 127 126 125 123 123 123 122 117 114 111 107 105 103 97
112 114 114 114 116 118 119 123 125 128 130 132 136 136 139 136 133 133 131 131 130 130 131 129 129 129 128 129 129 130 124 120 115 112 113 114 115 108 101 99 94 87 77
107 112 117 120 124 127 129 132 132 135 138 138 138 140 140 138 133 133 132 130 128 126 125 126 125 126 125 122 125 125 121 117 110 108 107 102 97 87 80 82 76 72 68
115 119 123 127 129 133 134 133 133 139 141 136 136 139 139 136 136 138 132 132 130 127 130 130 128 128 126 122 120 117 114 111 102 98 94 88 82 78 72 70 61 56 55
122 123 126 128 132 133 133 132 134 133 138 136 135 137 135 136 135 132 130 130 126 127 125 119 114 111 111 109 109 108 102 95 86 78 74 72 70 69 66 62 60 55 52
126 129 130 132 122 124 126 129 130 130 132 134 134 134 131 128 125 124 119 113 110 109 108 107 105 101 94 96 96 95 90 85 80 74 69 66 64 64 60 57 53 50 50
121 116 113 115 120 123 129 131 131 127 121 119 119 120 117 115 115 112 107 105 103 101 97 95 92 89 86 85 84 81 79 78 74 70 64 60 56 54 50 49 48 50 47
114 117 116 114 117 119 117 117 116 115 112 109 110 109 108 106 103 100 96 98 95 93 89 85 79 75 73 70 74 71 66 64 60 58 56 53 52 47 45 46 47 46 41

GFSMW_250_spd_009.txt.gz
Wind_Speed
25 27 29 30 31 32 32 33 36 36 33 31 29 28 29 31 34 35 38 39 40 43 45 46 48 50 52 56 58 62 65 66 68 70 75 76 82 84 86 83 71 66 60
32 34 35 36 35 34 34 35 36 32 32 33 31 30 33 38 40 42 44 43 43 46 49 51 54 56 57 62 64 69 70 74 77 79 79 80 82 85 88 81 65 60 62
38 40 38 35 33 34 36 35 32 34 35 35 35 37 40 44 46 47 48 48 49 51 54 57 59 58 61 65 70 73 75 76 80 83 83 80 77 83 86 74 66 62 63
34 36 35 36 36 34 32 33 37 37 37 39 41 43 46 50 53 53 53 56 57 59 60 60 63 64 63 67 70 73 76 79 79 82 83 83 84 84 81 78 71 66 69
33 30 29 29 31 32 34 38 38 39 42 44 47 51 53 55 56 56 58 62 64 64 66 68 67 64 66 69 72 76 79 82 81 83 86 87 88 90 89 74 73 70 72
28 29 30 32 34 36 38 39 41 44 47 50 53 55 58 60 62 63 66 69 68 68 70 69 69 76 79 82 82 82 85 87 87 87 88 93 91 90 88 82 72 70 70
31 32 33 34 35 37 40 43 47 51 54 57 58 59 60 63 66 69 71 70 73 73 74 75 77 81 82 87 87 87 90 91 95 95 98 100 99 96 90 85 78 74 72
35 36 37 39 41 43 47 50 54 57 59 61 63 65 68 72 74 73 72 76 78 81 82 84 88 90 91 92 94 97 101 101 101 98 102 104 104 99 89 81 78 75 75
38 39 42 44 47 52 54 57 59 61 64 67 69 72 74 76 77 79 80 82 85 88 90 92 94 96 97 98 101 104 106 104 103 99 105 106 99 93 84 80 80 81 76
44 46 47 49 53 56 58 61 64 67 69 71 73 75 79 81 83 85 88 89 91 93 94 96 98 99 103 108 110 111 110 107 108 110 109 99 94 91 84 81 83 86 84
50 51 53 56 58 61 63 68 70 71 74 76 78 81 85 88 90 91 94 96 98 100 102 103 106 108 111 114 118 113 111 109 115 112 103 92 88 85 83 85 87 87 92
55 56 58 62 64 66 69 74 76 78 83 85 89 92 95 98 100 101 103 106 107 110 113 114 116 118 119 121 121 119 117 114 111 107 91 81 79 81 84 86 87 90 95
60 62 66 69 70 72 76 80 83 86 89 92 94 98 101 104 106 109 111 115 118 119 122 123 123 122 121 118 117 114 112 112 103 89 92 93 94 89 88 90 91 93 95
65 70 73 77 79 80 84 87 90 93 95 98 101 103 106 108 112 116 119 121 124 126 125 126 126 125 119 118 118 116 115 112 105 103 102 102 105 102 103 103 105 105 104
70 75 78 82 85 88 91 95 98 100 102 106 109 111 114 117 121 123 126 128 126 125 123 124 125 126 127 127 124 124 122 120 118 115 113 114 115 115 115 114 113 112 113
75 78 84 88 89 92 96 100 104 108 111 115 117 120 123 125 125 124 123 123 126 128 130 131 132 132 135 137 138 134 128 124 123 123 123 122 120 122 122 122 118 116 116
81 85 89 93 98 101 105 108 112 115 116 117 119 121 122 124 126 129 130 132 133 134 137 139 140 138 137 135 131 130 130 125 121 120 120 120 120 118 115 112 110 109 109
90 92 95 98 103 107 112 114 115 117 120 123 126 129 130 129 132 136 137 138 141 140 139 137 137 134 131 127 124 120 114 114 114 111 110 108 104 104 104 100 100 102 101
94 99 103 104 104 105 108 112 117 122 126 130 132 136 135 135 137 138 139 140 142 138 138 138 136 132 128 125 124 121 117 116 117 115 116 114 108 105 101 93 86 85 83
95 94 96 101 106 109 113 118 124 128 131 135 138 139 139 139 139 141 141 140 137 136 136 136 133 128 127 125 124 121 117 110 105 105 105 101 93 91 89 83 78 72 73
92 97 101 104 108 113 119 124 129 133 134 135 135 137 138 138 138 138 137 131 129 128 125 121 119 118 113 108 108 103 98 92 86 88 89 87 83 80 75 75 67 62 60
95 98 103 109 114 119 123 127 132 132 130 130 134 134 133 133 132 126 121 118 113 110 104 104 100 99 99 97 93 91 91 88 81 82 78 77 75 70 69 66 61 55 55
101 102 108 112 119 122 124 124 123 123 124 128 128 124 122 117 114 110 106 105 104 99 94 92 93 93 93 91 88 87 85 80 74 71 69 68 65 63 64 62 58 54 51
102 109 114 117 124 127 126 121 117 114 115 118 116 114 111 108 107 105 104 100 97 94 92 90 89 86 83 80 77 78 76 72 69 65 62 61 60 59 59 59 56 52 48
110 115 120 128 128 125 120 116 115 116 115 113 111 109 109 109 106 104 102 99 98 94 89 86 83 80 79 77 74 73 72 69 65 62 57 54 51 50 48 48 46 43 42
117 125 130 131 127 124 121 119 115 112 111 108 107 106 105 104 103 100 96 98 96 91 88 83 77 74 71 66 66 67 64 63 59 57 53 51 48 46 44 44 40 38 37

GFSMW_250_spd_012.txt.gz
Wind_Speed
25 23 24 24 25 26 25 27 31 34 37 39 38 41 43 42 40 38 39 40 42 45 46 49 52 52 52 55 59 61 64 67 64 65 67 67 71 76 78 76 80 81 78
30 28 27 26 27 27 29 32 35 38 39 43 44 44 40 43 43 42 43 45 49 51 53 55 56 57 59 60 63 65 67 70 73 68 71 69 75 81 82 85 85 88 87
35 33 32 32 33 34 36 38 40 42 43 44 45 43 44 46 46 46 48 50 55 58 59 61 62 63 66 67 70 71 73 74 76 76 78 80 79 82 87 88 91 92 93
40 38 37 38 38 38 40 41 43 45 46 46 44 45 49 50 51 53 55 58 60 63 64 64 65 70 73 75 75 75 77 79 79 83 89 91 89 86 84 92 96 96 95
39 37 37 37 38 41 44 44 43 43 43 44 46 50 52 52 53 57 60 64 67 68 69 71 73 75 77 80 79 82 81 84 85 90 95 94 94 95 95 95 98 101 99
35 39 41 40 40 38 37 38 40 42 45 47 50 52 53 55 58 62 66 69 72 73 75 78 79 82 84 81 85 88 90 91 93 95 97 99 99 97 105 103 103 103 100
35 33 34 36 37 37 39 42 43 45 46 48 51 54 58 62 66 69 72 75 78 80 82 84 86 86 87 90 91 94 96 99 99 100 102 100 102 107 110 111 110 106 104
32 34 37 37 38 41 43 45 46 48 51 54 58 61 65 69 72 75 78 80 82 84 86 87 90 93 94 96 99 100 102 105 107 107 107 111 115 115 118 119 118 113 110
37 39 40 42 43 45 49 50 52 54 57 61 65 69 72 75 78 81 82 84 86 88 91 94 97 100 101 103 106 108 109 109 111 114 117 118 120 121 121 122 122 111 105
43 44 45 46 47 51 55 57 59 61 64 68 71 74 77 80 83 85 88 92 95 98 100 102 103 105 107 108 111 112 114 118 119 119 121 123 124 122 120 119 109 106 101
47 47 49 52 55 58 60 62 64 67 71 74 76 79 83 86 89 93 96 98 100 103 105 108 111 113 115 118 119 122 123 124 125 127 124 118 117 113 113 112 107 109 106
51 52 54 57 59 60 63 66 71 74 77 81 84 87 90 94 98 100 104 107 110 112 115 118 121 124 127 129 129 130 130 127 124 125 123 123 121 121 121 118 116 114 114
53 56 59 60 62 64 68 71 75 79 83 87 91 94 98 101 105 108 112 115 118 120 123 126 128 128 130 131 132 132 131 130 132 131 130 129 130 130 128 126 118 115 114
57 61 63 64 68 72 75 78 82 85 89 93 97 100 104 108 112 116 120 123 125 127 129 130 131 133 133 135 134 136 136 135 134 133 132 130 127 122 119 116 113 107 105
62 65 68 72 75 78 83 87 91 95 97 100 104 107 111 116 119 121 122 124 128 130 132 134 137 137 140 141 138 136 134 132 130 126 127 127 119 117 113 105 100 95 94
68 72 73 76 81 86 90 93 96 99 102 107 110 113 111 114 119 123 126 130 134 137 139 140 140 143 143 141 138 135 130 129 128 125 124 122 120 118 111 102 97 95 95
72 75 78 84 87 90 93 96 100 105 105 105 107 112 114 117 123 128 133 138 139 143 145 143 142 142 143 140 136 135 131 128 127 126 118 112 108 105 99 97 95 93 90
76 80 85 87 90 94 98 100 100 100 104 108 113 117 121 125 130 135 139 141 142 142 140 138 140 139 132 128 125 121 117 113 109 104 101 98 94 92 91 88 85 83 82
83 86 88 92 93 91 92 95 98 106 110 114 117 121 125 127 131 132 137 140 144 140 139 135 128 123 118 114 111 109 103 100 97 94 93 90 87 86 83 77 72 68 70
84 88 86 84 87 92 98 102 104 108 111 116 120 124 128 131 134 138 143 143 132 125 118 112 111 108 104 101 96 92 87 84 80 81 83 83 80 78 78 72 67 59 63
81 83 84 87 91 96 98 101 105 109 114 118 123 125 126 131 137 135 129 123 118 111 106 103 101 98 93 86 84 82 79 75 71 72 74 74 72 67 65 64 58 53 53
79 83 87 90 94 96 101 107 113 115 119 123 124 125 130 130 129 122 117 113 107 101 97 93 90 88 85 81 77 74 72 70 64 64 67 67 66 64 61 58 54 47 45
81 88 90 94 99 105 111 115 119 121 124 124 124 127 123 120 116 111 106 103 100 95 90 86 81 79 81 80 76 75 74 70 66 63 60 61 60 58 57 53 50 45 43
84 89 96 102 107 113 116 119 124 127 124 120 121 121 117 113 109 105 102 99 96 90 86 80 77 77 78 78 75 73 73 70 66 61 56 53 53 51 50 47 41 39 38
94 99 103 109 113 118 123 127 127 123 122 122 121 116 111 106 102 100 98 95 94 87 82 81 79 77 77 76 73 70 69 65 64 60 54 50 48 46 43 40 38 38 37
101 106 109 114 119 123 128 125 122 123 122 118 114 112 105 100 96 93 92 95 93 90 86 82 78 75 73 72 70 68 65 60 59 56 52 47 44 41 37 34 31 31 32

GFSMW_250_spd_015.txt.gz
Wind_Speed
32 28 31 32 34 30 30 27 25 27 29 31 34 38 40 45 48 48 49 52 51 50 49 50 53 55 56 58 60 62 64 67 70 68 71 71 75 77 80 80 81 85 87
31 26 31 32 31 29 26 25 27 28 31 35 37 41 44 47 48 50 54 53 53 52 52 54 56 59 61 65 68 68 68 68 74 76 76 77 79 83 85 85 87 88 90
29 28 32 35 35 35 32 31 32 34 37 41 44 46 49 50 52 54 55 54 55 57 58 60 62 65 67 71 73 74 75 75 79 81 84 84 83 82 86 93 96 97 98
30 31 33 36 41 40 40 39 39 41 43 46 48 49 50 53 56 55 54 55 59 61 63 66 67 70 73 76 79 82 83 85 86 90 92 93 92 89 90 92 99 105 104
31 33 34 34 36 42 43 43 42 44 46 49 53 55 54 52 52 54 57 61 63 64 67 69 72 76 80 83 85 89 91 93 94 97 97 97 99 101 101 97 99 103 108
33 32 34 33 35 40 43 42 43 47 48 45 44 46 49 51 53 55 58 61 65 69 72 75 79 82 86 89 91 94 96 97 98 100 103 105 108 109 109 109 108 107 106
31 31 35 37 37 37 38 39 41 42 43 45 48 50 51 54 56 60 63 68 72 75 79 82 86 89 92 94 95 97 100 102 105 108 110 112 113 113 115 118 115 116 113
30 33 38 38 36 38 39 40 43 45 48 50 53 54 56 59 63 67 71 74 78 82 85 89 91 94 96 99 101 103 106 106 108 110 113 115 119 122 124 125 127 124 122
33 36 38 40 41 42 44 47 49 51 53 55 57 60 62 66 69 73 76 80 83 87 90 94 97 100 104 106 107 110 112 115 117 119 122 124 127 127 130 133 134 133 125
36 38 41 44 45 47 49 50 51 54 57 60 63 65 68 71 75 80 83 87 91 93 96 99 103 107 111 115 118 121 123 125 127 129 131 133 134 134 133 132 132 132 133
39 43 45 47 49 51 52 54 57 59 62 64 67 70 73 78 82 85 89 93 98 102 105 109 112 116 120 124 126 130 132 135 136 138 137 137 137 136 137 136 132 131 131
44 47 49 51 52 54 56 57 59 63 66 69 73 78 81 85 90 95 99 102 104 109 114 118 121 125 127 129 132 134 136 138 138 139 140 143 140 136 132 130 129 127 125
51 53 54 55 56 57 59 63 66 69 73 77 80 84 89 94 97 101 105 109 112 116 117 121 124 126 129 134 139 141 142 143 144 146 142 136 137 139 134 132 128 119 115
56 56 58 60 62 63 66 68 72 76 80 82 87 92 96 98 102 106 110 114 114 118 119 124 129 134 138 142 145 147 148 146 143 140 140 140 136 130 126 121 116 112 106
57 57 58 59 61 65 70 74 78 82 86 89 95 98 102 106 109 108 110 113 117 121 126 128 132 135 141 142 141 145 145 143 142 140 129 124 121 118 112 105 104 100 96
54 56 59 63 67 72 76 80 84 89 92 97 101 104 101 100 106 111 115 117 120 124 128 129 132 135 145 149 144 142 138 128 122 116 112 110 108 106 103 99 94 88 84
59 63 65 68 71 76 81 87 89 93 98 100 97 97 101 104 108 111 115 120 124 128 128 133 138 136 139 140 135 125 118 111 108 104 102 102 102 99 96 90 88 82 79
62 65 69 73 79 84 87 90 94 95 95 96 98 100 102 109 113 118 123 125 127 128 132 132 140 136 131 124 118 113 108 105 102 99 97 96 92 91 89 84 81 81 79
68 73 77 81 85 88 91 93 93 92 92 96 100 105 110 114 119 124 127 127 127 128 133 136 131 123 117 114 112 108 102 97 94 93 92 91 84 81 79 75 69 68 71
76 78 81 84 87 90 86 88 89 93 96 105 107 111 114 118 126 127 127 128 131 136 132 122 116 113 110 108 103 99 95 90 86 84 85 83 79 74 73 69 63 61 63
79 82 85 84 83 82 86 91 93 98 102 108 112 118 122 125 128 127 128 133 134 124 114 109 108 107 105 99 97 93 88 82 76 76 75 75 73 69 67 62 57 55 56
81 80 78 77 81 88 90 92 96 103 108 114 117 122 126 127 127 126 129 126 117 109 108 106 102 100 97 94 90 87 83 78 70 67 67 67 66 64 61 55 51 50 49
72 74 77 83 87 88 92 97 102 107 113 118 121 125 126 124 124 124 118 111 111 107 103 99 94 92 89 88 86 83 81 75 70 66 64 63 62 60 56 49 48 46 44
74 78 82 85 88 92 97 102 107 112 118 123 126 128 123 122 120 114 111 110 108 101 96 91 88 86 83 81 81 81 78 75 69 64 58 56 55 53 48 44 44 40 39
79 82 87 90 95 102 106 109 115 119 125 128 127 122 120 116 109 108 110 106 102 95 88 83 82 80 81 81 79 75 71 67 63 59 54 50 47 44 41 39 36 34 32
84 87 91 97 103 108 113 117 121 125 129 126 119 117 114 108 105 104 100 101 95 94 89 83 80 79 77 77 74 66 62 59 55 52 49 45 40 37 33 32 30 27 26

GFSMW_250_spd_018.txt.gz
Wind_Speed
26 33 34 35 34 33 32 32 31 29 29 29 30 32 31 33 36 39 43 48 51 53 54 56 59 60 59 60 61 62 64 67 69 68 70 72 77 80 82 84 85 86 89
27 31 34 33 35 32 30 32 31 28 26 27 29 31 34 37 40 43 47 51 54 57 57 59 62 60 61 64 67 69 70 73 77 78 78 77 81 85 88 92 94 95 97
29 36 34 32 33 30 30 33 35 34 33 34 35 37 40 43 47 50 51 53 55 57 61 62 61 61 64 68 72 73 76 77 81 85 87 87 85 88 91 94 97 100 101
31 37 33 35 33 30 31 33 36 39 39 40 42 44 46 48 49 52 55 56 57 57 58 58 61 65 68 72 75 77 80 83 85 91 95 97 97 97 92 93 96 99 102
30 36 35 33 34 34 34 33 35 40 42 43 45 47 47 51 51 51 52 55 57 60 62 65 68 70 73 77 81 85 89 91 93 96 99 102 105 107 108 102 104 105 105
31 30 30 30 33 34 33 33 34 39 42 44 45 46 49 49 51 55 58 59 60 63 65 69 72 76 79 83 86 90 94 97 100 103 106 109 111 114 118 119 115 114 113
36 32 31 34 36 33 31 32 34 36 39 41 42 44 47 51 56 58 60 62 65 69 72 75 79 82 86 89 92 96 100 103 106 109 112 116 119 122 124 126 125 125 123
43 40 36 38 38 35 33 34 37 39 41 42 45 48 52 55 57 60 64 67 70 73 77 81 85 89 93 96 100 103 108 112 115 118 121 123 126 130 132 135 137 135 130
46 45 46 39 35 36 36 38 41 42 43 46 49 51 55 57 60 64 67 71 74 78 82 86 90 95 101 104 108 110 114 118 123 127 130 133 133 134 136 138 142 144 139
47 50 46 41 38 37 39 42 44 46 48 51 54 56 59 62 65 69 73 78 82 85 89 95 100 105 109 112 116 120 123 125 129 130 131 134 138 141 144 146 146 146 141
51 54 49 48 44 44 45 47 49 51 53 55 58 60 64 68 71 76 80 84 88 93 98 104 107 111 113 113 114 118 121 125 130 134 137 141 145 148 148 148 147 146 145
55 57 54 50 49 48 50 54 55 56 58 61 64 67 70 74 78 83 88 93 97 100 102 106 107 108 110 115 120 123 128 132 134 140 146 146 145 146 147 146 145 140 132
57 59 55 51 54 54 57 60 61 61 62 66 69 72 76 81 86 90 95 98 101 102 104 106 106 110 117 122 126 131 135 139 142 138 144 142 145 140 138 135 128 120 114
59 60 50 53 59 60 61 61 62 65 67 69 74 79 83 86 91 95 99 101 100 100 103 108 114 119 125 130 131 134 136 140 143 143 145 141 134 127 120 116 114 110 105
59 51 54 58 58 57 57 61 64 69 71 75 79 85 89 93 97 99 98 98 100 105 111 116 119 122 126 130 136 142 139 144 143 138 131 126 121 118 115 110 107 102 98
57 58 56 58 58 59 63 67 69 72 77 82 87 91 94 97 94 95 99 102 106 111 114 118 122 125 131 135 139 143 143 139 132 124 117 117 117 113 107 103 98 94 91
61 61 60 60 60 63 68 71 76 80 85 89 91 94 91 91 96 99 102 106 107 112 120 123 127 129 136 138 144 142 136 126 119 116 113 107 103 100 98 94 89 85 84
64 61 59 61 64 68 73 78 83 88 90 93 91 89 92 95 98 102 106 110 115 121 123 130 131 134 138 140 136 131 122 117 112 107 100 97 94 92 88 84 81 80 81
66 60 64 65 69 75 80 85 88 90 92 87 88 90 92 99 103 109 113 119 126 131 131 131 132 136 133 132 126 118 111 106 101 99 96 91 87 87 85 79 75 73 75
58 61 65 71 77 81 85 87 88 88 85 89 90 96 101 105 111 118 121 127 132 129 128 131 133 130 125 120 116 108 102 97 95 94 90 88 86 83 79 74 70 66 66
64 69 73 78 81 84 86 87 84 86 89 93 99 103 108 113 118 122 128 131 130 128 128 126 123 119 115 111 106 102 99 96 93 87 81 81 82 78 72 67 61 57 58
71 75 78 80 80 81 80 82 85 90 96 101 105 108 114 120 122 128 131 133 130 127 123 118 112 110 107 103 100 99 97 94 86 78 76 73 73 70 64 59 54 51 51
74 75 75 74 75 79 81 86 91 97 101 106 108 112 118 122 126 130 134 131 128 123 114 108 103 101 99 97 95 94 92 88 80 74 70 65 65 63 57 51 49 46 43
69 68 71 75 79 83 87 93 98 102 106 107 112 117 122 127 131 135 131 127 122 114 107 101 97 95 93 90 89 88 87 79 74 72 69 63 59 54 50 44 42 38 36
68 73 76 80 85 90 94 98 102 105 107 112 114 121 125 130 134 131 125 120 116 109 101 95 91 87 85 85 82 81 79 67 66 66 63 59 52 45 42 39 36 32 30
73 77 81 87 93 97 100 103 106 110 111 115 122 125 129 134 131 120 114 115 110 106 101 95 90 84 81 79 76 76 70 61 61 60 55 50 44 39 36 33 29 25 24

GFSMW_250_spd_021.txt.gz
Wind_Speed
19 21 23 23 27 30 30 31 33 32 29 27 28 26 25 26 29 31 32 35 39 43 46 49 53 57 60 61 61 64 65 63 62 63 65 69 73 76 78 82 85 88 91
22 22 25 24 25 30 30 30 31 31 30 28 29 30 28 28 29 32 35 38 42 46 50 54 56 59 62 64 65 63 63 66 70 71 73 74 77 81 83 86 89 92 95
22 23 26 26 28 31 32 33 34 32 31 31 32 33 34 35 37 39 43 46 49 51 54 55 55 55 57 60 63 65 67 70 75 79 80 80 82 83 87 91 94 98 102
26 24 31 32 29 28 31 33 36 35 34 32 34 37 39 41 42 44 46 48 51 50 50 53 57 59 62 64 68 70 73 76 78 83 89 91 93 93 89 95 99 102 105
33 29 31 34 31 31 30 32 34 33 32 33 35 36 38 41 44 47 48 49 49 51 56 60 62 65 67 70 73 76 79 81 84 88 92 97 101 106 107 101 106 109 113
38 38 32 35 35 33 32 33 33 34 33 32 34 35 37 40 43 45 47 49 53 57 60 63 66 68 71 74 77 81 85 88 93 96 100 104 108 112 115 118 114 115 115
41 43 39 33 37 36 36 36 36 35 35 35 35 36 38 42 44 47 51 55 57 61 64 66 69 72 75 79 84 88 92 96 100 105 110 115 119 122 125 126 124 121 120
42 46 45 39 37 38 43 41 42 39 40 38 38 39 42 46 49 52 55 59 63 65 68 72 75 79 83 88 91 95 100 104 109 114 118 120 122 125 129 134 136 132 129
44 48 50 46 42 42 44 45 46 46 44 42 43 46 49 52 56 59 61 64 66 70 74 77 82 86 90 94 98 103 108 110 114 114 115 121 126 129 132 137 142 146 142
47 52 55 54 50 48 48 52 53 52 50 48 49 50 53 57 61 63 66 69 72 75 79 84 88 92 97 101 105 108 109 109 111 115 120 127 133 136 140 144 148 151 149
52 53 56 58 57 53 52 54 58 58 56 57 56 58 61 65 67 68 70 73 76 80 85 90 95 99 102 105 105 105 107 111 116 122 125 130 136 140 147 151 152 152 149
56 56 57 57 55 55 55 56 60 60 60 62 64 66 67 67 68 70 74 78 82 87 91 96 98 101 101 104 107 111 113 114 119 125 132 138 144 149 149 148 144 134 126
60 59 58 58 59 56 59 60 63 65 64 67 68 67 66 67 72 76 79 84 89 94 96 98 98 101 105 108 109 112 117 121 128 135 141 145 145 144 141 131 123 115 115
60 59 59 61 63 65 65 62 66 67 69 70 68 66 69 73 78 83 87 92 95 95 96 99 102 105 108 110 115 119 125 130 136 141 144 144 138 131 121 115 113 111 105
61 61 61 64 66 67 70 69 70 70 69 70 71 71 75 79 85 90 94 96 96 97 98 100 103 106 111 119 124 127 130 135 140 144 140 134 125 117 113 108 103 99 97
62 63 64 67 71 72 72 71 73 74 68 69 73 77 82 86 92 95 96 97 97 99 102 103 107 116 121 124 128 134 138 142 144 135 130 122 115 113 107 101 98 93 89
63 64 67 70 71 74 73 72 73 72 70 74 79 84 90 93 95 96 96 96 99 100 104 110 115 120 125 130 134 140 144 142 135 126 118 115 111 104 99 95 93 93 91
64 67 70 71 72 74 74 74 69 73 77 81 85 89 94 94 94 93 96 97 99 106 111 115 118 125 132 135 140 142 138 130 123 118 114 109 102 96 92 89 90 91 91
67 69 70 71 72 71 63 66 72 77 83 88 92 92 92 90 93 95 98 103 109 115 118 120 125 130 136 138 141 135 128 121 115 112 108 101 95 90 88 86 85 83 81
67 68 69 66 63 65 67 73 78 84 88 90 90 88 89 92 95 101 106 112 115 119 121 123 130 135 139 140 135 128 119 112 108 104 99 95 89 88 86 81 75 72 70
63 62 63 65 65 69 74 79 84 87 88 86 86 90 92 97 102 108 112 116 119 121 125 129 134 138 138 133 127 121 114 107 100 97 93 87 87 85 80 73 65 60 58
61 60 61 65 70 75 79 82 85 83 82 85 89 93 99 104 108 114 119 120 123 126 131 134 135 134 131 125 118 113 109 101 95 93 86 82 80 75 70 64 60 53 50
58 63 67 71 73 77 81 80 78 81 85 90 96 102 105 111 116 119 120 125 130 132 134 133 130 126 121 115 110 105 99 95 92 87 82 77 71 66 64 56 51 45 44
64 68 71 73 78 76 74 77 83 87 93 99 102 106 112 116 120 122 127 133 134 135 132 128 122 113 107 105 100 95 91 88 86 83 78 71 64 59 56 51 43 41 40
68 71 74 73 71 74 78 83 88 95 100 103 108 112 116 120 121 126 133 135 135 129 124 119 112 101 96 95 92 86 84 80 77 73 67 61 58 53 46 41 38 37 34
69 67 69 72 77 81 85 90 95 99 104 110 113 117 120 122 127 131 134 133 126 121 118 111 103 97 93 89 83 81 78 73 71 63 57 54 50 45 39 34 33 31 27

GFSMW_250_spd_024.txt.gz
Wind_Speed
20 19 18 21 21 25 24 24 24 27 28 30 31 31 28 25 25 27 29 31 35 37 40 41 43 46 50 53 57 60 63 65 63 60 60 63 65 68 69 73 76 79 82
16 17 16 20 24 25 26 25 28 28 29 31 34 34 34 31 29 29 30 32 34 37 39 43 47 52 56 59 61 61 59 61 64 63 64 63 69 72 75 78 81 85 89
13 16 18 18 25 26 27 30 29 30 31 33 34 35 38 38 37 37 37 38 40 43 46 50 53 55 59 59 58 60 62 63 67 70 70 70 73 75 81 84 88 92 94
19 20 21 21 21 27 33 31 31 32 33 35 35 35 37 40 41 41 42 43 44 47 50 52 54 55 56 59 63 65 67 69 71 75 78 80 81 81 78 85 92 98 102
24 25 25 27 25 26 30 33 34 34 35 36 35 36 38 38 38 39 40 43 45 47 49 52 54 57 61 65 68 71 73 75 77 79 82 87 91 95 96 91 99 102 107
30 28 29 30 31 31 31 33 38 38 38 38 40 42 40 39 38 40 42 43 46 49 52 56 61 64 67 71 74 76 78 81 85 88 92 95 99 103 107 108 106 108 107
32 32 32 35 36 37 35 36 37 40 41 43 44 46 46 45 46 46 48 50 53 55 59 63 66 69 72 75 78 81 84 88 92 97 101 105 109 112 114 113 109 108 108
34 35 37 39 41 43 43 44 43 42 43 45 46 49 52 53 54 57 57 57 60 63 65 67 71 75 78 81 83 86 90 95 99 104 108 110 111 111 113 117 120 117 116
38 39 40 42 43 46 49 51 52 51 49 49 52 53 55 59 61 63 65 66 67 68 70 74 76 79 82 85 88 92 97 102 106 109 109 110 110 114 119 123 130 137 134
41 44 46 47 48 50 52 53 53 55 54 53 55 58 60 62 65 68 70 73 74 75 76 77 80 82 85 89 94 99 104 107 108 107 109 112 115 120 124 131 136 141 148
47 49 51 52 53 54 55 55 56 59 59 56 57 59 62 66 69 73 76 78 79 80 81 81 83 87 90 98 101 105 105 106 106 110 116 118 122 127 133 139 143 146 150
53 54 56 57 57 58 59 59 59 60 61 61 63 66 68 69 73 76 78 81 84 85 84 88 89 93 99 102 103 104 104 107 111 116 119 124 130 135 139 144 146 148 150
57 60 61 60 61 61 61 63 63 64 65 67 69 70 72 74 76 79 81 86 85 89 88 91 97 100 101 102 102 104 107 110 116 120 125 131 137 141 146 147 148 144 126
63 64 64 63 64 63 64 65 66 68 69 72 74 76 77 78 79 83 85 83 89 90 91 96 100 100 100 101 104 108 112 117 122 127 133 139 144 146 146 145 136 122 114
67 67 67 68 68 68 67 67 69 71 73 74 75 77 79 78 79 83 82 89 89 93 98 98 98 98 103 105 109 114 119 122 127 133 140 145 147 144 137 123 116 113 109
71 71 71 70 71 71 69 70 71 74 74 74 76 77 81 81 80 82 88 91 95 98 97 95 97 101 106 111 117 121 125 129 134 140 144 147 142 130 120 115 111 107 101
72 72 72 73 71 70 70 72 74 74 75 76 78 77 77 79 85 88 91 95 96 93 93 97 103 107 114 120 124 128 132 136 142 146 146 139 127 117 111 108 103 101 98
72 73 73 71 70 71 72 72 74 76 77 76 74 74 81 85 88 91 93 92 90 93 99 102 108 117 123 127 130 134 138 142 144 144 136 124 115 108 103 96 94 94 91
72 71 69 68 68 69 72 73 75 75 70 73 76 81 85 88 90 92 88 91 95 100 105 113 120 125 129 133 137 140 143 144 142 135 125 114 106 101 93 88 86 85 81
64 63 64 66 67 70 71 72 71 72 74 77 82 85 87 89 90 88 92 97 101 108 115 121 126 130 134 138 142 145 144 137 129 121 112 105 100 94 89 84 79 74 71
62 64 65 66 66 64 64 68 69 73 79 82 84 86 89 87 89 93 97 102 109 116 122 126 131 134 139 143 145 142 133 123 115 109 104 97 92 87 83 77 70 64 62
59 58 60 60 60 63 64 70 76 79 81 83 86 87 85 89 93 98 105 111 117 123 127 131 135 139 143 143 135 129 122 113 106 101 95 89 84 81 76 69 63 59 55
55 55 57 61 64 66 72 77 79 80 83 84 82 87 90 94 100 107 113 120 125 129 131 133 138 141 138 130 125 116 109 105 99 94 89 84 80 74 68 61 57 52 49
57 59 61 64 68 72 74 76 78 80 79 83 87 90 95 103 109 115 122 128 131 132 136 139 138 130 123 118 110 104 101 96 91 86 84 79 73 66 61 57 51 47 43
59 62 65 67 69 71 74 75 75 79 83 88 92 99 105 110 117 124 129 131 134 138 138 134 125 117 110 105 99 96 91 88 81 78 74 70 64 58 54 49 43 40 36
61 62 64 66 68 69 72 76 80 85 90 95 100 106 112 118 124 127 128 134 137 135 131 122 114 108 102 97 93 88 86 79 75 72 67 61 55 50 45 41 38 33 31

GFSMW_250_spd_027.txt.gz
Wind_Speed
36 32 29 32 25 26 28 26 30 29 31 30 31 31 32 32 32 33 35 37 37 37 37 38 39 40 42 43 45 48 53 57 60 62 65 66 65 67 68 69 70 72 74
33 29 25 23 16 21 27 30 29 33 33 33 32 32 33 34 35 37 37 39 42 42 41 40 42 43 45 49 52 55 59 63 66 66 64 64 69 72 73 74 75 76 79
24 23 22 19 18 17 21 27 28 32 35 37 38 37 36 35 36 38 40 43 44 45 46 47 49 51 53 55 59 61 63 64 68 68 69 71 72 72 77 79 81 85 87
24 21 21 21 20 22 23 24 25 31 32 35 37 37 37 36 37 40 42 42 42 43 45 48 50 52 55 58 60 62 64 66 69 73 77 79 80 79 76 81 86 90 95
27 22 21 21 23 26 25 26 26 27 31 34 36 38 40 40 41 41 43 46 45 46 47 50 53 56 59 63 66 68 71 73 76 78 81 83 86 89 88 84 89 93 100
29 25 26 25 29 30 29 32 33 33 33 34 37 40 40 42 43 44 47 48 49 52 55 58 61 64 67 69 72 74 77 80 82 85 87 89 89 91 94 96 98 101 105
33 31 30 30 31 33 34 37 38 40 41 42 42 44 45 47 46 48 51 52 54 58 60 63 65 69 72 76 79 81 84 86 90 90 90 94 97 99 104 108 107 105 103
31 31 31 33 34 35 38 41 44 46 47 49 50 53 54 53 54 55 55 56 59 62 65 69 71 74 77 81 85 89 90 91 92 93 97 100 104 110 113 112 111 103 104
31 30 33 36 38 39 42 44 47 49 51 53 54 56 58 59 60 60 61 61 63 66 68 72 76 78 81 84 85 89 93 95 97 98 101 105 106 108 108 111 116 120 116
34 34 37 39 42 44 47 48 51 53 55 58 59 60 61 63 63 65 67 69 71 72 74 77 80 83 86 88 91 94 94 97 99 103 106 105 105 108 113 117 122 128 133
39 41 43 45 49 50 51 54 56 58 60 62 64 65 66 66 67 68 72 73 75 78 80 82 83 85 89 92 93 94 98 101 104 104 103 104 110 115 119 124 129 133 139
43 44 48 51 52 55 57 59 60 63 64 67 68 70 72 72 72 73 76 76 78 80 83 84 87 89 91 94 95 98 103 103 101 101 106 111 117 121 126 130 134 139 141
49 52 55 57 59 61 64 65 67 68 69 71 73 74 75 75 76 77 78 78 80 83 85 87 90 92 92 95 99 101 100 98 103 108 114 119 123 127 132 136 139 139 139
56 58 60 62 65 66 69 71 72 74 74 76 76 78 78 79 79 79 80 82 84 85 87 89 90 93 96 100 99 97 100 105 111 115 121 126 131 136 139 139 142 139 128
64 65 66 68 69 71 73 75 77 78 79 80 81 81 80 80 80 81 83 84 87 87 89 91 94 98 99 98 98 103 108 112 118 123 129 133 139 140 141 141 135 122 113
68 69 70 72 74 75 77 79 81 82 82 83 83 81 80 81 82 84 85 87 87 90 92 95 96 99 96 100 105 110 115 121 126 130 135 139 142 142 139 127 119 108 102
71 73 75 77 78 80 82 83 84 83 84 81 79 78 80 81 82 84 84 86 91 93 95 96 96 97 103 107 112 118 124 130 134 137 140 141 142 133 118 110 105 102 97
75 76 78 80 83 84 84 83 82 80 78 76 77 79 80 80 80 82 88 89 93 93 95 94 98 103 109 115 121 127 132 136 140 142 144 136 123 113 105 97 94 94 91
78 80 83 85 84 81 80 77 74 73 74 77 77 77 75 79 83 86 91 93 92 92 95 100 103 109 117 125 130 134 137 141 143 144 133 117 107 102 96 90 87 85 83
82 80 77 75 74 71 69 70 73 75 75 74 74 75 79 82 87 91 91 91 91 97 100 106 112 119 125 132 137 141 143 142 138 128 115 106 98 95 89 84 79 77 76
63 62 63 63 65 67 70 70 71 69 70 72 76 80 83 88 89 89 89 92 96 102 108 114 121 127 133 138 142 144 144 132 116 110 104 99 94 88 83 78 75 71 68
59 62 64 66 64 65 66 64 66 69 74 77 80 85 86 86 85 88 93 98 103 109 116 122 128 133 137 141 144 140 128 116 106 101 98 92 85 81 76 73 69 64 60
59 58 58 58 56 60 62 65 69 73 78 81 82 83 82 85 90 94 99 105 112 119 126 131 135 137 141 142 134 121 114 106 100 95 90 84 79 76 73 67 61 56 51
52 52 55 59 62 64 67 70 74 76 77 78 78 81 86 91 96 101 108 114 121 128 133 136 138 140 136 126 117 110 104 99 93 88 83 78 75 71 68 61 54 49 45
55 58 60 63 65 70 71 73 73 75 75 77 82 88 93 98 104 110 116 122 128 132 137 140 135 125 117 113 106 100 94 87 81 78 75 71 68 64 57 52 48 42 38
60 61 64 68 69 69 70 72 73 74 78 83 88 95 100 106 112 117 122 128 131 136 136 128 118 112 107 102 98 91 86 79 75 73 69 65 60 53 48 45 39 36 31

GFSMW_250_spd_030.txt.gz
Wind_Speed
32 32 31 32 33 35 38 40 40 38 35 35 37 33 36 39 38 39 39 38 37 37 38 42 43 43 43 44 44 46 48 50 50 52 56 59 63 66 69 71 72 75 74
30 30 31 36 35 34 36 34 33 33 36 35 32 34 36 36 38 40 38 38 39 39 40 42 43 44 46 48 50 51 53 56 58 59 60 63 70 71 73 74 74 76 79
32 27 31 34 37 35 29 27 25 26 30 31 33 35 36 37 36 37 38 39 40 41 42 43 46 47 47 50 52 55 57 60 64 64 63 65 68 71 74 78 82 84 86
34 31 30 31 32 28 27 26 26 26 26 27 27 30 35 37 37 39 41 42 43 44 46 47 48 49 50 53 55 58 60 62 66 70 73 74 74 75 72 78 83 88 93
34 33 32 31 29 28 28 26 25 24 26 26 27 29 31 34 37 40 42 44 47 48 50 51 52 53 55 57 59 61 62 64 67 69 73 78 82 84 83 78 82 87 90
36 35 34 32 32 29 28 29 29 31 31 32 34 37 39 41 43 44 46 47 50 53 55 55 56 58 59 60 62 65 66 69 73 74 77 78 80 84 87 89 88 89 94
39 38 36 34 34 33 31 31 31 33 34 37 40 42 44 48 50 52 54 56 58 59 60 61 61 63 65 67 69 71 74 76 78 81 83 85 88 90 93 93 92 92 94
42 39 37 38 37 36 33 34 35 36 39 42 45 48 51 54 57 59 60 62 63 65 66 67 68 68 69 71 74 76 77 80 84 86 87 90 93 95 96 99 101 98 99
41 38 36 36 34 35 34 34 36 39 44 47 50 53 56 58 61 63 66 69 70 71 72 74 74 74 75 76 78 79 83 86 87 90 93 96 98 100 105 108 109 107 99
40 36 35 35 35 36 37 39 42 44 48 51 55 59 63 65 67 69 71 74 75 76 79 80 79 80 80 81 82 85 88 89 93 95 96 98 102 106 109 108 108 113 116
39 37 37 38 39 40 42 43 47 51 55 58 61 65 68 71 74 76 77 80 80 82 85 83 82 83 83 85 87 90 91 94 95 98 101 106 108 109 107 109 113 118 126
40 42 42 43 43 45 47 50 54 57 61 63 67 70 73 76 79 82 83 84 85 86 86 84 84 85 87 89 91 93 95 97 99 103 107 108 108 108 111 116 121 127 132
45 45 46 48 50 51 53 56 60 64 67 69 72 75 78 82 85 87 88 87 89 88 86 85 87 89 91 93 94 95 98 102 105 107 107 106 111 113 119 125 130 133 133
49 50 52 53 54 56 60 63 67 70 72 74 78 80 83 87 89 89 89 90 89 86 86 88 90 93 94 95 97 99 103 105 106 106 110 112 117 124 129 131 131 129 127
53 55 57 58 60 64 66 70 72 74 77 80 82 84 88 91 90 90 90 88 86 87 89 91 92 95 97 99 101 103 103 104 108 110 116 122 128 131 133 132 127 120 112
58 59 60 63 67 70 72 74 77 79 82 84 87 90 92 91 90 89 86 86 88 90 90 91 95 97 100 103 103 102 105 109 112 117 123 129 132 133 130 124 115 111 109
62 65 67 69 72 74 76 78 81 83 85 88 91 92 90 88 85 84 85 86 87 89 92 95 96 100 101 101 105 108 112 116 122 126 130 133 132 127 116 109 107 105 104
65 67 69 71 74 77 80 83 85 87 90 90 88 87 83 82 83 84 85 86 88 92 94 97 98 97 101 106 111 115 119 124 130 134 135 131 121 113 110 102 98 97 95
67 69 72 76 79 82 83 85 88 88 86 82 78 78 80 81 81 82 85 89 92 94 95 96 97 101 106 113 119 122 125 131 135 138 133 121 113 107 101 94 88 85 83
71 75 78 81 83 84 86 85 84 77 74 76 77 77 78 77 81 85 88 90 91 93 94 98 102 109 114 121 126 128 131 133 132 124 119 114 106 100 91 85 79 75 74
76 78 80 83 84 83 77 70 71 73 74 73 73 74 77 80 85 88 88 91 91 96 99 104 110 118 124 128 131 135 135 128 117 113 107 102 95 88 83 78 73 68 66
78 81 82 79 70 68 69 70 69 69 70 71 74 77 82 84 86 86 89 92 96 102 107 112 118 125 129 133 137 134 124 117 110 104 98 89 84 80 76 71 67 63 57
74 68 64 64 66 67 66 66 66 69 70 73 78 82 82 83 85 87 91 97 103 109 116 122 126 130 135 136 129 118 113 107 102 96 89 83 78 74 69 64 60 55 51
59 63 64 63 62 62 63 67 69 72 75 79 79 81 78 80 86 92 98 104 112 118 123 127 132 135 133 123 114 107 101 96 92 87 83 78 72 67 63 57 53 49 43
57 55 56 58 62 65 68 70 73 76 76 75 71 75 80 86 92 99 107 113 119 124 130 134 133 126 115 109 102 97 92 86 83 79 75 70 66 61 55 51 47 41 38
53 55 59 62 66 69 70 70 71 69 65 70 74 80 87 93 99 106 111 119 126 132 136 132 122 112 105 98 93 90 85 80 77 73 68 64 59 55 49 45 40 36 33

GFSMW_250_spd_033.txt.gz
Wind_Speed
40 39 40 41 39 42 42 41 39 35 36 39 43 41 39 36 39 41 41 40 39 39 39 40 40 42 42 42 43 44 46 44 46 48 52 55 58 59 62 65 68 70 72
42 40 37 38 37 34 35 34 32 36 36 38 37 39 40 41 41 40 43 42 42 40 41 44 45 47 48 49 49 50 50 51 50 51 52 56 62 62 65 68 71 73 76
41 37 34 33 30 30 31 34 37 36 32 32 30 31 33 33 33 34 38 38 40 42 43 45 47 49 50 52 52 52 55 58 60 58 59 60 62 65 70 74 78 80 82
38 36 32 30 30 30 36 38 37 34 31 31 31 31 31 31 33 32 33 35 37 40 42 44 46 48 50 52 55 56 58 59 62 64 63 65 65 68 67 74 81 84 86
38 37 36 33 32 34 37 35 33 30 30 30 31 32 34 34 36 38 40 42 44 46 49 51 53 55 56 58 59 60 62 63 64 66 70 73 75 75 73 73 80 85 90
41 41 39 37 35 35 34 34 32 31 32 32 34 35 36 38 40 42 45 48 50 52 55 57 59 61 63 65 66 67 69 70 70 72 74 76 79 81 82 82 84 86 91
45 43 40 40 37 36 36 36 33 33 35 34 37 36 39 41 43 46 49 52 56 59 60 62 66 68 70 72 73 74 75 76 76 78 80 82 84 87 88 90 90 90 93
47 43 44 42 40 40 39 37 37 39 40 38 37 39 42 44 48 52 56 58 60 63 66 70 73 75 76 77 77 79 80 80 81 83 85 88 91 94 98 100 100 94 90
47 45 44 44 41 41 41 39 39 39 39 41 42 44 48 51 54 57 62 64 67 69 72 76 79 82 83 83 83 84 84 84 85 88 90 94 98 102 104 103 99 97 91
48 46 45 44 44 44 41 40 40 40 43 45 46 49 53 57 61 65 68 70 73 77 79 83 86 89 89 87 87 86 86 87 90 93 97 101 103 103 103 103 104 105 105
48 46 45 47 48 43 43 42 42 44 47 49 51 55 60 64 67 72 74 77 80 83 86 90 94 93 91 90 88 87 89 93 96 99 100 101 102 103 106 106 107 108 113
47 46 48 47 46 46 46 46 48 50 53 54 58 61 67 70 74 77 80 83 86 89 92 96 95 93 91 89 90 92 95 96 97 100 102 104 107 107 107 107 111 116 121
49 48 49 46 47 49 51 52 54 56 58 61 64 69 73 77 80 83 86 88 92 95 98 96 93 91 90 92 94 95 96 97 100 103 105 105 106 107 111 115 119 124 128
50 50 50 51 51 53 54 56 58 60 63 66 71 75 79 82 84 88 91 94 97 100 97 93 91 92 93 94 95 96 98 100 103 104 106 108 111 115 119 122 126 129 130
54 55 55 55 55 56 58 60 62 64 68 73 77 81 83 86 89 92 95 99 100 97 91 91 93 94 95 96 96 98 99 100 102 107 111 116 121 124 127 129 128 123 115
58 59 58 58 58 59 62 65 66 70 75 78 81 83 87 91 94 97 100 98 90 89 91 91 91 95 95 97 99 99 99 102 108 113 118 123 126 130 131 124 113 109 104
58 60 60 61 62 64 66 69 73 76 78 80 84 88 92 95 98 99 92 87 90 90 90 92 93 96 98 98 100 101 106 111 117 121 124 129 133 126 114 109 106 104 101
58 60 62 64 66 68 71 74 76 78 81 85 89 92 96 98 94 86 86 87 88 89 90 94 97 97 98 100 104 110 115 120 123 128 132 129 118 111 106 100 98 97 93
60 63 66 68 69 71 72 75 79 82 86 89 92 96 94 84 84 86 86 85 86 90 94 96 95 95 101 108 113 118 122 124 129 131 124 115 108 103 99 94 90 87 84
62 65 66 67 68 73 76 80 83 86 89 92 93 84 82 83 83 83 83 85 90 93 91 92 97 102 109 115 120 123 127 130 126 118 111 107 102 97 92 86 81 78 74
61 63 66 70 74 77 80 83 86 89 88 81 79 80 79 79 80 83 86 89 89 88 92 97 105 112 118 121 125 130 132 122 115 109 103 99 93 88 82 78 73 69 67
66 68 71 74 77 80 83 85 84 78 76 77 76 76 77 79 83 84 85 83 85 91 97 104 111 118 123 129 131 131 123 116 107 101 97 90 84 80 75 70 67 63 59
70 73 75 77 79 82 79 75 73 73 73 72 73 77 78 80 81 79 80 87 92 98 104 110 115 121 128 130 126 121 112 105 101 97 89 82 78 73 67 64 60 56 51
73 74 76 76 71 70 69 68 68 68 69 72 75 78 77 74 75 82 87 93 99 105 111 115 121 126 127 120 114 107 101 97 93 87 82 78 72 68 63 58 52 47 43
68 65 63 64 64 64 64 64 66 67 71 72 72 66 70 76 81 88 94 100 108 112 116 123 126 124 115 110 102 97 93 88 82 78 75 71 67 61 56 51 44 40 36
56 57 58 59 61 62 64 64 64 69 68 64 66 70 75 81 87 93 101 108 113 120 126 129 126 117 112 102 95 93 87 82 77 74 70 65 59 54 49 42 38 34 32

GFSMW_250_spd_036.txt.gz
Wind_Speed
58 56 46 47 46 43 45 48 55 57 57 58 55 49 50 48 48 48 47 46 45 46 46 45 48 45 45 47 48 49 50 50 52 54 57 59 60 62 63 65 66 67 69
58 52 44 38 41 43 43 46 46 46 45 45 44 42 45 46 45 44 42 43 43 43 43 45 45 46 45 46 47 49 50 50 50 53 56 61 66 66 67 70 74 74 77
58 48 41 39 39 41 41 40 38 37 38 38 38 41 43 41 39 38 39 39 39 40 40 41 41 43 45 47 48 51 54 57 57 58 60 61 64 67 74 76 80 80 82
56 47 43 40 40 41 41 35 35 34 36 36 40 40 39 39 40 39 39 40 42 42 42 43 45 47 48 50 52 54 57 61 63 65 66 67 67 68 68 80 85 87 89
53 47 42 40 40 37 35 35 35 33 36 40 41 41 42 41 41 42 43 44 46 44 44 47 50 52 54 57 60 61 63 66 69 72 74 76 77 77 74 72 81 88 92
55 47 43 42 38 36 37 36 34 37 40 38 40 42 42 41 43 43 45 47 46 46 50 52 55 59 62 64 67 70 73 76 78 81 81 80 82 84 86 83 82 83 89
54 46 42 41 38 40 39 38 37 38 39 39 42 43 45 43 46 45 47 49 50 52 55 58 62 66 69 72 74 77 81 85 87 88 88 87 87 87 87 85 83 84 88
51 44 43 42 44 45 42 40 41 40 40 41 43 45 46 47 51 50 52 54 55 58 61 66 69 73 76 79 82 84 89 93 94 92 90 88 88 89 90 92 92 91 93
50 46 47 46 48 46 44 43 43 43 43 44 45 48 51 51 52 54 55 58 60 63 68 73 76 80 83 86 89 93 97 97 94 92 90 90 93 96 99 101 100 95 86
49 49 50 50 49 47 47 48 47 46 47 48 50 51 53 53 55 57 59 63 66 71 76 80 83 86 90 92 96 101 99 95 93 92 95 98 99 101 100 99 100 101 99
51 49 50 52 50 50 50 49 48 48 50 51 52 54 54 56 59 61 65 68 73 79 82 84 88 93 96 100 102 99 94 93 95 98 99 101 99 99 100 101 102 103 108
51 49 51 52 52 51 50 50 50 52 52 53 56 58 59 61 65 68 70 75 81 84 87 91 95 98 102 103 97 93 95 97 98 99 100 101 101 102 102 104 107 111 118
50 50 52 51 51 51 51 52 53 54 55 57 60 62 64 67 70 73 77 82 87 90 93 98 101 105 103 96 95 97 97 98 99 100 101 101 102 104 107 113 118 123 126
51 51 51 51 52 53 52 55 55 57 58 61 64 66 68 71 75 79 84 88 91 95 99 102 106 99 94 96 96 96 96 98 100 102 103 106 110 114 118 121 125 127 128
51 51 52 53 54 54 55 56 58 59 62 64 66 69 72 76 80 85 89 92 96 100 103 105 97 95 96 96 93 94 97 99 100 104 110 114 119 123 126 130 127 122 115
51 50 52 54 55 56 58 60 61 64 66 68 70 73 77 81 86 89 92 96 100 104 103 93 95 95 92 93 95 95 95 100 107 111 117 121 124 127 130 124 118 113 103
50 50 52 55 57 59 61 63 65 68 70 72 75 78 82 86 89 92 96 100 103 96 93 93 91 91 93 93 92 96 103 109 116 120 123 125 129 124 115 110 105 102 98
51 53 55 56 58 61 63 66 68 71 73 76 79 83 86 88 92 95 99 100 92 91 90 90 90 90 89 91 98 103 111 118 123 126 129 127 118 111 104 99 97 93 87
53 55 56 57 58 61 64 66 69 72 76 79 83 85 88 92 96 99 92 89 89 89 88 89 86 86 93 99 105 112 118 122 126 128 126 116 107 101 98 93 87 82 79
53 54 56 57 58 60 63 67 72 77 79 81 83 87 91 95 94 87 86 85 86 87 85 83 88 93 100 107 113 118 122 125 125 122 115 107 102 97 91 83 78 76 71
53 54 58 60 61 63 66 68 72 75 79 83 87 91 93 86 85 82 83 84 85 80 82 88 94 101 107 113 119 125 128 124 118 113 104 100 95 90 83 77 72 68 64
54 56 58 61 64 66 69 72 76 79 83 87 88 85 81 81 79 81 82 81 76 81 87 93 100 107 113 120 125 128 126 119 113 106 99 94 86 80 77 72 67 62 59
55 58 61 64 67 70 74 77 80 83 84 82 79 79 77 77 77 80 78 76 81 87 93 99 104 110 117 124 127 125 116 111 107 100 93 85 80 76 70 65 61 57 52
60 62 65 69 72 75 77 80 79 77 75 75 75 74 74 75 78 73 75 80 86 92 98 103 108 115 122 125 122 111 106 102 98 93 86 81 77 71 65 60 57 52 46
65 68 70 72 73 73 72 71 71 72 72 72 71 72 74 73 70 75 80 86 92 97 101 107 113 119 123 119 108 103 98 94 90 83 79 76 69 64 60 56 51 46 41
66 66 65 64 64 65 67 69 70 71 70 70 70 68 65 67 72 79 87 92 97 102 108 114 120 123 119 109 102 98 93 87 81 77 75 69 63 59 54 50 44 40 36

GFSMW_250_spd_039.txt.gz
Wind_Speed
75 77 75 69 64 60 57 54 53 52 51 52 58 61 61 61 60 63 59 54 52 51 50 46 44 44 45 45 46 44 45 47 50 52 54 56 57 60 63 66 68 69 72
70 76 75 70 63 58 54 52 52 49 47 47 52 55 55 56 56 51 48 49 48 47 45 44 45 45 45 45 48 48 49 50 53 57 59 62 64 65 67 70 73 75 78
68 74 74 70 61 57 51 50 50 50 46 46 47 47 46 46 46 46 46 46 45 43 46 47 47 47 47 48 50 52 55 57 59 61 65 67 70 72 78 81 84 85 86
68 72 71 69 61 58 49 48 45 44 42 42 42 43 41 43 43 45 45 44 44 46 47 48 49 50 51 52 55 57 60 63 67 69 72 74 74 76 77 88 94 94 94
69 72 71 68 59 53 47 46 43 41 40 40 40 40 41 40 43 43 44 45 47 47 51 52 53 54 54 57 60 63 66 69 73 75 79 82 84 85 84 84 91 94 95
72 73 70 64 56 52 48 46 43 40 40 41 41 40 39 42 44 45 45 47 48 50 53 55 56 58 60 63 66 70 73 77 80 83 87 89 91 96 98 95 91 86 85
71 73 71 63 58 51 47 46 41 40 42 42 41 40 42 45 45 45 48 50 51 54 58 60 62 63 66 69 73 76 81 85 87 91 95 98 101 101 99 94 89 85 85
71 73 72 60 55 50 47 45 41 41 42 43 42 43 46 45 46 48 51 52 55 59 60 63 65 68 71 75 80 85 89 92 96 100 104 107 103 96 94 94 93 92 93
71 73 70 58 53 49 47 43 42 43 45 45 46 47 45 47 48 50 53 56 60 63 63 66 69 73 77 82 87 93 95 99 104 108 111 101 97 97 100 102 101 97 87
74 71 62 55 53 49 46 44 44 46 47 47 48 47 49 50 51 53 57 60 64 65 67 70 75 79 83 88 94 98 101 107 110 112 100 100 101 102 100 98 101 104 101
74 69 61 55 51 48 46 46 48 49 49 49 49 49 51 53 55 58 60 64 67 69 72 77 81 85 90 95 100 103 108 112 110 102 103 103 99 98 101 101 102 106 111
71 64 58 53 48 48 48 48 49 50 51 50 50 51 54 57 59 62 65 68 72 75 79 82 86 91 96 101 105 108 113 107 103 105 101 99 100 99 101 104 109 114 120
65 58 54 52 49 49 49 50 50 51 52 52 52 55 58 60 63 67 69 72 75 79 82 87 91 96 101 105 109 113 106 104 104 100 99 98 99 104 109 114 119 123 126
61 57 53 49 48 48 50 50 51 52 53 54 56 58 61 64 67 70 73 76 79 82 87 91 96 101 106 109 113 104 104 103 99 97 97 102 107 113 118 121 125 128 130
57 54 49 48 48 47 48 51 53 53 55 58 59 62 65 68 70 74 78 80 83 87 92 97 101 105 109 111 102 103 99 95 93 98 104 111 116 121 124 127 130 128 117
53 50 47 47 45 45 46 49 52 55 57 59 62 66 69 72 75 78 81 84 88 92 98 101 104 109 108 102 101 95 89 94 98 105 112 118 122 125 129 129 124 116 104
49 46 43 43 43 44 47 50 53 56 59 63 66 69 72 75 77 81 84 88 93 98 99 103 107 103 100 98 93 88 95 100 107 114 119 122 126 129 124 118 112 105 98
43 41 40 41 42 45 48 52 55 57 60 64 67 71 74 77 79 83 88 92 94 98 103 105 97 98 94 90 88 93 100 107 114 121 125 127 128 123 115 107 101 97 92
40 39 40 42 46 48 50 52 55 59 62 65 69 72 74 78 82 85 89 93 98 103 99 95 95 90 89 88 93 99 106 112 118 124 128 128 120 113 105 97 93 89 85
39 40 42 45 47 49 52 55 58 62 65 69 71 74 78 81 85 89 93 98 100 91 92 93 88 88 87 92 99 105 110 116 121 126 126 119 112 104 97 92 87 84 79
41 43 45 47 49 52 55 58 61 64 67 71 75 78 82 85 89 94 97 91 88 88 87 85 84 87 92 98 104 111 117 121 124 124 115 110 103 96 92 87 82 78 73
43 45 47 50 52 55 58 60 64 68 71 74 78 82 86 90 94 90 84 84 84 84 81 80 87 93 98 104 111 118 123 126 122 114 108 101 95 90 84 81 76 72 66
43 45 48 52 55 57 60 63 67 71 74 78 83 88 90 87 81 82 81 81 78 74 77 83 90 95 103 109 116 123 126 122 115 109 101 93 88 82 79 74 70 64 58
47 49 51 53 56 59 62 67 71 76 81 84 84 82 79 80 79 78 76 72 72 77 82 88 94 101 108 114 120 123 120 111 105 100 93 87 81 78 74 68 62 57 52
51 53 54 57 61 65 70 74 77 78 76 74 77 77 77 74 69 65 65 70 76 81 86 93 99 105 111 117 120 116 108 101 96 89 86 80 77 73 67 61 56 50 46
53 56 60 63 68 70 70 69 67 68 70 70 75 73 67 62 61 65 71 75 81 87 94 99 105 112 118 120 115 108 101 94 89 84 79 76 72 66 59 53 49 46 44

GFSMW_250_spd_042.txt.gz
Wind_Speed
64 72 70 70 72 75 76 75 73 68 65 59 56 56 58 55 57 57 57 58 59 60 62 61 61 56 52 49 49 48 48 50 52 55 55 56 59 62 65 69 72 73 75
56 63 74 72 70 72 72 74 71 67 64 59 55 52 51 53 51 50 51 54 55 57 57 55 51 50 48 49 50 51 51 54 56 58 60 63 65 66 70 74 77 79 82
56 57 66 74 71 69 70 71 69 65 60 57 53 49 51 51 48 48 50 50 51 53 49 47 48 48 48 49 53 55 57 58 61 62 64 67 71 73 82 87 87 86 91
56 59 60 72 72 68 68 67 66 64 58 54 51 50 50 51 46 44 46 48 48 45 44 45 47 49 50 53 55 60 63 64 65 67 70 73 74 77 79 91 96 98 103
57 61 61 66 72 67 65 65 63 61 56 52 50 49 47 45 44 46 46 45 43 43 44 46 48 51 54 57 59 62 67 71 72 75 77 79 82 85 84 85 95 103 108
58 56 62 64 69 67 62 63 62 59 55 52 49 47 44 44 44 44 44 42 43 44 46 48 51 54 57 61 64 69 73 74 77 79 81 85 89 95 98 98 99 101 109
62 52 60 63 70 66 62 64 62 57 53 49 47 44 44 44 46 43 42 43 45 46 49 51 56 59 62 66 70 75 76 78 80 85 89 93 96 101 106 107 108 110 98
61 56 60 63 68 65 61 64 58 53 51 47 45 43 44 45 45 44 44 45 47 50 53 55 59 63 67 71 75 76 79 82 86 91 96 100 104 109 113 116 116 99 101
61 58 61 63 67 62 61 62 56 51 49 46 43 44 45 45 47 46 46 48 51 53 56 61 63 67 70 75 78 80 84 88 93 97 101 105 110 115 120 114 109 109 97
61 58 60 66 66 61 60 60 53 50 48 45 44 45 45 46 47 48 49 51 54 57 61 65 68 72 76 79 82 86 90 93 97 102 106 111 116 122 114 113 110 106 103
63 60 62 68 64 61 58 57 51 49 48 44 46 46 46 47 49 50 52 54 58 62 65 69 72 77 79 82 86 90 93 97 102 107 112 117 121 113 113 107 103 106 110
64 60 65 67 61 59 59 56 51 48 46 45 45 46 48 50 51 53 55 58 62 65 69 73 78 81 84 87 91 94 97 102 108 112 116 121 112 112 107 103 107 111 117
62 61 63 61 60 60 57 52 48 47 45 45 45 48 50 51 55 57 59 62 65 69 74 78 82 85 88 92 94 97 102 108 112 116 117 111 110 105 102 108 113 119 124
61 63 63 60 59 54 53 49 46 45 43 45 47 49 52 55 57 60 63 66 70 74 78 83 86 89 91 94 98 103 107 112 116 114 111 107 103 103 108 115 120 125 128
61 62 59 58 54 51 49 46 43 41 42 46 49 52 54 57 60 64 67 70 75 79 83 86 88 90 93 98 102 106 111 114 109 110 103 100 103 110 116 121 126 130 132
58 54 54 52 48 46 44 40 39 41 44 48 51 55 58 62 65 68 71 75 79 82 84 87 89 93 97 101 106 110 111 106 105 97 96 103 110 116 123 128 132 135 124
53 52 48 43 43 40 37 37 39 42 45 48 51 55 59 63 66 70 74 77 81 83 86 89 93 97 101 105 109 104 106 98 92 96 103 109 117 123 128 130 133 126 114
48 46 43 41 38 36 36 38 40 43 46 49 52 56 60 64 68 71 76 80 84 87 89 93 96 101 105 105 100 101 93 89 95 103 110 117 123 128 129 129 123 113 102
41 40 39 37 37 36 38 40 43 46 48 51 54 58 62 66 70 75 79 83 86 90 93 96 102 104 99 100 95 88 87 93 101 110 118 124 127 128 127 117 106 99 93
37 35 34 34 35 37 40 42 45 47 50 54 58 61 65 70 74 77 82 86 89 93 98 102 97 96 95 88 83 86 92 99 107 116 123 127 128 124 116 103 96 91 84
33 32 33 35 37 38 40 43 46 50 53 57 61 66 70 73 78 82 85 89 94 97 96 93 93 86 80 80 86 93 100 107 114 122 126 127 121 113 104 97 90 82 79
33 32 33 35 37 40 42 46 49 53 57 61 65 69 73 76 80 85 90 94 95 90 90 85 80 78 80 84 92 100 108 116 122 125 126 118 110 103 96 90 82 77 73
33 34 35 36 39 42 45 49 52 56 60 64 68 72 77 82 87 89 90 88 89 86 79 75 77 82 86 93 100 107 115 122 126 126 115 106 100 94 87 80 76 71 66
33 34 36 39 42 45 48 52 57 61 65 69 73 78 82 85 86 84 85 86 84 76 73 76 80 84 91 99 106 113 120 124 123 111 103 97 91 84 78 75 70 64 59
36 38 41 43 46 50 54 59 62 66 71 74 76 77 78 79 81 81 81 81 75 72 75 78 83 89 97 104 110 118 121 116 105 98 94 88 81 76 72 66 61 57 52
41 43 45 49 52 56 59 63 67 69 70 68 68 72 75 78 78 78 76 71 71 74 77 82 89 96 103 108 116 122 116 103 96 92 86 79 75 72 67 60 53 49 47

GFSMW_250_spd_045.txt.gz
Wind_Speed
58 59 58 56 63 73 75 75 73 74 73 73 70 67 64 60 56 56 54 53 52 52 56 58 57 57 59 62 63 58 57 54 53 53 53 54 56 60 64 66 67 69 73
57 59 57 51 52 64 75 73 72 71 71 70 68 65 62 58 56 58 56 51 51 52 55 56 55 56 59 59 56 54 52 52 52 55 57 59 62 66 69 71 73 76 79
56 57 58 54 52 54 65 72 71 68 68 68 67 64 59 57 56 58 55 52 50 53 53 52 52 53 55 55 51 50 50 52 54 58 60 64 67 71 77 80 82 83 86
62 60 57 56 50 52 57 65 71 67 64 64 65 62 57 54 56 56 53 52 52 52 50 49 49 52 52 50 50 50 53 54 57 61 65 68 70 74 78 87 90 91 94
68 64 61 58 50 54 51 58 64 66 63 61 61 60 55 52 54 52 52 51 52 51 49 50 51 51 48 49 51 53 54 58 62 66 70 73 76 79 79 80 90 95 100
72 66 63 57 49 56 53 54 59 63 63 59 59 58 54 51 52 51 50 49 48 49 51 50 50 50 49 51 54 56 60 64 67 71 75 78 82 85 84 84 87 92 99
73 71 66 60 49 56 59 54 55 61 60 56 57 57 52 50 52 49 49 50 49 51 51 51 52 49 50 54 57 61 65 68 72 76 79 83 86 88 90 92 92 92 99
74 75 73 64 55 56 61 55 52 58 59 54 54 54 50 50 51 49 50 49 50 52 52 52 50 51 54 58 62 66 70 73 78 81 85 88 90 94 96 98 99 100 105
81 78 79 69 55 55 63 56 52 56 56 53 52 52 49 49 50 49 49 50 51 51 52 52 52 55 59 62 66 71 74 79 82 86 90 93 96 99 102 104 108 110 108
90 79 80 69 61 56 61 58 54 55 52 53 51 51 48 49 49 49 49 49 48 50 53 54 56 60 63 67 71 75 79 83 87 92 97 99 101 104 106 109 113 118 121
91 85 80 68 62 59 57 58 55 55 53 54 50 49 49 49 48 48 48 48 50 53 55 58 61 63 67 72 75 79 84 89 94 98 100 101 103 107 110 115 120 117 117
77 88 82 71 62 56 61 55 55 54 55 52 49 49 49 48 48 47 48 50 53 56 59 62 65 68 72 77 81 85 90 94 98 99 101 103 107 112 116 120 112 116 108
57 74 75 68 60 56 59 53 55 55 55 50 47 48 47 47 47 47 49 53 56 59 63 65 68 73 77 81 85 90 95 98 99 101 104 109 113 117 117 112 109 103 108
47 60 59 57 53 54 55 54 57 54 51 47 46 46 45 47 48 49 51 55 59 63 66 69 73 78 82 86 90 95 98 100 103 106 110 114 117 112 113 103 101 108 114
45 48 50 51 50 54 53 56 53 51 48 44 45 45 45 47 49 51 54 57 61 65 69 73 79 82 86 90 94 97 101 103 107 112 116 114 111 108 98 101 109 116 120
43 46 47 45 50 51 53 52 51 45 42 43 44 44 45 47 49 52 56 60 64 68 72 76 81 85 89 93 96 98 103 107 112 112 109 111 99 94 102 111 118 124 127
43 45 45 46 44 50 49 46 43 42 41 41 42 42 44 47 50 54 57 62 66 70 74 79 83 87 90 94 98 102 108 111 108 109 101 93 95 103 110 117 124 130 132
29 31 35 42 46 45 44 43 41 38 37 38 39 40 44 48 51 56 60 64 68 73 77 81 85 89 93 97 103 107 106 106 104 95 92 95 102 112 117 121 127 132 124
31 37 40 41 42 42 40 37 34 33 35 36 38 42 46 51 56 60 64 68 72 76 80 84 88 93 97 104 105 100 103 97 90 93 97 104 112 118 121 125 127 120 109
35 37 39 38 37 35 32 31 31 34 36 39 42 46 51 56 59 63 67 71 75 80 84 88 92 97 102 99 101 99 90 86 90 96 104 112 118 121 126 125 115 106 101
34 34 33 32 30 29 30 33 34 36 38 43 46 50 54 58 62 66 70 75 79 84 89 94 97 96 97 98 92 86 85 89 94 103 111 118 122 125 123 113 105 99 90
29 28 26 25 27 29 31 33 35 38 41 45 50 53 57 62 66 71 76 80 84 89 93 95 94 96 91 83 81 84 89 95 102 111 117 121 124 118 109 103 96 88 81
24 23 23 24 26 28 31 34 37 41 44 48 52 57 61 67 72 76 80 85 90 91 89 91 92 87 82 80 83 88 94 102 111 119 122 124 116 106 100 92 84 79 75
22 23 24 26 28 30 33 36 39 43 49 52 57 62 67 72 76 81 84 87 87 88 89 86 81 77 78 82 87 93 99 107 115 120 122 112 103 97 89 81 77 73 67
24 25 27 29 32 35 37 41 45 49 54 58 63 68 72 77 80 81 82 84 85 86 82 77 75 76 81 85 91 98 105 111 115 116 107 99 95 84 77 72 68 64 59
28 30 32 34 36 39 43 47 51 55 59 64 69 72 73 74 75 79 82 83 83 79 73 72 75 80 84 89 95 104 110 114 113 103 96 91 81 75 73 68 62 56 51

GFSMW_250_spd_048.txt.gz
Wind_Speed
59 58 58 61 62 61 61 65 63 61 63 65 67 68 69 71 70 68 66 62 63 63 60 57 56 56 57 56 59 62 60 60 61 61 61 59 57 56 57 60 61 61 65
64 63 63 63 60 59 60 63 65 62 60 64 65 66 66 66 67 65 61 62 61 65 60 58 56 57 56 58 58 56 57 59 61 59 57 56 55 57 60 63 64 67 71
70 70 69 67 65 60 59 62 65 61 60 60 65 66 65 63 64 65 64 62 63 64 60 58 57 58 57 56 54 53 56 58 57 58 57 56 56 60 64 66 69 73 77
73 73 70 70 68 64 60 61 64 60 59 58 59 66 66 63 60 61 60 62 62 61 59 58 58 57 56 55 56 56 57 58 57 57 57 57 59 62 66 74 77 79 83
81 77 73 70 69 67 61 58 59 58 57 57 57 59 67 63 57 55 58 59 59 59 59 57 58 57 56 56 57 57 57 58 58 57 57 61 64 66 68 73 81 85 89
85 81 76 74 69 68 63 58 55 56 53 52 56 57 62 62 55 53 57 58 58 58 57 57 58 57 58 58 58 57 59 59 57 59 62 65 68 71 74 77 82 85 93
92 87 82 76 71 66 65 61 57 56 53 48 50 55 57 60 53 53 57 58 56 57 57 57 58 59 59 60 58 60 59 58 60 62 65 69 73 77 80 83 85 88 95
99 93 90 86 78 69 64 62 62 57 52 48 47 51 54 58 53 52 55 54 54 56 56 58 59 61 62 62 60 59 60 61 64 67 70 74 78 83 86 89 92 94 100
92 96 93 88 85 74 68 64 64 59 52 49 47 49 52 55 54 52 54 54 54 57 59 59 61 61 63 62 60 61 63 65 69 73 76 80 85 89 92 96 100 102 100
71 79 86 85 85 76 71 65 65 58 50 49 48 47 53 54 53 52 53 53 56 57 59 60 60 62 62 61 61 64 67 70 74 77 82 87 91 95 98 102 105 108 107
79 79 76 76 77 74 71 66 64 56 50 52 50 48 53 53 51 52 52 53 55 56 57 59 59 60 61 62 65 68 72 76 79 83 88 92 96 100 104 107 110 111 114
81 82 81 75 72 70 69 66 60 52 49 52 53 49 54 52 51 51 52 53 53 54 57 57 59 59 62 66 69 73 77 81 85 89 94 98 101 105 108 111 112 117 119
69 74 80 77 73 70 67 65 55 50 49 52 55 49 53 52 51 52 51 51 52 54 56 57 59 60 64 69 74 78 83 86 90 95 98 102 106 109 110 114 118 115 116
51 56 66 75 71 68 65 59 54 50 49 54 54 50 53 52 51 51 51 50 52 54 55 58 60 63 67 71 75 81 85 89 94 98 102 105 108 111 114 114 112 112 103
34 45 52 58 70 67 58 51 47 45 50 54 50 50 53 51 49 51 49 49 52 54 57 59 63 66 70 74 78 83 88 93 98 101 103 107 112 115 111 113 106 101 105
22 28 36 47 67 69 58 48 44 48 52 52 47 49 50 48 49 48 48 50 53 56 58 62 65 69 73 77 82 88 92 95 98 103 108 113 110 112 109 101 101 107 109
21 27 35 46 54 60 60 53 49 51 50 47 45 47 47 47 46 45 47 51 54 57 60 63 67 72 78 83 86 89 93 98 103 109 109 108 109 100 96 99 106 112 116
24 28 34 38 42 46 47 47 46 46 43 42 44 43 42 43 42 44 48 51 54 58 62 67 73 78 81 85 88 94 99 104 107 106 109 102 95 96 100 104 111 117 121
20 23 28 33 36 39 40 41 42 38 38 38 39 39 39 38 41 44 48 53 57 62 68 73 76 80 84 90 95 99 104 102 105 105 96 92 97 102 106 110 115 121 124
18 21 25 29 31 32 33 32 33 34 35 35 34 34 35 38 43 47 52 57 63 67 72 75 80 86 91 96 101 102 101 103 98 91 91 97 101 106 112 115 120 124 121
18 18 22 24 27 28 29 31 32 31 30 31 31 34 38 43 47 52 57 62 67 70 75 81 86 91 95 100 99 100 99 93 87 89 96 101 106 112 116 120 123 118 107
18 21 23 25 26 26 26 26 26 27 28 30 35 39 43 47 52 57 62 65 70 76 82 87 92 96 97 96 97 96 90 85 89 95 102 107 112 117 120 121 115 104 97
21 23 23 22 22 22 22 22 24 27 31 34 38 42 47 51 56 60 65 70 76 81 86 92 95 95 96 95 93 88 85 89 96 103 109 114 117 120 117 110 101 95 87
20 19 19 18 18 19 20 22 26 30 33 37 42 46 51 56 60 65 70 76 81 86 89 90 92 95 94 89 85 85 88 94 101 108 114 117 118 114 105 98 91 84 79
18 17 17 17 18 20 24 27 30 33 37 42 47 52 56 61 66 71 76 80 84 84 86 91 93 92 87 84 83 88 93 99 106 112 114 115 109 101 95 88 81 75 70
20 19 20 22 23 25 28 32 35 40 44 49 53 57 62 67 71 76 78 80 81 85 88 89 89 84 81 81 86 92 98 105 110 113 111 103 97 92 86 79 74 68 63

GFSMW_250_spd_051.txt.gz
Wind_Speed
57 59 62 64 65 63 63 62 65 68 67 65 64 64 62 62 64 63 67 68 70 73 73 72 71 72 72 69 62 61 61 59 60 59 59 59 59 62 61 63 63 60 60
64 63 62 64 66 68 65 63 61 63 65 62 63 63 60 62 63 62 62 65 67 66 68 68 68 71 70 66 63 63 61 60 60 58 57 58 60 61 62 62 62 61 62
70 69 68 65 64 65 68 66 62 62 62 59 56 56 61 62 60 63 66 65 65 62 62 64 66 67 66 65 64 63 61 60 60 60 61 61 61 62 63 63 62 62 63
77 75 72 71 67 66 68 68 65 63 63 61 55 51 54 58 59 61 64 67 65 63 64 66 66 66 65 65 62 63 61 60 60 62 62 63 63 62 63 63 64 66 68
76 76 77 75 73 71 71 71 67 65 62 64 60 54 52 56 56 55 58 66 67 64 64 65 66 65 64 62 61 62 61 60 62 64 65 66 64 64 63 64 67 70 73
81 79 79 80 79 76 72 74 72 69 66 62 63 58 54 55 53 52 52 59 64 63 64 63 62 64 63 60 59 61 62 62 64 66 68 68 67 65 66 65 70 73 80
86 87 86 82 81 79 76 74 75 75 67 64 63 56 58 55 51 52 48 52 59 63 63 63 62 63 61 59 59 61 63 65 68 70 70 71 69 69 69 70 74 77 82
94 94 94 93 90 88 83 79 75 75 72 66 63 56 56 55 51 51 47 50 58 61 62 63 62 59 58 59 60 63 65 68 70 72 72 73 72 72 74 77 79 81 86
93 97 102 104 99 96 91 83 79 76 77 69 63 57 54 55 53 51 50 49 56 60 61 61 59 58 58 59 60 64 67 69 72 73 75 74 74 77 79 83 86 88 90
90 89 89 94 97 93 93 92 89 86 80 75 69 60 54 55 56 54 50 48 56 59 59 59 58 59 60 59 62 67 69 72 74 75 75 76 79 81 85 88 93 97 99
81 84 80 87 89 86 84 84 82 79 79 75 66 61 56 56 58 56 49 48 55 57 57 58 59 60 60 62 64 67 70 72 74 76 76 79 82 86 89 93 97 101 105
67 66 74 80 84 82 76 77 77 76 78 78 71 64 58 57 57 58 51 48 54 55 56 57 58 59 61 62 64 67 69 73 75 77 79 81 84 88 92 97 102 107 110
51 44 60 65 66 75 73 69 73 73 74 74 68 62 58 56 56 58 52 48 52 54 54 55 55 59 60 61 65 67 70 74 77 79 81 85 88 93 98 103 106 108 113
37 36 52 59 64 63 63 65 65 68 68 65 60 56 56 52 55 58 51 47 51 52 52 53 57 58 60 63 66 69 73 76 79 81 84 89 95 99 102 105 110 116 119
22 23 35 42 45 48 51 61 60 62 60 57 56 55 52 50 53 57 49 47 49 48 51 54 57 59 60 63 68 71 74 78 81 86 90 96 99 102 107 112 117 117 119
11 11 18 23 28 34 45 55 55 53 51 51 51 49 47 50 53 53 44 45 46 48 51 55 58 59 62 66 69 73 76 82 87 92 96 99 103 107 113 114 115 117 113
7 5 7 11 15 31 44 53 52 47 46 46 46 46 48 49 51 41 41 43 45 48 52 56 57 60 63 67 71 77 82 86 91 95 100 103 109 112 111 113 112 110 108
27 20 15 16 20 31 46 46 45 44 41 41 41 43 43 44 39 37 39 41 44 49 53 55 57 62 67 71 77 82 86 90 96 101 106 110 109 112 111 108 106 107 110
24 25 22 21 25 39 42 40 34 32 34 36 40 39 37 35 32 34 37 41 46 50 52 56 61 66 71 77 81 86 91 96 101 107 109 109 110 109 106 103 104 108 112
17 19 20 20 24 32 37 35 35 30 32 35 39 35 30 30 32 34 39 44 46 50 56 61 66 71 76 81 86 91 95 101 106 106 108 108 106 103 103 105 108 110 115
10 13 17 21 22 23 26 29 33 36 37 34 30 28 29 30 32 37 40 45 50 56 61 66 71 76 81 86 91 96 101 103 104 106 106 103 101 103 105 109 112 116 118
12 15 13 14 17 20 24 25 26 26 25 24 24 25 28 32 36 40 45 51 55 60 66 71 75 80 85 90 96 100 100 103 103 102 98 100 104 107 111 114 117 117 107
14 17 15 16 16 17 17 17 17 18 20 22 24 28 32 36 41 46 50 55 60 66 70 76 81 86 90 95 96 99 102 101 97 97 101 105 108 113 115 117 112 103 97
10 12 13 12 12 12 13 14 16 18 21 25 29 32 37 41 46 50 55 60 66 71 76 81 86 90 92 93 98 99 97 92 97 101 107 111 114 116 115 105 97 92 86
11 10 11 12 13 14 14 16 19 23 25 29 33 37 41 46 51 56 61 67 71 76 81 85 87 88 92 96 96 92 93 96 101 106 111 114 115 110 100 94 88 83 78
12 12 12 13 14 16 18 21 24 27 31 35 39 43 48 53 58 63 68 72 76 79 82 84 88 92 94 90 88 93 97 102 106 110 113 111 102 95 91 86 81 76 73

GFSMW_250_spd_054.txt.gz
Wind_Speed
64 65 65 65 64 65 64 63 60 60 60 58 58 58 55 61 65 64 62 62 62 63 63 62 64 67 70 73 75 77 77 76 75 71 69 66 64 64 62 63 62 62 61
61 65 68 66 64 66 67 66 65 57 61 59 58 54 50 56 58 58 61 63 63 61 62 64 66 69 68 71 74 73 73 76 71 69 67 63 63 64 63 63 62 61 61
67 64 65 70 69 68 67 67 68 63 60 62 60 56 54 56 54 55 57 58 58 60 61 63 65 66 67 67 69 71 76 69 68 67 63 61 62 62 64 65 64 63 63
69 68 68 70 72 74 73 71 71 72 63 64 58 55 55 56 56 51 53 54 56 57 57 60 63 67 69 68 68 69 70 69 67 66 64 60 61 63 64 66 66 67 67
72 72 71 71 73 72 74 75 74 75 72 66 63 58 58 51 54 55 57 53 54 57 58 57 58 64 70 69 68 68 69 69 69 66 63 62 63 64 64 67 69 69 72
75 74 75 76 76 79 76 73 73 74 78 72 68 63 64 60 58 59 58 56 53 53 57 57 57 59 65 69 69 70 72 71 69 66 64 64 65 67 67 68 72 73 77
77 79 83 85 85 83 85 81 75 74 75 76 70 69 63 63 62 60 58 58 54 51 53 55 57 59 63 68 69 69 68 68 67 66 66 66 67 70 71 71 72 73 78
83 87 90 89 91 92 91 88 84 81 79 76 72 71 64 66 64 60 58 58 56 53 50 51 53 57 62 67 67 68 67 67 66 66 67 68 70 72 73 74 74 76 78
87 87 86 84 83 88 91 93 89 86 85 81 77 70 67 68 66 62 59 56 57 56 52 50 53 56 61 66 67 66 66 66 66 67 69 71 72 73 75 77 79 79 78
81 81 81 80 80 82 88 91 91 88 90 89 80 77 74 71 65 63 60 58 58 58 56 51 53 56 60 65 67 66 67 66 66 68 70 72 74 76 77 79 83 85 86
78 83 84 81 80 82 84 90 94 85 84 83 83 85 81 75 65 63 65 64 62 59 58 54 53 57 59 63 64 65 67 67 69 70 72 74 75 78 80 83 86 89 91
79 85 85 80 75 78 75 78 91 90 73 75 79 83 82 78 68 68 66 63 60 57 59 58 54 58 57 60 61 63 66 68 70 72 73 74 77 80 82 86 89 93 96
73 75 70 65 61 59 60 62 77 84 72 72 75 75 74 73 67 67 68 64 60 59 60 60 56 56 55 56 59 61 63 66 69 70 73 76 79 83 85 89 92 97 101
63 69 64 55 50 46 47 55 68 73 65 66 66 68 69 68 63 63 64 64 62 59 61 61 56 54 52 53 56 59 61 64 68 71 75 79 82 85 89 93 98 102 107
48 45 36 30 29 33 41 53 59 58 51 56 59 59 64 61 60 60 62 59 57 57 60 59 56 52 49 51 54 57 62 66 70 73 77 82 85 89 94 98 103 108 112
31 27 18 10 3 10 20 28 36 27 37 47 52 53 55 57 57 58 55 52 53 55 59 54 50 47 48 51 54 59 64 69 71 76 81 86 90 95 98 103 109 114 119
25 16 5 10 14 15 12 14 12 23 34 45 42 41 46 50 52 50 47 48 50 56 54 50 45 45 48 51 56 62 67 70 75 80 86 91 96 100 104 109 115 118 121
34 16 9 14 17 12 13 16 18 28 36 33 34 38 40 43 42 42 44 47 52 52 48 42 42 45 50 54 60 64 69 75 81 86 92 95 100 105 110 112 114 118 118
33 35 25 21 23 24 22 27 30 26 25 26 30 31 31 32 36 40 43 45 45 42 39 40 43 47 54 59 63 69 75 80 86 92 97 101 105 110 111 113 113 113 114
25 31 35 33 33 33 27 23 22 19 16 20 21 23 27 32 35 38 41 38 35 35 39 43 48 53 57 64 70 75 80 86 91 97 102 107 110 111 113 110 110 111 113
17 23 24 24 22 20 18 16 15 15 16 17 21 23 27 31 33 34 32 31 34 39 43 47 53 59 65 69 75 80 86 90 96 102 106 108 110 109 109 109 112 114 115
22 9 6 18 7 19 27 15 15 16 20 22 24 25 27 29 27 28 31 35 39 43 49 55 60 65 70 75 82 87 93 97 101 103 106 108 107 105 110 113 116 116 116
11 23 16 12 15 15 17 18 19 21 22 23 25 25 23 24 28 31 35 40 45 50 56 60 65 71 76 82 88 93 97 99 101 104 104 102 105 110 114 116 116 112 104
7 10 13 12 11 11 11 10 10 11 13 15 17 21 25 28 32 37 42 46 51 56 61 67 72 78 83 88 92 95 97 100 101 99 103 109 113 116 117 115 106 99 95
8 7 8 9 9 8 8 8 10 12 15 19 22 25 30 34 38 43 48 52 57 63 68 74 79 85 89 90 92 96 97 94 96 102 107 114 117 118 110 100 95 91 86
8 8 7 6 5 6 8 12 15 18 21 25 29 32 36 40 45 50 55 61 66 71 76 80 84 85 87 90 92 89 92 97 101 108 112 115 111 103 96 91 87 81 75

GFSMW_250_spd_057.txt.gz
Wind_Speed
61 59 60 60 58 58 59 63 58 57 58 58 62 62 57 56 57 58 58 57 59 58 58 62 65 64 64 64 65 66 66 66 69 71 74 76 76 76 75 73 73 72 70
57 60 60 62 60 59 60 62 66 64 62 61 59 58 57 56 57 58 55 57 58 57 55 56 58 62 65 66 64 65 66 67 70 72 73 73 71 69 69 71 70 68 69
61 61 62 64 68 67 68 68 65 66 66 64 61 59 57 56 57 60 57 58 58 57 54 54 54 55 57 59 61 63 65 66 67 69 69 69 68 67 68 67 67 68 70
64 63 63 64 67 70 69 69 70 68 68 69 67 62 62 61 59 62 53 51 49 51 53 55 54 57 57 57 58 61 63 65 68 69 70 70 68 67 66 67 67 69 71
67 66 68 68 68 69 72 74 74 74 72 72 71 71 66 64 62 62 57 55 54 51 52 55 58 58 58 59 58 60 63 65 67 69 72 71 69 67 68 71 71 72 72
69 68 71 73 73 75 76 77 78 76 76 75 73 70 71 69 65 62 61 59 60 58 59 57 56 58 57 60 60 58 60 63 65 67 70 70 71 72 71 73 72 72 75
72 74 75 78 79 80 81 81 81 80 80 77 73 72 73 74 68 64 65 64 63 61 60 58 55 56 56 58 60 59 60 59 62 68 71 71 71 72 73 72 71 70 74
76 78 78 81 82 83 87 86 83 83 83 79 78 75 76 78 72 64 65 66 65 64 62 59 58 56 57 58 58 58 60 61 62 65 69 72 71 72 73 73 71 70 73
80 83 86 89 89 89 89 91 93 92 89 88 84 83 77 78 78 69 67 69 68 65 63 62 60 58 57 58 58 58 60 62 62 65 69 71 71 71 72 73 73 72 72
88 89 85 84 86 89 92 94 94 92 88 83 77 72 70 74 77 79 75 75 67 66 67 65 62 59 61 62 61 60 60 65 65 64 67 71 71 71 72 73 75 76 76
84 86 88 87 82 81 82 83 84 86 81 79 80 76 72 73 78 80 79 75 70 70 67 65 64 65 64 64 64 64 62 66 67 65 64 66 68 70 72 74 76 78 79
69 71 73 77 80 84 87 88 87 86 84 83 82 83 78 74 74 75 75 75 73 70 68 66 66 68 66 63 64 66 66 66 68 62 60 62 65 68 70 73 76 79 83
66 71 75 76 81 85 84 81 74 67 72 76 75 74 80 75 73 70 70 70 71 70 68 67 68 68 66 67 68 69 69 67 67 60 59 60 63 66 68 72 77 82 86
58 61 64 72 70 62 59 52 50 56 63 72 77 68 69 68 67 64 63 64 65 67 69 67 66 67 67 67 68 69 69 70 64 58 57 60 62 66 71 76 82 86 91
48 51 59 60 61 54 48 38 40 44 54 61 63 58 62 52 60 58 55 56 61 66 67 66 63 63 65 65 67 69 68 67 58 56 58 62 65 69 75 80 85 92 97
37 49 49 38 35 35 22 11 15 28 39 48 41 47 41 41 46 47 49 53 59 63 63 60 61 62 64 64 66 67 67 57 55 58 61 64 70 75 80 86 91 98 103
32 30 23 18 10 10 8 11 10 7 16 23 23 23 25 30 32 38 45 48 54 54 54 56 60 61 61 62 65 64 55 55 57 61 66 72 76 81 87 92 98 105 111
20 22 13 12 8 9 19 24 24 20 20 19 21 23 23 21 18 29 37 40 45 48 53 56 57 57 59 62 57 52 53 58 63 67 72 77 82 88 94 99 104 110 117
28 35 27 20 19 24 27 30 28 27 26 23 22 24 21 22 36 39 30 33 41 47 49 51 51 56 57 49 49 53 59 64 70 74 79 83 89 96 101 105 110 113 117
25 24 30 31 31 32 33 31 27 24 19 17 16 16 20 18 22 26 31 36 39 42 44 48 50 45 45 49 55 60 65 69 75 82 86 92 97 103 107 109 112 112 110
8 13 18 22 29 24 25 27 22 20 20 16 13 15 18 22 24 26 29 32 36 39 39 38 40 44 50 56 61 66 71 76 82 88 94 100 104 107 110 110 107 109 114
11 4 4 11 15 14 12 16 14 11 8 10 12 14 17 18 20 25 28 29 30 31 34 40 46 52 57 62 67 72 78 83 89 95 99 101 105 107 103 106 111 115 115
7 5 6 6 14 17 18 6 6 5 7 8 11 13 15 17 16 18 20 26 31 37 43 48 53 57 63 68 74 80 86 90 93 96 99 100 99 102 108 112 115 115 111
5 9 7 9 7 7 11 12 13 12 12 14 16 15 16 18 20 24 29 35 40 45 50 55 60 65 71 77 82 86 88 91 92 91 94 101 105 109 114 115 112 105 99
10 7 6 7 7 7 8 6 5 7 8 10 12 15 18 23 28 33 37 42 47 52 57 62 68 73 76 79 81 82 82 83 90 96 101 106 110 113 112 106 98 94 90
11 10 10 9 8 7 7 8 9 11 13 15 20 23 27 31 35 39 44 49 54 59 64 68 70 70 71 72 77 83 87 91 97 102 106 109 108 106 99 93 89 84 80

GFSMW_250_spd_060.txt.gz
Wind_Speed
75 73 74 74 73 73 71 67 62 58 59 58 57 55 54 56 57 61 62 63 64 62 60 61 62 61 60 62 63 64 65 66 67 67 67 67 68 68 70 72 73 71 73
72 75 74 72 70 69 66 63 61 58 59 59 59 55 56 58 58 56 57 60 60 59 59 57 58 58 60 61 61 63 63 63 63 65 68 70 68 67 70 70 71 70 69
77 77 72 70 68 65 64 64 62 62 59 61 62 60 56 54 59 61 63 63 60 56 59 60 61 60 61 63 63 60 57 59 61 60 62 65 67 67 69 71 73 71 71
75 72 71 70 67 66 66 66 65 64 63 64 65 68 68 60 60 63 63 68 66 65 61 61 60 59 57 60 56 58 61 63 62 60 60 62 63 65 66 69 70 73 74
73 74 71 70 69 69 68 69 69 69 67 66 66 68 69 69 66 64 61 62 63 62 60 61 63 62 63 58 59 61 62 63 64 62 62 61 62 63 64 68 70 73 75
75 76 75 73 73 72 72 73 74 73 73 71 69 71 70 71 72 70 70 68 66 69 71 71 69 68 67 65 66 65 63 63 62 62 63 64 64 64 63 66 69 74 77
79 78 77 76 75 76 77 77 77 77 79 79 76 74 74 75 74 74 72 70 69 69 71 73 75 73 77 73 69 68 65 65 63 61 60 64 66 67 66 65 66 69 75
81 78 76 77 78 79 81 81 82 84 85 85 81 78 76 76 75 75 77 75 72 71 72 72 75 78 79 74 72 70 68 67 67 62 62 63 65 69 70 70 69 68 69
82 82 79 81 80 82 86 87 88 89 88 87 88 86 83 81 79 77 79 78 75 76 73 74 75 75 73 72 71 72 70 70 68 65 67 69 68 69 72 72 72 69 66
76 77 79 82 84 86 88 89 89 91 92 93 94 91 87 83 80 79 82 83 81 78 73 72 73 72 71 71 70 73 72 73 70 70 71 70 70 71 72 74 73 70 66
77 78 81 84 87 89 92 94 94 92 93 93 93 94 93 90 85 80 79 78 76 75 73 71 72 69 70 71 71 73 73 73 75 73 73 74 75 75 74 75 76 71 67
76 80 82 87 93 92 92 95 93 85 82 87 85 85 84 82 80 77 70 69 69 72 71 70 71 73 74 74 72 72 75 74 74 76 76 78 77 77 76 78 74 68 68
78 82 84 86 88 82 82 83 85 84 87 90 93 91 89 90 87 83 77 72 72 70 69 70 72 74 74 74 76 76 75 74 74 77 78 77 77 77 79 77 69 68 70
70 68 70 77 80 84 87 87 82 76 73 75 81 77 77 75 75 69 64 61 69 69 68 67 66 69 73 76 76 77 77 76 77 79 79 77 75 79 78 69 68 71 74
60 58 61 66 68 62 62 58 59 55 52 57 64 64 65 64 64 62 53 44 51 63 63 60 62 65 69 70 72 74 74 75 78 78 78 75 78 77 69 69 72 76 80
37 43 49 48 48 50 49 46 46 40 35 38 43 46 51 51 54 52 44 38 42 50 53 52 56 59 64 63 67 70 71 74 75 77 74 78 76 69 70 74 77 82 87
23 31 38 30 31 40 41 41 41 37 33 26 25 26 27 28 31 30 28 30 32 36 41 41 47 48 58 58 61 65 68 70 73 73 77 72 69 72 75 79 85 91 97
10 19 20 12 16 24 20 22 9 8 10 12 14 19 23 23 19 17 14 10 19 24 29 37 47 49 51 55 59 63 67 68 72 73 66 69 73 78 83 87 92 98 104
4 13 22 18 16 16 17 20 22 26 32 36 37 38 31 26 10 19 13 18 28 30 34 40 45 48 51 54 57 59 64 69 64 65 69 74 79 85 90 95 100 106 110
2 4 13 18 21 22 22 30 33 34 34 37 36 30 25 19 7 12 26 33 36 31 30 33 38 43 46 50 55 59 57 60 65 71 76 80 85 92 97 101 102 101 102
15 1 4 9 19 19 17 20 27 28 30 27 25 19 21 28 24 26 24 27 29 31 33 37 41 44 47 48 50 54 60 66 72 78 83 89 93 96 97 97 100 105 108
19 9 4 9 9 10 7 10 14 14 19 20 18 16 13 13 13 15 20 22 25 29 35 39 38 39 44 49 55 60 65 71 78 84 87 88 90 94 100 103 106 110 114
15 14 8 6 12 9 1 1 10 6 5 7 9 9 7 9 15 17 18 23 27 30 32 36 39 44 50 56 62 67 72 76 78 81 85 90 94 99 103 106 111 113 114
16 14 14 14 7 15 12 10 6 1 3 4 2 5 7 9 9 13 18 23 29 33 38 42 47 52 58 62 66 69 72 75 80 85 91 96 101 104 109 112 111 107 100
12 12 8 8 9 10 11 7 5 4 4 6 8 10 14 17 20 24 29 33 36 41 45 49 53 56 60 64 67 70 74 80 86 92 98 103 108 110 109 104 97 93 89
14 12 11 9 9 9 9 8 8 8 9 12 15 17 19 22 26 31 36 40 43 46 49 52 55 59 62 65 70 76 81 86 91 97 103 108 107 103 97 92 86 82 77

GFSMW_250_spd_063.txt.gz
Wind_Speed
73 67 68 73 70 69 69 68 67 70 73 75 74 74 72 66 64 61 63 62 62 61 62 62 60 60 61 61 62 62 63 62 62 62 63 63 66 64 63 63 65 67 69
72 70 71 72 72 73 70 72 72 71 71 74 74 70 70 63 61 59 60 63 62 63 63 64 61 65 63 60 60 61 63 65 64 66 66 66 64 60 64 65 65 66 67
72 73 71 69 71 73 75 75 75 74 73 73 72 72 70 63 57 59 61 67 66 59 61 62 65 65 63 65 69 72 71 67 67 67 66 62 61 62 64 64 65 65 65
74 73 71 71 73 75 77 78 78 78 76 75 74 68 66 66 67 64 65 68 70 65 64 66 65 68 68 68 67 68 68 69 66 66 65 66 69 71 68 67 67 66 66
74 74 73 74 77 79 80 79 78 74 73 72 72 71 68 68 69 70 65 63 68 70 65 66 67 67 69 69 69 70 73 74 71 69 70 71 75 73 70 69 68 68 68
73 76 77 80 83 83 80 77 75 77 78 77 75 75 74 72 73 73 68 65 65 69 70 71 70 73 74 75 76 77 80 79 76 74 72 76 78 77 72 69 67 69 71
80 82 84 84 84 83 82 79 81 83 82 79 79 78 77 77 77 78 76 75 76 76 76 75 77 76 76 76 78 79 79 79 79 80 79 80 80 78 74 71 70 71 74
83 85 84 83 83 85 85 85 84 84 86 84 85 81 82 82 82 81 80 81 80 80 75 77 77 74 76 77 77 80 82 81 83 80 81 81 80 78 75 75 72 74 76
81 83 86 88 88 87 88 90 92 90 90 89 92 91 88 86 84 85 86 85 84 83 83 82 82 82 80 81 78 80 81 82 84 83 80 79 78 78 78 77 77 79 78
86 89 90 88 88 91 92 90 91 92 93 92 91 91 90 90 90 89 88 88 86 86 89 88 85 83 81 80 81 82 81 82 81 80 78 76 78 79 79 79 80 84 82
91 90 91 92 90 89 88 89 91 92 90 91 92 93 93 93 92 91 91 89 88 87 84 83 84 82 82 82 83 80 78 78 77 76 76 76 79 80 81 83 84 87 87
85 82 79 79 82 85 86 91 88 87 89 92 96 97 100 99 98 96 95 93 92 89 86 83 81 80 76 77 77 76 75 76 75 76 77 81 83 84 85 86 87 90 89
72 74 77 78 81 86 84 85 88 92 95 96 96 98 95 91 88 86 85 83 79 74 69 65 66 67 68 69 71 72 72 72 75 80 86 83 85 86 88 88 89 89 89
72 74 72 73 77 83 87 89 88 86 86 88 90 92 97 91 86 87 86 85 81 79 76 73 71 72 75 73 71 68 66 67 72 79 78 82 84 86 86 87 88 88 88
57 63 68 74 76 77 77 80 81 80 83 83 76 74 80 76 77 77 74 71 67 63 56 49 47 50 59 66 67 68 68 68 71 79 79 79 81 81 83 84 85 87 88
53 53 59 64 67 63 58 57 57 56 55 52 39 39 50 55 60 67 70 66 61 52 46 43 37 43 47 53 58 53 64 69 72 72 71 73 75 76 77 81 84 84 85
39 33 39 41 44 38 36 36 41 43 43 38 28 26 31 41 47 47 51 54 48 39 33 33 35 35 35 37 46 57 60 63 63 64 68 71 72 76 79 81 82 84 90
19 24 22 30 26 28 27 24 23 26 27 25 17 15 19 22 24 25 24 26 25 23 24 20 20 16 22 33 42 48 50 54 59 65 67 71 75 77 79 79 85 91 96
13 13 18 19 21 20 12 6 2 2 11 15 17 19 18 17 21 26 27 18 18 18 12 13 14 23 27 36 43 50 52 55 58 63 68 71 74 75 82 85 90 95 98
17 15 17 20 26 14 11 8 10 11 18 21 29 28 35 34 36 27 22 12 12 17 14 19 18 25 34 39 44 49 54 59 61 63 65 70 76 80 85 88 89 92 98
16 15 22 19 17 18 10 7 12 11 14 17 21 22 23 20 22 18 23 20 18 18 20 25 30 33 35 39 46 51 54 57 62 66 71 75 79 82 85 88 93 98 103
15 17 16 22 19 19 14 7 5 6 12 12 14 10 9 8 8 7 3 9 14 20 24 27 31 36 41 45 48 52 55 60 67 71 73 76 80 85 91 96 100 105 110
17 19 18 16 14 16 14 11 14 6 2 6 4 3 1 2 5 8 11 15 20 25 28 32 37 40 43 45 50 55 60 63 67 71 74 79 86 91 96 101 106 109 108
21 19 18 16 14 13 11 12 9 5 5 2 1 5 7 9 9 11 12 14 18 22 26 32 37 42 47 52 55 58 62 65 68 74 79 84 89 94 100 106 106 104 100
23 18 14 11 12 12 11 8 5 2 4 4 5 7 9 13 16 19 22 25 28 32 35 40 44 47 50 55 57 59 63 68 73 78 83 90 96 102 104 102 99 93 90
19 16 14 14 13 12 10 9 10 11 11 13 13 15 17 20 23 26 29 32 35 36 39 43 47 51 53 54 58 62 66 71 77 83 89 96 101 103 100 94 89 84 77

GFSMW_250_spd_066.txt.gz
Wind_Speed
81 81 79 79 80 79 77 77 74 74 73 72 70 70 71 69 69 70 72 69 69 71 75 72 68 66 66 64 65 63 63 61 62 63 62 62 62 61 63 64 63 61 59
79 78 77 76 78 76 73 73 70 69 69 71 72 73 73 72 72 73 71 71 72 75 72 69 68 67 67 67 68 64 64 63 64 65 67 69 69 66 64 63 63 59 60
77 76 73 72 72 74 75 71 68 67 70 73 74 75 75 75 75 77 79 77 75 76 70 67 66 66 69 69 68 66 67 70 70 70 69 69 68 67 66 65 66 66 65
70 72 72 71 72 74 75 73 72 71 71 73 75 77 78 79 80 80 80 78 75 72 65 65 65 69 73 72 73 71 70 70 72 72 74 73 73 75 74 73 70 71 71
71 71 70 71 73 75 75 73 73 74 75 76 78 79 80 82 83 81 77 79 76 74 74 73 71 74 72 72 71 69 72 74 74 75 79 81 78 77 76 75 76 76 76
70 70 70 72 73 74 75 75 77 78 81 81 82 83 83 80 78 79 82 83 82 78 74 74 74 71 73 74 78 77 78 77 77 79 81 81 81 78 78 79 79 79 80
73 73 72 73 73 74 76 78 80 81 82 84 85 87 86 83 83 83 85 85 84 86 83 81 83 80 77 81 82 82 80 79 77 79 80 80 83 83 82 81 80 81 82
73 73 74 76 77 78 78 79 81 85 87 87 87 87 89 88 89 90 90 90 92 88 87 82 84 80 80 79 82 85 82 80 79 80 80 82 84 87 86 85 84 84 84
71 70 70 72 74 77 80 82 85 89 91 91 91 94 95 97 95 96 95 93 91 91 92 90 85 86 84 85 86 85 85 82 84 84 87 88 88 87 88 87 87 85 81
77 77 78 79 81 83 86 89 90 90 93 96 97 99 101 103 102 99 96 94 93 91 91 89 88 86 88 88 86 84 85 88 90 88 86 86 86 88 88 88 86 83 79
87 86 84 85 86 88 89 91 94 98 101 101 105 106 107 104 101 99 98 96 96 92 89 89 89 90 89 87 88 89 88 86 88 87 88 86 86 86 86 85 83 82 82
91 90 92 92 92 92 95 97 100 103 106 107 106 101 99 99 101 99 100 96 93 90 89 91 90 91 91 89 86 85 84 82 78 81 78 77 78 79 79 80 83 85 85
81 86 89 93 92 92 94 95 94 94 95 96 96 96 97 103 104 101 98 97 96 95 96 95 92 88 84 80 77 73 71 69 72 75 74 72 73 77 77 81 83 84 86
70 71 75 77 78 81 84 86 88 88 89 89 89 90 93 98 102 102 95 91 91 90 89 86 82 79 76 75 74 73 72 74 75 77 76 75 68 78 78 80 82 83 87
59 61 65 67 65 64 67 71 73 76 78 79 80 82 85 88 89 88 82 75 76 81 80 75 70 67 66 62 60 58 59 59 61 67 69 71 73 78 80 80 82 86 86
52 47 48 53 57 60 62 63 63 60 59 56 56 58 63 70 70 67 67 63 62 63 66 66 60 56 51 47 45 46 44 48 53 56 53 61 66 67 69 72 77 81 78
45 46 48 47 49 47 45 45 42 36 37 39 42 42 37 37 44 54 55 51 52 49 51 53 49 42 38 35 36 35 35 40 44 43 50 55 59 64 68 70 72 77 79
37 38 37 35 36 34 34 35 34 37 41 42 45 41 34 24 23 29 32 35 35 34 33 36 41 36 31 29 26 33 37 39 41 43 48 52 56 59 64 69 74 79 84
29 22 25 28 25 25 27 30 28 27 28 32 30 22 21 14 6 7 7 11 15 18 19 22 23 24 23 26 29 37 38 39 42 47 49 55 62 67 69 72 78 85 91
19 20 21 27 23 24 26 25 23 21 23 18 19 22 18 22 15 12 14 15 14 16 20 20 19 17 18 21 25 31 36 41 45 50 56 61 66 71 76 80 83 86 90
20 26 19 19 24 25 26 22 22 20 18 17 14 20 20 24 24 24 21 15 11 8 4 5 11 18 22 27 32 37 42 47 51 55 60 65 71 74 77 80 83 87 91
20 18 19 18 17 18 24 17 15 14 22 17 18 17 17 17 14 13 12 10 10 8 11 14 19 24 29 34 39 45 49 54 59 62 64 67 71 75 78 81 85 91 97
15 18 21 20 17 15 19 20 17 12 15 18 18 17 17 18 18 17 13 12 13 14 17 20 24 29 35 41 45 49 53 55 59 63 67 70 73 77 82 87 92 99 104
19 18 21 16 18 16 18 17 13 12 11 10 10 10 9 11 12 12 14 16 18 21 24 27 31 36 40 43 46 50 54 58 61 65 68 72 77 82 88 94 99 105 108
21 21 21 15 13 14 13 13 10 9 8 7 8 12 15 17 19 21 22 23 25 27 29 31 34 38 42 46 50 53 56 60 63 68 73 79 83 89 94 99 103 101 93
21 20 21 15 15 14 15 15 14 14 15 16 16 19 20 20 23 25 25 25 26 28 32 36 39 43 47 50 52 55 59 63 68 73 78 83 89 94 99 98 90 86 81

GFSMW_250_spd_069.txt.gz
Wind_Speed
87 85 84 84 82 78 78 80 77 77 77 77 77 77 77 76 74 74 75 77 74 74 74 73 71 74 74 74 74 74 72 69 68 68 69 69 69 66 65 63 62 59 58
83 80 79 78 76 76 76 77 77 76 76 76 76 75 74 74 74 74 75 74 73 74 74 74 74 75 74 75 75 72 71 72 72 72 70 72 69 69 68 68 68 66 66
79 81 79 78 78 76 75 75 77 77 76 75 75 73 72 71 71 74 76 77 76 76 75 75 76 77 77 76 72 73 74 74 76 74 74 74 69 67 67 70 73 74 74
81 78 77 78 76 76 75 77 76 76 74 72 70 69 70 70 74 77 77 77 78 80 79 78 80 81 80 77 77 78 77 77 76 76 75 74 72 77 75 75 75 75 73
75 74 75 76 77 77 77 75 74 73 71 69 69 71 73 74 77 77 79 80 83 83 82 78 80 81 80 75 81 76 79 76 76 76 77 77 79 80 78 78 76 76 75
71 71 71 73 74 75 75 73 72 70 70 71 71 73 74 74 77 82 85 87 88 87 87 82 80 79 78 86 83 80 80 81 80 76 77 77 77 76 80 80 82 82 81
70 69 69 68 71 71 70 71 71 71 72 73 74 74 75 78 82 86 88 89 89 90 90 88 87 85 82 81 84 79 81 83 80 83 78 79 76 80 82 83 82 85 84
70 70 68 69 69 70 71 71 71 72 73 76 76 78 80 83 84 86 89 90 91 91 91 93 90 91 89 89 89 83 86 85 85 82 81 80 81 82 82 82 86 90 90
70 70 70 70 70 70 72 74 77 78 79 80 81 82 83 85 89 92 94 95 96 95 94 96 97 95 95 94 92 90 89 87 84 83 82 83 84 84 84 87 81 89 92
73 72 72 72 72 72 74 73 74 76 78 81 83 86 89 93 95 98 100 101 101 102 102 103 103 100 99 96 93 93 90 89 84 82 84 86 88 88 90 89 89 92 91
67 68 68 67 68 72 76 78 79 81 85 87 90 94 98 101 103 105 107 108 110 111 110 111 109 105 97 96 95 92 93 89 86 87 88 90 91 86 83 77 78 73 73
73 72 72 73 76 79 82 84 86 88 90 94 97 100 104 108 111 114 115 118 119 115 111 106 102 99 97 95 92 96 91 89 90 90 92 89 83 73 62 73 72 83 87
81 81 81 83 85 87 90 91 93 97 100 102 106 109 113 117 117 114 111 110 109 107 104 104 102 100 98 96 92 90 91 90 88 84 80 77 76 71 73 81 86 92 96
87 86 87 88 91 93 94 96 93 93 91 93 97 100 102 104 106 103 103 103 102 100 98 98 98 96 94 93 93 89 83 81 80 75 74 72 73 73 71 74 82 82 83
82 82 82 81 79 80 77 76 78 80 82 80 82 83 85 87 86 86 88 89 89 90 91 92 92 91 89 86 83 79 76 70 66 61 61 61 57 59 67 68 72 74 75
58 60 63 61 56 57 59 58 61 61 64 66 66 70 70 67 60 60 71 69 70 74 79 79 77 74 73 71 68 68 60 57 53 54 55 55 58 67 72 73 69 60 61
47 48 47 48 45 45 49 55 55 53 47 46 38 35 37 38 53 45 46 42 48 51 51 57 58 57 55 50 53 52 50 47 47 51 54 55 56 59 57 55 59 64 65
40 38 38 38 43 47 48 49 43 35 31 30 28 33 31 35 34 31 24 25 28 26 25 27 31 40 43 39 32 32 36 41 47 47 49 47 46 50 51 55 60 65 69
32 36 38 39 41 40 38 38 31 27 25 20 19 29 28 26 32 34 28 22 17 12 8 13 19 25 29 25 28 33 36 38 37 36 37 42 48 52 56 61 67 73 79
31 31 33 35 31 31 34 37 28 26 23 19 17 16 25 24 27 27 30 31 26 25 22 11 2 5 11 15 17 20 24 28 34 39 44 50 54 59 65 70 76 81 84
28 29 30 29 30 29 27 28 30 24 22 19 14 14 12 16 19 23 26 26 23 21 19 15 11 6 7 14 20 25 30 35 40 45 51 58 64 69 72 75 78 82 85
26 27 28 28 25 23 24 22 17 15 22 21 20 14 13 13 13 16 18 20 21 20 18 16 15 16 18 22 27 32 38 44 48 52 57 61 65 70 74 77 80 82 85
19 21 23 24 23 21 21 22 18 17 20 23 20 16 15 16 17 19 19 20 20 20 21 20 22 25 28 31 34 38 43 47 52 57 61 65 67 71 74 77 81 86 90
23 24 26 25 21 19 20 20 19 17 17 20 20 19 18 18 20 22 23 24 25 25 25 24 24 26 29 33 37 42 46 51 55 57 60 64 68 73 78 84 88 92 96
25 23 26 26 24 20 18 16 15 14 17 18 17 19 20 21 23 25 27 29 29 28 26 28 30 33 36 39 43 46 48 52 55 60 65 70 75 79 84 89 93 97 96
25 24 25 24 22 20 18 17 16 18 19 19 21 22 24 26 27 30 31 31 30 30 31 34 37 40 42 45 49 52 56 59 62 66 71 76 81 87 91 94 92 85 80

GFSMW_250_spd_072.txt.gz
Wind_Speed
99 95 92 89 85 82 82 81 80 81 78 79 78 79 78 77 77 79 79 80 80 79 78 78 76 78 75 73 72 72 73 74 74 75 76 74 76 71 70 69 70 70 67
102 100 96 93 90 89 84 84 81 82 83 80 79 78 79 79 79 78 80 81 79 78 76 76 78 76 76 75 75 73 76 78 77 78 80 78 78 74 74 72 69 68 68
106 103 98 94 90 88 84 83 82 82 82 80 79 78 78 77 76 77 80 80 77 75 73 77 78 78 75 77 76 78 80 79 80 79 78 75 79 79 75 73 73 72 73
106 104 97 91 89 84 84 83 80 78 81 81 79 78 76 74 77 79 80 78 74 74 74 76 76 78 76 78 79 81 84 81 80 80 82 79 78 77 74 72 72 74 73
102 97 93 90 87 83 81 78 78 81 81 81 78 76 75 75 78 78 76 75 75 77 76 77 78 80 83 82 85 84 83 83 82 85 79 80 80 77 74 75 77 77 75
98 91 88 81 79 79 81 79 78 77 76 75 75 76 75 73 73 75 77 77 78 80 79 77 81 83 85 85 89 88 87 87 89 88 86 86 84 77 79 80 79 80 79
88 88 86 83 81 80 80 80 81 76 74 74 76 76 75 74 74 77 79 81 81 81 83 84 84 86 87 88 90 89 90 90 90 89 88 89 87 85 81 83 83 82 82
77 78 75 77 78 76 76 73 73 74 73 74 74 75 74 75 76 79 80 81 83 86 89 88 88 89 92 94 94 93 92 92 91 92 91 91 90 86 89 90 85 84 82
70 73 76 73 70 68 66 68 70 72 73 73 74 75 76 77 79 82 86 86 87 87 90 92 96 97 99 101 101 99 99 98 97 96 99 93 91 90 88 93 90 91 84
68 66 65 65 65 65 66 67 70 72 73 74 76 79 81 82 84 86 87 87 89 92 96 99 101 103 106 108 108 107 106 105 101 100 101 95 95 93 91 88 92 91 89
67 66 66 66 66 65 67 69 71 73 75 78 79 80 82 84 86 88 91 94 96 100 104 107 110 111 113 115 116 117 114 110 108 100 96 81 94 98 92 93 94 93 91
67 68 69 69 70 72 74 74 75 77 78 80 83 87 89 92 95 99 103 106 108 111 114 116 119 122 122 121 122 121 119 111 104 98 94 91 92 98 100 96 92 92 84
68 64 64 68 72 73 73 75 76 79 82 84 87 90 92 96 99 103 108 114 118 121 124 121 119 117 116 116 116 116 112 108 102 98 96 97 94 94 94 91 86 84 84
74 72 68 68 69 70 73 76 79 81 85 87 89 93 98 102 106 111 114 113 113 109 107 106 104 103 101 101 103 104 104 102 97 93 91 90 90 89 85 83 79 74 72
78 79 80 78 77 78 81 82 85 88 90 92 94 98 103 100 97 94 94 95 97 93 89 88 86 83 79 84 92 92 92 90 86 83 81 81 78 75 69 68 68 70 72
80 80 81 82 82 84 86 88 91 94 97 99 95 88 84 77 73 71 73 78 79 73 72 76 74 68 77 81 80 77 75 73 70 71 71 71 68 63 62 65 68 70 70
70 80 82 85 87 88 86 85 80 75 70 72 63 63 63 61 58 52 49 45 43 41 38 35 35 43 46 48 50 54 51 51 50 51 55 56 54 58 63 63 63 58 59
49 52 53 54 57 61 61 61 61 56 56 55 52 50 45 47 38 32 28 27 30 34 29 22 19 19 16 19 23 27 28 31 36 35 38 45 49 51 48 48 51 56 61
47 47 47 47 46 45 45 46 48 49 49 45 40 38 36 38 29 21 19 24 28 29 33 31 23 16 13 9 10 15 19 26 25 26 29 33 35 40 46 52 59 65 68
40 39 39 38 37 39 42 44 44 41 40 43 35 33 31 32 27 21 22 24 26 28 28 28 27 25 22 18 12 10 12 17 21 27 33 37 42 48 53 58 64 69 74
34 32 33 37 37 38 38 38 35 35 37 34 35 32 30 27 25 21 19 21 23 26 27 27 24 22 20 18 18 19 22 26 30 35 39 44 49 54 60 65 70 74 79
30 32 30 30 32 33 34 33 32 33 33 33 31 28 29 25 23 20 22 24 26 27 28 29 28 26 24 23 24 26 29 32 37 41 46 51 55 59 64 68 72 76 81
25 26 27 27 29 29 27 28 31 32 31 28 31 30 26 23 21 24 25 27 29 31 32 31 28 25 26 28 30 32 36 39 42 47 51 55 60 65 70 73 78 81 85
24 22 22 24 24 25 27 30 28 28 29 31 29 28 24 22 23 27 29 31 32 33 33 31 29 31 33 35 38 41 43 45 49 52 56 60 65 69 73 77 82 87 91
24 24 25 24 28 31 33 34 29 27 27 27 25 24 25 25 27 29 31 33 34 35 33 32 33 36 39 41 42 43 45 49 52 55 61 65 70 74 79 84 86 84 80
24 26 27 29 31 33 30 28 27 27 27 24 24 25 27 28 30 32 34 35 36 36 35 35 37 40 41 41 44 47 51 56 59 63 68 72 75 80 83 81 77 77 75

GFSMW_250_spd_075.txt.gz
Wind_Speed
104 101 98 96 93 91 88 83 81 80 78 77 78 76 75 77 77 79 79 78 81 79 82 84 83 83 84 81 81 81 78 75 77 78 77 74 74 76 77 76 75 75 74
106 102 100 97 95 93 90 88 85 85 83 80 81 79 79 79 79 79 81 80 81 83 83 84 84 83 81 81 81 77 76 77 76 76 75 77 78 81 79 76 75 75 73
107 105 104 100 98 95 94 92 89 87 85 85 85 83 83 83 84 85 82 86 86 85 85 83 83 82 82 81 77 76 79 79 76 77 78 78 80 80 80 78 78 77 79
112 109 106 103 102 101 98 95 94 91 90 89 89 88 87 85 84 83 84 87 87 85 85 82 82 83 84 80 79 79 81 78 77 80 80 81 82 81 82 81 82 81 79
116 112 109 106 105 104 102 99 97 96 95 94 94 92 88 82 82 82 85 85 84 82 81 83 84 83 81 81 82 83 80 80 81 82 83 82 86 84 82 81 84 85 84
118 115 112 109 108 107 106 104 102 100 98 98 96 94 87 87 84 84 84 84 82 81 82 82 82 82 83 83 85 85 84 84 85 85 85 86 87 86 87 89 85 86 88
116 115 115 114 112 110 109 108 107 105 104 100 95 90 86 89 88 88 88 84 81 82 85 86 85 83 83 85 87 89 88 89 88 89 90 90 92 91 91 92 92 90 92
113 113 114 113 112 110 107 102 98 97 92 87 84 83 85 86 86 87 82 83 83 85 86 85 86 88 89 89 89 91 91 91 93 95 96 96 97 96 95 93 94 96 98
112 109 106 103 106 107 104 102 100 99 98 90 87 86 85 84 85 81 82 81 82 82 85 88 91 94 95 97 100 98 97 97 100 101 102 102 102 104 102 95 85 93 94
107 108 106 106 105 102 96 95 94 93 90 89 85 86 84 78 78 79 80 81 83 86 90 93 94 97 101 103 105 106 107 109 109 110 110 110 109 108 103 95 94 99 92
97 100 104 104 99 98 94 87 80 78 78 81 81 78 76 74 76 79 81 83 86 90 93 98 101 104 107 112 114 116 117 118 119 120 121 120 115 110 104 93 95 89 96
86 89 92 87 84 76 73 75 74 73 73 70 70 70 74 78 80 82 84 87 90 96 101 105 111 116 118 120 123 125 127 130 130 127 122 116 112 110 106 103 101 102 99
80 76 70 71 69 66 67 66 66 65 68 71 74 76 79 81 84 86 90 94 96 101 106 111 116 121 123 121 114 110 111 112 112 113 112 112 109 105 105 102 99 98 94
78 73 71 71 69 68 68 69 69 69 71 75 77 80 82 86 88 90 93 97 100 103 107 114 121 114 105 99 96 93 93 95 97 100 100 100 99 98 97 93 92 89 88
79 75 73 70 70 69 68 69 69 71 74 78 81 83 84 86 90 94 94 98 102 109 100 95 93 96 90 87 80 73 71 73 79 79 82 87 88 87 87 82 79 81 82
78 79 77 74 73 73 72 72 72 73 75 77 79 81 85 87 91 96 98 105 88 84 74 69 63 72 64 54 48 43 41 42 53 63 68 71 67 63 62 62 64 66 67
72 79 79 81 77 74 75 78 79 80 83 85 87 88 91 93 96 97 84 78 67 58 49 45 43 44 47 38 30 27 24 27 26 27 30 33 34 36 42 46 47 48 50
62 64 68 75 81 84 86 85 85 86 88 91 93 95 94 88 76 68 64 59 49 42 40 38 41 40 38 36 24 18 15 14 16 15 17 19 22 24 28 32 37 42 47
49 49 50 54 63 69 70 72 76 80 80 76 72 69 64 61 55 52 51 47 38 38 38 37 38 39 38 35 31 29 26 22 19 20 20 22 26 31 35 41 46 50 55
43 44 46 49 50 54 54 55 56 55 56 55 53 52 52 48 48 46 44 40 36 37 37 37 38 38 36 31 27 25 24 24 25 27 30 32 35 39 44 49 54 59 63
43 46 46 47 49 50 50 49 46 45 46 47 46 45 44 43 41 41 41 38 35 34 35 36 39 39 37 33 31 32 32 34 36 37 39 42 45 48 52 56 61 66 70
46 46 48 46 43 41 39 38 40 42 41 40 39 40 42 40 38 36 36 35 34 33 34 37 40 40 38 36 35 36 36 40 41 43 44 47 50 54 58 62 67 72 76
43 42 38 35 34 35 35 34 34 34 34 35 35 37 38 38 37 35 34 31 33 34 35 39 41 41 38 38 37 39 42 45 44 45 47 51 55 60 64 68 72 75 78
32 30 32 31 30 29 30 29 30 30 30 32 32 34 37 38 36 34 30 31 33 36 39 41 43 42 41 40 41 44 45 46 48 51 54 59 64 68 71 73 74 78 83
30 30 28 26 26 26 27 29 32 34 35 36 36 36 37 34 32 31 31 33 37 40 42 44 44 43 43 43 44 47 49 52 54 57 63 68 72 73 74 75 78 81 73
28 26 26 28 27 29 31 34 36 36 36 35 34 35 34 30 30 32 34 38 41 42 43 43 43 44 45 47 48 51 53 57 60 64 69 72 76 75 76 79 80 69 69

GFSMW_250_spd_078.txt.gz
Wind_Speed
111 108 105 104 101 96 92 90 88 86 81 78 80 82 81 79 77 77 75 76 77 77 78 78 79 84 86 86 88 89 88 87 87 84 80 80 78 75 77 75 74 74 74
115 110 108 106 103 98 97 94 90 90 88 86 83 82 83 81 79 79 79 79 79 80 81 83 86 85 87 89 91 92 90 89 86 83 82 79 75 77 78 75 77 76 76
115 113 110 106 103 101 101 97 95 94 93 90 90 86 84 83 82 83 82 82 83 85 86 88 89 88 89 91 92 91 89 87 85 83 80 77 75 77 77 78 79 78 79
116 113 110 106 103 100 100 99 97 96 95 93 88 89 88 86 88 90 88 87 87 89 91 91 89 91 93 92 90 88 86 85 85 84 83 82 78 78 78 81 83 84 81
120 115 110 110 107 105 104 100 97 96 95 92 91 90 92 91 92 93 94 93 92 92 93 90 92 94 92 89 87 88 85 83 85 86 86 86 85 83 83 82 86 85 83
121 119 116 114 111 109 108 105 101 99 98 97 96 95 95 95 96 98 98 97 97 98 98 96 93 93 90 91 89 86 88 89 89 89 90 91 94 93 89 91 86 84 86
119 119 118 116 114 112 110 108 106 104 103 102 101 101 101 99 100 100 102 104 103 102 102 100 98 97 94 90 87 89 91 93 92 95 96 98 98 97 97 95 91 88 89
120 118 117 116 115 114 112 111 109 107 106 105 104 104 105 104 104 104 104 105 106 106 101 102 103 98 94 93 89 91 93 95 96 98 102 103 104 103 101 98 96 95 95
122 119 117 116 116 115 113 112 111 110 109 107 107 107 108 108 108 108 107 107 106 102 101 104 103 95 89 92 94 96 98 100 102 104 107 109 108 108 108 109 107 108 107
124 123 119 117 116 114 113 112 111 110 111 109 109 108 109 109 109 108 107 102 99 100 95 89 87 89 91 94 97 99 103 109 111 113 115 118 119 119 118 118 118 117 113
108 116 120 118 115 114 112 110 110 109 107 106 108 108 102 104 100 99 93 97 89 87 88 86 86 90 93 97 100 104 111 116 122 122 124 126 126 125 120 114 110 104 101
97 101 106 112 114 111 108 106 104 101 99 98 97 94 88 89 98 94 84 85 84 82 84 86 89 92 96 99 105 110 116 123 125 120 108 104 101 100 100 97 94 94 94
85 90 93 97 101 105 105 102 101 99 95 95 92 90 92 92 81 75 77 78 79 83 87 89 92 96 99 104 107 112 121 108 104 103 97 86 82 83 85 89 91 91 90
78 80 82 85 88 89 90 90 89 87 88 89 83 78 74 74 73 75 77 80 83 87 89 92 95 99 103 103 108 104 90 88 94 75 69 67 63 64 62 67 78 86 87
70 72 74 71 70 71 71 70 71 73 73 73 73 72 70 72 74 77 80 83 85 88 90 95 97 98 101 109 84 72 79 82 70 59 52 46 41 38 38 43 48 53 60
65 68 71 73 71 71 69 70 70 71 71 73 73 72 72 72 75 78 79 85 87 88 90 95 100 107 90 72 59 65 64 60 54 43 32 28 25 22 21 24 29 31 32
62 64 68 73 76 77 75 73 72 70 71 71 70 70 72 74 77 79 82 85 88 93 99 103 90 76 63 54 54 58 55 49 44 36 32 31 28 26 25 24 26 29 32
59 61 64 67 70 72 75 74 71 71 72 73 74 76 77 80 82 84 87 91 96 98 89 79 70 59 49 47 52 52 51 46 42 38 36 34 33 32 32 34 36 38 41
56 54 56 59 62 69 75 75 77 78 79 80 80 82 83 86 89 94 94 85 75 72 70 64 57 47 46 45 47 48 48 45 42 41 40 40 39 39 40 42 44 47 50
55 54 52 53 57 58 60 65 72 78 82 84 86 87 87 84 78 70 64 62 60 59 56 49 44 42 44 45 48 48 47 46 44 44 44 45 45 46 47 49 52 55 59
50 50 52 55 55 51 48 49 53 55 57 59 61 63 64 63 59 55 53 52 50 49 46 42 40 42 44 46 47 49 49 47 46 46 47 47 48 51 53 56 59 64 68
49 50 50 49 45 42 45 47 48 52 54 57 57 54 51 49 49 47 47 45 44 43 37 37 37 39 43 45 48 49 49 48 47 48 50 52 55 57 60 63 66 70 73
45 42 41 39 42 45 46 50 51 52 45 42 43 44 45 44 43 41 41 41 41 40 36 34 36 40 43 46 50 50 48 48 49 51 53 55 58 61 66 69 72 74 72
45 44 44 45 47 48 47 44 38 37 39 40 41 41 39 38 37 39 40 40 39 37 34 34 38 42 46 49 51 50 49 49 50 53 55 59 62 67 71 73 71 71 75
44 44 45 46 46 42 35 33 33 33 35 37 37 36 37 37 38 39 39 38 37 34 35 38 42 46 49 51 49 49 50 51 53 56 60 64 68 70 71 71 72 75 77
41 39 35 32 32 32 31 31 30 31 34 36 36 36 36 38 37 36 37 37 35 36 39 42 45 48 50 48 48 50 51 53 56 59 62 66 68 70 72 72 75 78 79

GFSMW_250_spd_081.txt.gz
Wind_Speed
112 110 107 105 102 98 94 92 91 89 85 83 82 80 79 78 79 79 79 81 80 76 76 79 79 79 80 82 82 84 86 89 90 90 89 90 90 88 90 85 81 78 75
116 114 113 109 105 101 99 96 95 92 89 87 87 86 85 84 82 83 85 81 81 81 83 83 82 83 85 86 88 90 91 92 91 94 95 93 92 91 88 83 80 79 78
118 117 114 110 108 105 102 99 98 97 94 92 90 88 87 86 83 84 82 83 82 84 87 87 87 87 88 90 92 93 94 96 96 100 101 98 92 91 87 86 83 82 80
123 117 114 111 110 107 104 104 105 103 99 96 93 90 89 86 86 85 86 87 89 89 89 88 90 91 93 94 95 97 99 99 99 99 99 99 95 89 85 86 86 89 90
126 121 117 113 111 109 108 109 108 103 101 98 96 95 94 93 92 91 91 90 89 88 89 90 91 95 96 99 100 102 102 97 99 100 101 99 96 92 91 91 93 94 95
126 122 120 117 114 111 111 109 108 106 104 102 99 98 98 97 96 94 92 92 92 93 92 95 95 98 100 102 104 103 100 101 102 101 101 102 95 93 95 93 94 96 97
124 123 122 119 117 115 113 111 108 106 104 103 101 99 97 97 96 95 97 97 97 97 99 101 101 102 103 104 106 107 104 103 103 105 96 95 95 97 98 101 103 105 106
124 123 123 121 119 118 117 113 111 107 104 103 102 101 100 99 98 98 96 98 98 99 101 103 105 106 108 109 112 109 111 110 100 97 95 94 95 98 101 104 109 113 117
130 117 117 119 118 117 117 116 114 112 110 107 105 104 102 101 100 100 100 99 100 103 103 106 106 111 113 114 107 110 110 100 98 95 93 95 98 100 105 113 115 117 111
116 126 125 119 117 116 116 115 113 113 112 111 109 108 107 106 105 105 104 104 105 106 106 110 111 110 105 105 105 104 98 94 92 93 98 102 103 107 110 112 103 102 106
99 110 119 127 123 118 114 112 113 113 113 111 110 109 108 107 106 107 107 106 108 110 112 111 104 100 101 104 93 89 89 90 92 96 103 109 110 108 98 92 102 104 103
88 94 103 111 119 124 120 117 115 114 112 110 109 109 108 108 108 107 109 106 109 107 98 96 95 102 93 86 86 87 89 92 94 100 105 111 106 89 86 89 78 73 72
76 82 88 95 103 109 118 121 118 117 115 113 111 110 110 108 108 106 109 107 97 93 92 100 94 85 83 86 87 89 92 94 98 101 110 90 85 86 86 79 62 54 52
67 73 78 83 88 96 102 107 110 111 111 111 110 109 109 107 106 99 90 90 87 92 89 83 80 82 85 88 90 92 94 95 98 107 84 74 76 75 71 58 47 37 33
60 64 69 74 79 82 86 90 91 92 90 91 92 91 89 88 87 87 86 88 82 77 77 78 82 84 86 91 91 93 95 100 104 77 67 67 70 65 61 52 45 40 37
56 60 64 68 72 74 75 76 79 80 80 81 82 79 77 77 78 80 75 72 73 76 79 80 83 85 89 90 94 97 102 93 73 61 60 65 64 61 56 49 44 42 39
52 56 60 62 65 67 68 69 68 69 69 69 69 69 68 66 67 68 69 70 74 78 79 81 84 87 90 95 100 96 75 69 59 56 60 61 59 56 53 50 47 45 45
51 54 56 59 61 62 64 65 63 63 60 62 60 60 63 65 67 68 69 74 76 77 80 85 89 91 97 100 80 74 67 57 52 54 57 57 57 55 54 52 50 50 51
48 50 52 53 54 56 59 60 65 66 66 64 63 63 63 65 67 69 72 75 80 83 86 89 94 97 81 76 69 63 52 48 49 53 56 56 57 56 55 54 54 55 56
45 48 49 48 49 49 51 55 59 65 70 70 74 75 72 73 75 78 82 83 87 91 94 81 73 70 69 64 60 52 49 47 50 52 56 57 57 56 56 56 57 58 60
44 45 46 48 50 51 51 52 54 58 61 65 70 73 76 80 81 84 86 83 77 71 65 63 63 61 58 54 47 46 44 46 50 54 57 58 58 58 57 58 60 62 64
36 41 45 47 47 49 50 50 51 50 54 57 59 58 55 56 57 61 64 65 62 56 58 56 53 52 49 46 45 43 44 48 52 55 58 58 58 58 58 61 63 65 67
35 39 43 49 49 45 44 44 46 48 48 46 46 48 51 55 58 58 53 52 53 53 52 49 47 46 45 43 43 44 48 51 54 57 58 58 58 58 61 63 66 67 69
38 39 41 43 46 47 46 48 47 44 44 43 49 54 56 50 48 49 50 50 48 46 45 45 45 42 40 41 43 46 50 53 56 57 57 57 57 60 63 65 67 70 72
40 38 39 40 42 41 39 40 43 43 45 48 48 44 44 45 44 45 45 44 44 44 44 44 42 40 40 42 45 49 53 54 56 57 56 57 60 62 64 67 70 72 74
43 45 44 44 45 45 45 46 46 47 46 40 40 40 40 42 41 41 42 42 43 42 40 40 40 40 42 44 48 51 52 54 54 55 56 59 62 64 67 68 69 73 76

GFSMW_250_spd_084.txt.gz
Wind_Speed
113 112 109 104 100 97 96 92 87 85 84 84 81 77 76 75 75 74 74 75 75 73 74 75 76 77 79 79 81 82 84 87 88 86 88 89 90 94 96 95 95 95 95
114 114 112 108 103 100 99 96 94 90 87 87 86 84 83 80 79 78 78 78 78 79 81 82 81 82 83 83 83 86 89 88 89 89 90 90 95 98 99 98 96 96 96
117 115 113 111 109 104 101 100 98 96 94 92 89 87 85 84 82 83 82 83 83 84 84 84 85 85 84 86 88 89 88 90 92 94 94 96 97 102 104 102 100 100 92
124 118 115 113 111 108 105 104 103 101 97 95 93 91 90 89 89 87 85 85 86 87 88 90 89 88 88 90 91 90 91 93 95 97 99 100 102 102 101 100 101 96 92
124 123 119 116 113 111 110 108 106 105 103 100 96 94 94 92 90 90 90 91 90 88 90 89 91 91 92 91 92 93 93 95 96 98 101 104 106 110 103 98 93 93 93
122 122 122 121 118 115 113 111 109 108 107 103 100 98 97 97 97 96 96 95 95 94 93 93 94 92 94 92 93 94 96 96 99 100 104 108 111 106 104 100 93 88 90
120 118 121 123 121 118 116 114 113 111 107 105 104 103 102 102 102 100 98 97 97 97 96 94 93 90 92 92 94 95 97 101 101 104 108 110 105 109 98 93 88 88 89
115 115 116 120 121 121 120 118 116 114 111 108 105 104 104 104 104 104 103 102 100 99 97 96 96 95 95 96 96 98 102 103 106 108 109 109 107 99 92 89 91 92 94
114 116 116 117 119 120 120 119 119 118 115 111 108 105 103 101 101 100 100 99 98 98 99 98 98 100 101 103 104 105 105 107 109 109 108 107 99 90 88 91 93 99 101
105 112 118 118 117 116 116 118 119 119 118 116 113 111 108 105 103 101 101 101 99 99 99 101 102 103 103 105 105 107 110 111 111 107 109 100 88 88 92 94 100 102 99
96 100 106 117 120 119 117 116 117 117 118 117 115 113 111 109 107 105 103 102 103 103 102 102 102 102 105 106 109 111 110 109 105 107 96 89 87 90 94 99 104 105 84
85 90 94 101 109 122 121 117 116 116 116 115 114 113 111 110 109 108 108 107 106 105 106 105 105 105 106 108 110 109 111 101 102 93 88 87 90 93 98 104 100 81 76
77 79 83 89 96 102 111 125 123 119 119 117 116 112 110 108 106 106 107 107 106 107 107 109 108 108 107 103 108 101 97 96 88 86 88 88 93 97 104 88 76 71 74
68 71 74 77 83 90 94 100 111 122 124 120 115 113 111 110 109 109 107 108 110 111 110 110 106 99 106 98 93 94 88 84 86 88 89 92 96 101 85 75 67 69 70
63 66 67 69 71 77 82 87 93 100 106 115 121 121 119 117 116 115 113 113 113 111 103 101 95 93 90 89 86 83 80 85 86 88 92 97 101 85 74 65 65 67 67
57 59 61 64 66 68 73 78 82 86 89 93 97 99 100 101 101 101 101 93 92 91 85 86 83 83 79 77 76 79 84 86 90 93 97 103 83 74 62 58 64 66 66
53 54 53 56 59 60 64 69 73 77 79 82 84 85 86 85 85 84 80 80 80 80 78 76 70 71 74 76 79 82 85 87 93 99 98 81 73 62 55 58 63 64 65
49 50 49 50 52 55 59 63 67 69 71 73 73 75 74 74 75 76 75 71 67 65 63 66 69 73 76 78 82 84 88 94 99 84 77 72 65 56 56 60 63 65 65
45 46 47 50 53 55 57 59 61 62 64 65 66 66 66 64 62 59 58 59 60 62 66 71 72 74 78 82 85 91 94 94 78 72 66 61 55 54 56 60 64 65 65
40 41 45 47 48 49 52 54 56 57 58 58 58 59 60 57 57 56 61 62 63 67 70 72 74 79 85 87 86 90 76 72 68 64 60 56 52 53 57 61 64 65 66
39 39 40 43 45 45 46 47 48 49 51 51 52 56 58 58 58 59 61 66 68 73 77 79 81 81 79 76 74 68 65 62 61 58 55 52 52 56 60 63 64 65 67
34 37 38 40 40 41 40 40 40 41 42 44 48 52 55 58 62 67 69 69 73 77 75 67 65 68 69 63 61 60 57 57 56 53 51 52 55 59 61 63 64 65 66
33 33 35 39 40 40 42 42 42 43 46 48 49 51 53 55 56 58 61 62 59 58 60 64 64 59 58 57 55 52 53 54 51 50 51 54 57 60 62 63 63 65 66
32 32 31 32 35 37 41 43 42 42 43 46 47 47 46 48 46 47 50 55 57 59 57 54 55 54 53 51 51 52 52 50 49 51 53 55 58 60 61 61 63 64 69
32 31 30 29 30 33 37 40 40 37 38 42 44 43 43 44 46 49 53 52 49 50 50 51 49 49 51 51 51 49 49 49 50 53 53 55 58 59 58 61 64 68 71
33 33 33 34 34 35 36 37 38 39 38 38 39 41 45 47 49 47 45 47 47 48 48 49 50 50 49 47 46 47 48 49 50 51 54 56 55 56 60 64 67 70 71

GFSMW_250_spd_087.txt.gz
Wind_Speed
114 110 106 92 100 92 89 85 85 77 72 73 78 80 78 75 69 66 66 68 65 66 70 69 69 73 75 75 76 77 79 81 81 82 85 87 88 88 88 89 92 94 97
116 113 110 107 100 100 93 91 91 90 87 80 74 76 79 79 77 75 74 74 74 72 70 74 77 76 77 79 79 80 82 83 85 87 87 88 86 89 90 92 95 99 98
114 114 114 111 107 101 98 95 92 94 90 89 88 84 81 79 79 80 78 79 79 80 81 81 80 81 80 81 82 82 84 87 89 89 87 86 88 91 93 96 99 100 100
113 116 116 114 112 108 104 100 96 93 95 84 89 93 89 86 83 82 82 82 82 82 83 84 84 85 85 84 83 84 87 89 90 88 90 89 90 91 94 100 101 104 101
114 112 117 118 115 113 109 106 102 103 96 94 84 87 91 92 88 86 86 88 87 86 82 83 86 87 88 86 87 91 92 90 90 91 92 93 93 96 100 101 104 104 103
117 115 112 116 117 115 114 112 110 107 105 101 100 94 93 92 91 91 87 90 89 89 88 88 88 87 90 89 92 93 91 92 93 94 94 97 99 102 103 104 106 104 99
116 116 114 113 115 118 117 116 115 113 110 108 105 102 100 97 96 94 94 94 93 93 92 91 92 92 94 96 93 93 95 94 94 95 99 101 104 103 105 107 104 105 104
109 111 113 114 114 116 119 119 118 117 115 113 109 106 103 102 101 100 99 98 98 97 97 95 95 95 93 93 92 92 92 94 95 99 102 102 104 107 108 107 108 103 95
108 111 114 114 114 115 116 118 120 119 117 115 113 111 109 108 106 103 102 101 100 99 99 98 95 94 94 94 95 96 98 98 101 103 105 104 108 109 108 108 104 100 89
100 104 107 111 113 115 116 116 117 119 119 118 116 114 113 112 111 109 107 106 104 103 102 102 102 101 101 102 102 103 104 108 105 106 106 110 109 110 108 101 99 91 88
91 96 101 105 108 110 112 113 113 114 114 115 117 117 116 115 113 111 111 111 110 109 108 108 108 106 106 105 105 107 106 104 107 107 110 112 112 107 96 96 88 87 89
83 87 91 96 99 101 103 105 108 109 110 110 110 112 114 114 114 113 112 111 109 110 110 108 106 104 103 102 102 101 102 106 106 110 114 114 103 96 95 87 87 89 95
77 79 81 86 90 94 95 99 101 102 103 104 105 105 106 107 108 108 108 107 106 105 104 102 101 102 99 101 101 104 105 107 110 114 108 100 95 91 85 86 90 94 100
70 73 75 77 81 86 89 93 95 96 97 98 100 101 100 101 102 102 102 102 102 102 99 102 103 104 103 105 103 107 108 111 106 98 95 90 88 84 85 89 94 100 85
64 67 69 71 74 77 80 82 86 89 92 95 102 105 104 103 101 101 101 101 101 103 104 104 110 109 107 104 106 108 101 97 90 89 86 83 84 86 89 92 99 85 77
57 60 63 66 67 69 70 73 76 79 83 86 92 96 101 109 112 112 111 110 108 110 109 107 107 108 107 100 95 93 89 85 83 78 81 82 86 89 92 97 84 76 72
52 53 56 59 62 64 65 67 68 70 73 77 81 85 88 91 94 95 98 103 105 106 107 101 96 91 86 86 83 81 81 75 73 79 82 85 88 92 95 79 74 70 63
48 48 49 52 56 59 59 60 62 65 67 69 73 76 79 81 82 82 83 84 83 82 81 78 76 78 80 78 79 73 69 71 77 81 83 88 90 91 78 71 68 64 60
43 44 46 48 51 54 55 56 58 60 62 64 67 70 71 73 72 72 75 76 74 75 74 74 75 72 67 65 64 66 72 76 80 82 86 84 82 73 70 69 65 60 58
38 41 44 46 48 50 53 54 55 57 58 60 61 62 63 67 66 68 69 69 69 69 66 61 58 58 61 63 68 72 77 79 82 83 77 75 67 67 66 65 59 58 59
32 35 38 41 44 47 49 52 53 54 55 54 55 57 58 59 59 61 57 54 56 54 53 55 55 58 64 69 73 77 80 81 78 74 69 66 64 62 64 59 57 59 61
31 31 35 37 39 42 44 46 46 45 46 47 48 50 51 51 54 52 47 52 55 54 58 59 63 68 72 77 77 76 71 70 70 64 63 61 60 61 60 57 59 60 62
31 30 32 35 38 39 41 42 41 41 39 40 40 40 41 42 42 44 48 51 54 59 62 65 68 69 68 65 65 67 65 61 61 58 57 59 59 59 58 59 59 60 62
31 31 31 33 35 37 36 36 36 38 37 35 35 35 36 39 42 46 49 53 57 57 57 56 54 57 60 60 57 57 57 57 56 57 58 59 57 57 58 57 58 59 61
28 30 33 31 32 34 38 39 39 38 40 40 41 42 42 43 47 47 47 47 47 46 48 52 55 54 51 53 56 56 56 56 57 58 56 55 56 54 55 56 57 59 63
30 29 31 30 32 32 33 37 38 36 36 36 36 39 40 38 39 41 40 42 45 48 51 47 47 49 50 49 49 49 49 49 51 51 53 52 51 53 53 54 56 61 64

GFSMW_250_spd_090.txt.gz
Wind_Speed
107 106 102 97 93 87 79 71 68 79 80 80 76 72 69 70 75 75 72 70 71 70 67 64 65 65 66 64 65 69 68 71 75 76 77 81 82 83 85 83 85 86 88
105 108 106 103 96 94 87 80 83 69 73 73 73 76 72 69 70 73 76 78 76 72 70 69 68 69 68 69 73 73 75 79 79 79 81 83 84 85 85 84 87 90 93
102 104 109 108 106 101 98 94 91 82 82 72 67 68 70 65 70 72 74 75 76 76 76 75 75 75 75 77 77 78 81 81 82 83 83 82 84 87 87 89 91 94 96
105 103 105 110 110 108 107 102 97 94 83 75 74 82 82 79 77 76 74 69 70 72 73 75 75 76 76 79 82 83 83 85 87 85 83 84 82 84 85 90 94 99 102
103 104 103 107 112 113 111 108 105 99 96 94 86 82 83 82 82 82 83 79 82 83 84 83 80 82 83 86 87 87 87 88 86 83 86 86 89 88 91 92 96 100 104
103 105 104 104 108 111 115 114 109 106 105 99 99 94 86 90 93 93 88 85 83 80 83 85 86 87 89 89 89 86 82 85 86 88 88 90 92 94 96 97 100 99 99
105 106 104 104 106 109 112 116 115 110 108 107 102 98 94 91 92 91 91 90 90 88 86 85 85 86 87 87 89 89 88 89 88 90 91 92 95 97 98 100 98 97 100
103 102 103 103 105 107 108 113 116 117 114 112 110 107 101 102 101 98 96 93 90 91 93 92 91 91 90 92 92 93 93 92 93 95 97 98 99 98 98 97 98 102 103
101 104 104 105 104 106 109 109 112 117 119 118 116 114 110 107 105 100 100 99 98 98 98 96 95 95 95 95 94 95 94 96 97 96 97 97 94 95 96 98 102 102 107
93 97 100 102 103 104 106 109 111 112 115 119 120 119 116 114 111 108 107 106 106 104 103 102 101 100 99 99 97 99 99 97 98 96 95 94 95 94 97 103 105 106 108
86 90 95 100 102 103 103 106 109 110 111 113 118 120 119 118 117 115 114 113 112 110 107 106 105 105 104 102 101 101 100 98 96 96 97 95 97 100 104 103 108 107 98
79 85 90 93 96 98 100 101 103 107 110 111 111 112 115 117 119 119 119 118 116 114 113 111 110 110 109 108 106 106 102 99 100 98 95 99 101 105 102 106 105 91 91
75 78 82 87 90 94 97 99 100 100 103 107 110 110 112 114 114 115 115 115 115 115 113 111 109 108 107 105 102 100 100 98 95 98 95 100 104 99 106 103 94 91 89
69 73 77 79 83 87 88 90 91 92 94 97 100 101 106 109 109 109 110 110 109 108 108 106 106 103 98 95 95 95 94 91 96 93 102 102 107 99 100 90 89 87 85
66 68 70 72 75 78 81 83 84 87 89 90 93 95 96 96 99 101 102 102 101 101 99 96 94 92 91 90 92 91 97 95 100 101 96 104 94 92 86 87 84 82 85
59 61 64 66 69 70 72 75 77 77 78 79 82 83 84 85 87 91 90 90 90 90 89 88 89 90 92 95 98 98 100 105 98 102 89 91 86 82 85 81 81 83 88
55 55 56 59 62 64 66 68 69 70 69 69 72 75 76 77 78 80 81 84 85 90 91 94 97 102 106 105 108 107 106 100 88 90 84 82 85 78 76 79 83 88 92
51 52 54 55 57 60 61 62 63 64 64 64 66 67 68 71 74 74 77 80 81 82 87 92 94 96 98 94 90 87 84 81 78 77 80 76 72 74 77 82 87 90 79
47 50 51 53 51 50 53 56 57 58 59 60 61 63 64 65 67 68 71 74 76 77 79 79 80 77 76 76 72 70 73 73 77 74 69 70 72 76 83 87 81 77 71
40 42 44 46 48 48 48 50 53 54 56 57 58 59 60 63 64 64 66 66 67 70 70 67 62 62 66 67 67 71 70 65 62 65 67 73 78 83 85 77 75 69 67
35 36 38 42 43 45 47 49 51 53 54 54 55 56 57 59 59 59 61 61 60 63 62 61 63 62 58 58 60 58 58 60 64 69 74 79 84 78 74 71 68 65 63
31 32 32 34 33 36 42 46 48 49 50 51 51 52 53 53 53 54 55 55 56 52 52 51 51 52 53 53 54 57 62 66 71 75 76 73 73 70 66 65 62 63 64
31 29 29 29 29 31 33 37 40 41 43 44 44 46 48 49 48 47 46 46 45 43 47 43 41 48 55 54 58 63 67 71 70 67 69 66 65 64 63 62 62 64 61
29 27 26 28 28 30 30 33 34 36 37 39 40 40 40 39 36 35 36 34 35 38 41 44 47 48 52 58 62 64 61 61 62 62 61 62 62 61 60 59 59 58 59
32 27 27 25 28 29 31 33 34 35 36 35 34 34 34 34 33 35 34 34 36 41 44 47 50 54 57 56 54 55 56 54 55 55 55 55 54 52 52 53 54 55 56
28 28 29 27 27 29 29 32 34 33 33 32 34 35 33 34 35 36 37 41 44 46 48 48 48 47 49 51 50 48 49 48 49 50 50 49 49 49 50 50 49 50 52

GFSMW_250_spd_093.txt.gz
Wind_Speed
93 98 101 96 91 85 80 76 55 69 67 70 69 71 70 67 67 70 71 70 70 70 69 67 66 66 66 65 65 64 65 64 64 66 70 73 73 75 78 81 83 82 83
96 95 98 99 95 92 90 84 77 61 63 62 57 58 61 72 72 70 69 69 70 70 71 70 71 72 72 71 70 68 66 67 69 73 75 74 76 78 83 84 84 85 86
94 99 97 101 101 98 95 91 89 77 65 65 72 60 55 58 68 63 68 70 69 69 69 67 68 69 69 68 70 69 70 70 72 72 74 75 80 84 85 84 87 86 88
97 99 98 98 103 102 99 98 94 87 78 67 64 67 63 64 68 67 56 69 73 75 72 72 72 70 70 69 70 71 70 74 78 75 75 78 82 85 81 86 87 91 94
94 98 98 100 101 104 106 103 100 98 92 79 79 80 68 66 69 71 70 66 73 75 74 75 75 71 69 70 70 75 79 82 79 80 83 85 84 83 84 85 88 92 94
94 94 99 99 98 102 108 108 105 103 102 96 93 79 72 69 75 76 79 78 80 76 76 75 80 76 77 79 81 83 84 84 85 85 83 81 83 88 90 90 92 96 95
93 94 95 98 99 101 104 106 107 107 105 104 101 95 91 84 78 77 78 76 80 77 79 81 81 79 79 81 83 87 88 86 82 82 82 85 90 92 93 96 96 93 90
90 93 93 93 96 100 103 103 106 108 110 110 108 108 104 103 100 100 94 88 85 83 85 85 85 87 87 88 85 87 86 86 86 85 88 91 95 96 97 97 94 92 90
92 92 92 94 96 96 97 100 103 106 109 111 112 113 110 111 110 105 101 98 99 97 96 94 94 94 94 93 90 88 90 90 90 93 95 98 99 100 99 96 93 90 86
92 94 93 92 93 97 98 98 99 102 105 109 110 113 115 116 115 113 112 110 108 106 101 101 100 100 99 96 97 94 95 94 97 100 103 101 102 100 93 90 92 88 86
88 92 95 97 98 98 98 98 100 100 100 103 107 109 112 116 118 118 117 115 113 112 110 108 107 104 105 104 103 101 101 104 106 107 105 103 98 92 88 87 91 87 92
80 84 88 92 95 98 100 99 100 102 103 104 104 106 109 111 113 115 115 116 118 118 117 115 113 111 110 109 108 109 109 110 110 108 103 97 92 88 86 88 89 93 92
72 76 80 85 89 92 95 97 99 101 104 105 106 106 106 108 110 111 111 113 115 116 117 118 117 116 115 114 113 114 112 110 106 104 99 95 90 84 87 91 94 92 94
66 68 71 76 80 85 89 92 93 95 98 100 103 104 104 104 106 108 109 110 110 111 112 113 113 113 113 114 114 112 108 106 101 98 92 88 88 86 89 94 94 91 101
63 64 67 72 75 78 81 85 89 91 91 93 92 93 94 96 97 97 99 102 104 106 107 107 106 106 105 103 102 103 100 96 93 90 87 87 86 91 97 100 95 98 92
61 64 66 68 70 72 75 78 81 84 85 86 85 86 87 86 86 86 87 90 92 96 99 100 98 96 95 96 97 95 91 87 86 87 85 90 96 96 99 90 95 87 91
58 59 61 63 65 67 70 72 76 79 81 80 81 82 82 82 80 79 80 83 83 85 84 85 87 86 89 89 88 86 84 84 87 90 96 100 96 95 86 87 86 83 83
55 56 57 58 60 62 64 67 69 72 72 74 75 74 74 73 74 75 75 74 76 76 77 79 79 81 80 79 78 78 81 85 86 90 85 84 82 81 80 78 80 79 73
53 52 54 55 55 57 58 61 63 64 65 65 66 66 66 66 67 69 70 70 69 69 70 71 70 73 73 73 72 73 74 77 74 71 71 70 71 71 76 78 69 71 74
45 46 48 50 52 52 55 56 57 58 58 60 60 59 59 60 61 63 64 64 65 64 65 66 67 67 66 67 68 68 64 62 57 59 62 68 72 72 66 67 70 74 80
43 41 41 44 46 47 50 52 52 51 54 55 56 56 56 57 58 59 59 60 61 61 61 62 61 61 61 62 59 58 54 56 58 63 65 62 60 62 66 71 76 79 76
36 36 38 41 41 40 40 41 44 46 48 49 50 52 54 54 55 55 57 57 58 57 57 59 56 55 57 54 54 53 57 56 55 55 57 59 62 66 72 76 72 73 70
31 31 31 31 32 33 32 34 36 38 40 42 45 46 48 48 49 50 52 52 52 52 51 51 50 50 46 45 46 47 46 46 49 56 59 62 67 71 68 69 68 66 63
28 29 30 29 29 29 30 31 32 33 34 36 37 38 41 42 43 44 45 45 46 46 45 43 43 44 43 45 42 42 46 50 54 57 62 64 63 65 64 61 59 57 55
28 30 31 27 26 27 28 29 30 31 31 33 33 34 36 37 37 37 37 38 39 38 37 38 37 35 37 39 41 46 49 51 57 58 57 59 59 58 54 52 51 50 50
32 32 30 28 30 30 29 29 29 30 31 32 32 31 31 32 33 33 33 32 33 33 32 32 32 36 41 43 46 49 52 52 52 55 53 50 47 49 49 48 48 47 47

GFSMW_250_spd_096.txt.gz
Wind_Speed
97 99 99 100 100 95 76 73 63 69 69 72 64 62 60 60 60 61 63 66 66 65 66 68 67 67 67 69 68 67 66 67 69 69 69 70 70 69 71 72 71 72 75
95 97 99 99 100 98 79 78 66 59 71 72 68 55 55 53 53 56 57 61 62 65 67 66 66 68 69 70 70 69 70 70 67 65 67 68 69 72 75 75 76 76 78
92 93 97 99 98 97 86 85 88 66 58 62 72 66 60 62 59 60 56 53 56 62 66 68 66 65 66 67 67 67 67 66 66 66 67 68 75 77 74 78 80 81 80
91 92 93 98 98 96 100 96 92 87 68 68 63 72 73 70 68 64 61 57 56 57 60 65 70 73 73 73 72 71 71 70 71 70 69 73 73 79 82 82 86 86 84
88 87 91 96 100 98 98 101 95 93 88 75 65 75 72 71 73 71 66 61 64 65 64 64 70 72 75 76 74 74 74 74 75 77 74 76 76 79 82 84 85 84 88
87 87 90 97 99 100 99 100 102 100 97 95 92 79 71 74 77 80 81 79 76 69 69 67 69 72 72 74 75 74 74 76 74 76 81 81 81 85 84 87 88 90 89
85 87 92 95 99 101 100 98 103 104 101 99 98 94 90 87 82 80 84 83 80 78 78 77 78 76 76 79 74 77 79 80 78 81 82 83 84 82 84 90 90 93 91
82 84 87 92 100 101 101 100 99 102 105 104 103 100 99 99 93 85 85 83 79 81 84 86 84 82 80 81 79 78 79 79 82 83 85 83 85 89 90 91 96 94 97
82 86 87 90 94 97 97 96 99 99 101 106 108 106 105 102 98 101 96 89 89 85 90 88 87 84 82 84 82 80 81 84 84 84 85 86 90 92 93 95 99 100 105
84 84 85 86 88 90 92 95 99 99 102 104 107 111 111 111 109 105 106 106 105 102 96 95 88 85 84 85 88 92 90 90 90 94 97 99 98 100 103 106 109 110 112
83 84 85 86 87 88 90 94 96 99 103 105 104 106 111 116 115 114 114 111 111 112 105 98 93 92 95 98 98 97 97 99 102 103 104 102 105 107 109 113 113 113 108
82 84 85 85 87 88 92 92 91 93 97 99 101 105 106 108 113 117 120 120 121 118 117 115 114 113 114 114 113 112 112 112 113 114 112 113 116 116 117 116 111 104 99
78 81 84 86 87 87 87 91 94 96 97 99 100 102 104 107 110 111 114 117 119 122 122 123 123 122 123 121 121 122 123 122 122 122 119 119 117 113 112 106 101 97 91
71 75 79 84 87 89 90 91 92 94 98 99 100 102 104 106 109 112 114 115 116 115 114 115 116 117 118 120 121 121 121 121 118 114 112 110 106 101 99 99 93 91 87
67 70 73 76 81 86 89 92 94 96 98 99 100 103 105 107 108 109 111 112 112 112 112 112 112 112 112 113 113 115 114 112 110 107 106 104 98 99 94 96 92 91 89
67 70 73 75 76 79 82 86 88 90 92 94 96 97 99 101 104 106 108 108 108 108 107 107 106 106 106 109 107 107 109 107 107 102 96 94 92 97 96 92 85 83 85
67 69 71 73 75 76 79 82 84 86 86 88 89 89 89 91 92 94 94 97 100 100 99 100 100 98 96 95 99 98 97 95 95 93 88 88 88 89 86 83 82 81 77
65 68 68 69 71 73 73 75 77 79 81 83 84 84 86 84 83 83 82 83 84 84 86 87 88 88 85 87 88 88 85 85 83 82 79 79 79 78 76 76 72 69 70
66 65 65 66 65 67 67 69 71 73 75 77 77 77 77 76 76 77 76 78 77 77 77 76 76 76 77 80 79 78 76 76 76 74 71 72 71 69 66 64 63 66 68
62 61 59 58 60 61 63 64 64 67 68 70 71 70 70 69 69 69 67 68 69 71 71 71 72 72 72 75 75 71 69 70 66 66 66 66 65 62 63 59 63 66 70
56 55 54 54 56 57 57 58 59 60 63 64 63 64 65 64 63 63 63 63 63 64 65 67 68 67 67 68 69 66 62 61 62 62 58 59 59 59 59 60 63 68 62
46 46 45 47 49 50 51 53 54 54 56 57 58 59 59 59 59 59 59 60 59 60 62 63 63 61 61 62 61 60 58 57 56 56 55 55 57 59 58 58 58 61 67
40 40 42 43 45 46 45 45 47 45 46 47 48 49 50 51 54 55 55 57 57 58 58 58 58 56 56 55 55 54 53 52 51 50 49 49 48 48 49 54 61 65 69
37 38 38 39 40 40 41 42 42 40 41 41 40 41 42 43 44 45 45 46 49 50 50 50 51 49 50 50 48 49 49 45 45 46 48 45 46 50 56 58 63 62 61
34 33 34 36 36 36 36 38 40 39 38 37 37 38 38 38 37 38 40 40 41 42 43 43 43 43 43 44 45 44 44 44 48 44 43 47 51 54 58 58 57 52 50
28 30 32 33 34 34 36 37 37 37 36 35 36 37 38 37 36 36 37 36 37 37 38 39 39 41 43 43 43 43 43 40 40 44 49 51 54 53 53 54 48 48 49

GFSMW_250_spd_099.txt.gz
Wind_Speed
98 95 96 94 95 97 94 91 85 79 71 67 63 64 62 59 56 55 55 55 58 62 64 63 62 63 63 63 65 66 66 66 66 67 69 69 64 65 65 67 70 72 69
100 96 94 94 93 95 96 94 89 76 72 71 70 67 63 58 61 58 55 57 60 58 56 57 59 62 64 65 66 66 64 62 61 58 65 66 64 66 68 72 71 73 72
99 96 97 95 93 93 95 95 92 88 79 61 69 69 67 63 61 60 58 63 63 60 59 59 57 59 60 61 62 64 65 64 65 66 67 68 69 70 72 76 75 78 78
94 95 97 96 93 92 94 95 95 91 84 81 66 74 74 72 69 68 67 67 63 56 55 54 59 65 66 67 67 68 70 70 72 72 73 74 74 74 76 77 78 78 78
90 92 95 97 97 93 93 94 93 92 90 86 81 77 78 77 78 74 74 70 66 65 67 59 59 61 62 65 70 74 74 72 73 76 78 80 77 75 77 76 79 81 83
87 90 91 94 94 93 95 95 93 92 92 88 92 86 81 81 78 74 74 79 77 74 70 68 70 70 69 70 70 73 76 74 72 74 73 74 73 74 76 78 81 82 84
88 88 87 88 86 90 94 95 93 94 97 99 91 89 83 79 75 77 78 79 79 79 82 81 80 75 78 75 74 76 77 77 77 79 79 74 73 76 77 73 75 81 86
88 87 86 85 85 88 90 91 94 98 101 102 96 92 89 81 82 80 81 80 80 78 81 88 88 85 85 87 87 85 88 86 83 84 82 81 81 78 77 77 82 83 86
90 88 83 83 84 84 88 89 97 99 100 102 102 102 105 98 88 86 95 80 85 87 86 93 91 88 89 90 91 91 91 89 90 89 90 85 83 83 82 89 91 92 96
88 87 80 80 81 83 87 92 95 94 99 102 104 106 106 107 104 97 98 93 87 89 94 97 91 91 91 88 91 91 88 89 91 90 91 92 87 90 95 99 100 102 104
89 87 83 80 79 84 88 91 90 97 97 102 106 106 106 107 105 109 106 98 102 103 103 105 104 102 98 94 95 95 97 92 92 94 97 98 96 98 100 104 109 111 113
86 86 84 80 80 83 87 89 90 92 93 97 101 104 106 105 106 111 113 113 111 109 108 108 109 106 108 109 107 106 104 104 101 101 101 103 104 105 110 115 117 120 122
84 84 83 82 80 80 82 84 85 90 91 95 95 99 102 108 105 106 111 117 119 119 119 117 117 116 114 114 116 115 116 117 117 117 119 116 115 119 124 126 129 128 128
80 81 80 80 81 79 80 80 83 86 89 91 95 98 100 105 104 106 110 111 115 118 120 122 123 124 125 124 125 123 123 124 124 123 124 125 128 130 130 126 122 120 118
74 76 77 78 79 81 81 80 81 85 89 91 93 98 102 105 106 108 110 112 114 116 117 117 117 118 119 121 121 124 124 126 127 127 126 125 122 120 118 117 116 114 111
73 73 74 76 77 79 82 84 84 86 88 91 93 96 99 102 104 106 109 111 112 114 115 116 118 119 118 118 117 116 115 117 117 119 118 117 114 113 112 111 111 111 109
69 71 72 74 75 78 81 84 87 89 91 93 95 96 98 99 100 102 104 106 109 110 111 111 112 113 113 113 114 114 114 115 115 115 113 113 112 111 104 104 100 98 92
68 70 72 73 75 76 77 80 83 86 89 90 91 93 95 96 99 100 102 103 105 107 108 107 108 107 106 106 107 109 108 107 106 104 105 103 98 96 95 92 86 82 80
67 69 71 73 74 74 75 77 79 79 80 81 83 86 87 89 90 91 92 93 94 94 93 91 92 92 93 94 95 95 94 94 94 92 91 89 87 84 82 80 76 74 71
68 70 72 72 73 74 76 76 75 76 78 79 81 82 83 84 84 85 85 85 85 84 83 82 82 82 83 84 84 84 83 82 81 81 81 79 77 73 70 69 65 65 62
67 67 69 73 74 73 72 71 72 74 74 76 77 78 78 79 79 80 80 79 79 78 77 77 77 77 76 76 75 75 74 74 73 72 71 70 67 65 63 61 59 57 58
65 67 69 68 66 64 64 65 66 67 69 70 71 71 71 72 72 72 73 74 73 73 72 71 70 70 69 68 68 68 67 66 66 65 62 60 57 58 56 53 53 55 55
65 63 59 61 60 60 61 62 63 62 62 62 63 63 65 66 66 67 67 67 67 67 66 65 65 63 62 61 61 61 60 60 59 57 56 53 52 50 50 51 51 49 49
55 54 54 54 54 52 51 52 51 54 54 55 56 56 56 57 57 57 56 56 56 57 57 58 58 56 55 55 55 55 55 53 52 51 51 49 47 48 49 46 47 46 47
45 44 42 42 43 45 46 47 48 48 50 53 52 50 48 49 50 50 47 46 45 46 46 47 46 46 46 47 49 48 46 45 45 44 45 46 45 44 44 44 44 47 53
40 41 40 43 42 42 42 43 45 47 50 50 49 48 46 47 46 45 43 41 40 40 41 41 41 41 41 41 40 41 42 44 44 45 45 43 43 44 40 43 49 51 54

GFSMW_250_spd_102.txt.gz
Wind_Speed
102 99 100 99 100 100 97 93 91 88 79 70 70 66 63 57 56 54 53 51 52 54 55 58 60 60 60 60 59 63 62 62 64 63 64 65 65 63 64 63 63 63 65
103 100 99 98 99 99 98 96 93 92 87 80 77 69 64 59 60 58 58 52 53 55 54 55 59 63 67 69 48 55 55 58 60 64 66 69 69 63 65 65 68 71 70
102 99 96 97 97 99 98 95 95 94 92 89 83 76 66 62 67 61 62 60 54 48 52 57 61 61 61 61 61 62 62 64 69 71 74 73 72 71 72 72 73 75 73
95 98 95 96 95 97 98 95 95 95 95 91 81 75 65 65 70 69 66 61 57 50 46 52 55 58 63 65 68 72 67 71 72 75 74 74 74 74 77 78 78 77 74
95 95 96 95 94 94 94 93 93 93 93 92 87 84 84 73 68 69 72 69 69 65 63 57 57 61 62 66 66 70 72 73 74 74 74 74 74 74 75 74 73 75 76
93 94 95 93 97 94 93 92 91 91 89 88 91 82 85 83 77 75 76 74 74 73 72 70 69 68 67 68 69 68 70 73 74 70 71 74 77 78 76 75 76 76 78
91 91 95 90 94 97 94 93 91 89 90 88 89 94 88 83 86 79 80 81 80 78 79 79 81 81 79 78 78 78 78 78 80 81 79 81 80 80 81 82 81 82 82
92 90 91 87 91 92 90 93 94 91 88 87 91 91 94 96 92 97 93 82 85 84 84 83 83 85 89 87 88 88 88 87 85 88 89 89 86 88 89 91 90 91 88
89 86 85 83 83 87 91 92 93 93 92 89 88 89 92 95 94 102 102 100 95 92 88 87 87 89 88 87 90 93 95 92 90 92 92 93 92 91 89 90 89 89 88
86 86 85 83 84 86 87 88 90 91 91 93 93 90 91 92 97 102 104 104 102 96 90 92 95 94 89 90 90 94 96 95 95 93 91 91 91 91 92 92 93 94 94
82 84 85 84 85 84 84 85 84 89 91 92 93 94 95 96 99 102 105 108 104 104 97 93 95 96 98 100 101 100 97 96 99 93 94 94 96 97 99 100 105 106 106
78 82 86 85 83 84 85 83 83 86 86 89 90 92 95 97 100 101 101 107 107 108 105 101 100 101 101 102 99 102 102 100 99 103 104 106 108 111 108 110 110 112 111
79 82 83 83 85 85 81 81 84 86 84 87 86 89 96 97 97 99 101 105 108 106 108 105 107 109 107 103 102 101 103 106 106 108 110 113 113 115 116 118 121 121 122
77 79 80 83 85 83 81 80 83 85 84 85 86 89 90 91 95 99 102 103 106 108 110 111 114 116 116 112 112 113 114 114 115 117 117 119 121 120 120 122 121 122 124
74 76 77 79 80 80 82 83 82 83 83 84 86 88 90 91 96 98 97 101 104 107 111 114 114 120 120 121 120 119 122 122 121 123 124 124 125 127 128 127 128 128 125
71 73 75 75 77 80 80 80 83 84 85 85 86 86 88 91 96 98 100 102 103 103 106 111 114 120 119 119 119 120 120 123 123 122 121 121 121 122 123 125 124 124 121
67 69 70 73 75 77 74 76 79 81 83 84 86 89 90 93 95 98 99 100 101 102 102 105 110 114 115 116 119 120 119 119 118 117 117 117 119 119 119 120 119 119 118
65 67 69 70 71 72 72 74 75 78 81 83 86 88 91 92 93 94 96 96 96 98 101 104 106 108 110 111 113 114 114 114 114 113 113 114 115 116 118 118 114 110 102
63 64 65 67 68 69 70 71 71 73 76 79 84 86 88 89 91 95 95 96 97 98 100 102 103 104 105 107 109 110 110 111 110 109 108 107 105 103 101 97 93 90 87
61 63 65 66 67 68 70 71 72 73 74 76 77 79 80 83 86 88 88 90 91 93 95 96 97 97 97 98 97 97 96 95 93 93 93 93 91 88 87 83 81 79 78
63 64 65 65 67 68 70 72 72 73 74 75 75 74 76 78 79 81 82 84 85 86 88 88 89 89 90 89 89 88 87 86 85 84 84 83 81 79 77 74 71 69 66
62 64 65 67 68 69 70 72 72 73 71 70 71 74 74 75 76 78 79 80 82 83 83 84 84 84 83 83 82 80 80 79 78 77 74 73 71 70 69 65 64 61 58
63 64 64 65 67 67 68 70 70 69 68 68 69 70 71 73 72 74 74 75 76 77 79 79 79 78 78 77 76 75 73 70 70 68 66 65 63 61 59 57 55 53 52
61 62 63 64 65 66 68 68 65 64 64 64 65 66 68 69 70 71 71 71 70 71 72 68 67 66 66 65 64 63 62 62 59 58 57 57 56 54 52 51 50 49 48
57 59 61 63 64 64 63 63 63 65 63 63 62 62 63 64 64 64 62 62 59 59 57 56 56 55 54 53 53 53 53 51 50 49 49 49 47 48 48 48 48 44 42
54 55 56 57 57 57 57 57 58 57 54 54 56 56 56 58 57 56 53 52 51 52 50 49 47 46 46 45 46 46 46 45 45 44 44 46 47 47 46 46 42 40 39

GFSMW_250_spd_105.txt.gz
Wind_Speed
109 101 94 104 106 98 80 78 77 76 67 76 67 77 59 62 58 57 56 54 52 51 52 52 53 54 55 56 58 60 60 59 62 66 67 67 68 66 67 69 68 68 69
110 109 101 85 101 99 90 83 82 86 83 69 72 68 70 71 67 67 67 64 60 59 57 55 55 54 56 57 59 63 65 67 63 62 68 70 70 70 69 68 69 70 72
102 109 106 102 97 100 100 93 86 83 90 92 81 68 53 60 64 57 65 65 60 60 59 57 54 56 58 62 63 64 65 67 68 74 74 76 77 74 71 73 74 75 76
97 102 101 101 99 100 105 105 100 86 88 89 90 84 75 60 62 51 57 58 58 58 59 59 58 58 59 62 65 66 67 70 70 70 68 72 73 75 75 76 76 75 77
89 97 102 101 100 100 102 104 99 96 85 91 92 94 91 76 72 75 63 51 56 60 57 56 60 56 56 60 71 70 69 66 64 66 67 70 71 70 70 73 74 72 71
82 91 99 98 99 99 97 101 102 92 97 93 99 95 95 93 87 85 81 82 77 73 74 72 70 65 67 69 65 64 66 67 69 70 72 75 78 79 77 79 79 79 79
78 82 92 95 96 99 98 98 101 101 98 100 87 98 98 94 95 96 95 94 90 79 78 78 78 78 78 75 75 73 70 71 74 76 81 85 85 88 88 88 89 87 86
72 77 83 91 93 97 100 98 98 99 101 100 101 92 97 100 100 97 96 97 94 90 88 83 80 82 80 84 83 83 83 81 83 85 88 91 92 92 91 93 93 92 92
76 77 80 86 89 93 92 93 97 96 97 98 100 97 97 98 100 102 103 101 100 94 93 96 92 91 91 89 89 88 88 86 86 86 87 88 90 90 89 91 95 95 96
77 77 81 83 85 88 88 90 91 94 94 97 97 95 95 95 97 97 98 98 102 103 98 95 93 90 93 93 93 91 90 92 91 93 93 95 95 95 95 98 99 100 97
80 79 82 84 85 87 86 88 90 88 90 93 95 92 92 92 93 95 95 95 97 99 105 100 98 98 99 100 100 100 100 100 100 101 102 103 101 100 102 103 103 102 103
79 82 84 85 84 84 84 87 86 87 89 90 91 92 92 94 94 94 93 93 95 98 101 105 109 109 108 109 109 107 106 107 107 105 103 101 100 104 103 102 102 106 107
77 77 79 80 81 83 83 83 82 85 88 88 89 91 92 94 96 96 95 96 96 98 99 100 103 106 106 107 106 107 109 105 102 103 105 107 107 109 111 110 112 111 110
71 74 77 78 80 80 78 79 82 84 85 86 86 87 89 92 93 93 94 95 98 100 103 102 103 105 105 106 107 106 106 107 109 112 113 114 112 111 109 110 107 112 111
69 71 72 75 79 78 77 79 79 81 83 85 86 85 85 89 89 89 89 91 95 99 101 104 107 109 110 110 109 107 105 104 108 110 113 115 116 119 117 115 113 115 119
67 69 72 75 76 77 77 77 79 81 80 81 82 84 85 87 87 87 87 89 91 94 96 98 101 103 107 108 106 105 106 107 108 111 114 117 121 122 123 122 123 128 128
67 70 72 71 72 73 76 77 77 76 77 79 81 83 84 85 86 87 87 88 89 92 94 95 97 100 101 100 102 103 106 107 109 111 112 115 116 118 119 120 120 120 120
63 65 67 69 70 70 72 73 74 76 78 78 79 80 83 84 86 87 88 88 89 90 91 93 96 96 97 99 100 103 105 106 107 109 109 108 109 109 110 110 110 112 113
59 62 64 64 65 66 67 68 70 72 73 74 75 77 78 80 81 83 85 87 89 91 93 94 95 96 97 97 99 100 102 102 104 105 106 106 106 106 107 107 108 108 105
59 59 60 62 63 64 65 66 66 68 70 70 70 71 72 74 76 78 81 83 85 88 90 91 93 94 96 97 98 101 101 101 100 100 99 98 97 96 96 93 91 90 91
56 57 58 60 62 63 64 65 66 67 68 68 68 68 68 69 70 73 75 78 80 83 85 86 88 90 90 92 92 93 93 93 93 89 90 89 89 89 87 84 82 81 80
55 56 57 58 59 61 62 64 67 67 66 66 67 68 68 69 70 71 72 74 76 76 77 79 81 82 84 85 87 89 88 89 87 85 84 83 81 78 76 74 72 70 68
53 55 57 59 61 63 64 65 63 64 66 66 67 68 69 70 70 70 70 71 72 73 74 76 78 78 79 80 81 81 82 82 81 79 78 77 74 71 69 67 64 63 60
51 53 56 56 57 59 61 63 65 66 67 67 66 65 66 67 67 67 67 68 69 71 71 72 71 71 73 73 74 74 74 71 69 66 63 62 61 59 56 54 54 53 52
50 51 52 54 56 59 60 62 64 64 65 65 65 65 66 65 66 67 67 68 68 69 70 68 65 65 65 63 63 61 59 57 55 55 53 51 50 50 49 49 47 48 47
50 53 56 57 59 61 62 64 64 64 64 64 64 65 64 64 64 63 65 66 65 65 64 61 57 54 54 54 52 51 49 48 47 47 46 46 46 46 45 45 45 45 46

GFSMW_250_spd_108.txt.gz
Wind_Speed
104 94 78 76 87 87 89 87 78 74 69 70 57 44 55 57 62 62 56 57 57 59 56 51 48 49 52 51 53 55 55 58 59 59 58 58 62 61 61 66 67 64 66
110 110 94 78 77 88 81 88 85 79 73 71 60 51 43 31 45 56 57 62 60 57 57 57 58 54 52 53 54 56 57 61 62 63 64 65 64 69 68 69 69 72 71
102 105 99 87 76 81 88 84 80 73 63 63 71 69 63 51 44 46 52 55 66 66 65 65 64 60 59 58 59 59 60 64 63 66 67 69 70 71 71 70 72 68 66
104 106 111 103 88 80 84 86 73 57 47 48 51 67 86 78 57 64 67 63 62 63 67 68 70 68 64 63 64 63 63 65 68 66 66 67 69 73 72 71 72 71 69
102 104 108 110 106 90 84 85 88 81 71 58 70 49 57 81 72 69 70 69 69 72 74 73 66 67 68 67 66 63 65 69 71 69 71 72 72 72 75 73 72 72 71
102 105 110 109 109 107 99 83 86 84 86 67 74 76 68 75 78 70 64 71 64 60 61 66 68 63 46 56 70 67 61 62 66 65 67 68 73 75 74 77 79 77 78
97 94 98 96 101 105 103 99 93 96 91 93 94 84 79 84 91 82 77 78 86 87 79 75 67 68 66 69 63 61 59 55 77 79 80 79 80 79 79 81 84 86 85
78 89 93 96 98 102 108 106 102 101 109 111 106 103 103 94 91 90 90 89 93 94 92 82 78 76 73 72 75 78 80 84 86 88 87 86 84 82 84 87 91 92 90
79 79 87 91 98 102 102 104 106 105 102 101 105 107 105 107 100 91 92 93 94 97 97 95 90 89 89 91 93 94 94 92 94 89 89 89 88 89 91 93 93 94 94
84 81 79 82 85 90 100 103 103 104 106 105 105 112 115 116 111 106 102 100 102 106 104 103 101 99 98 97 98 97 97 98 97 99 98 98 97 96 98 96 97 97 99
84 85 85 85 84 84 88 91 92 99 103 105 107 109 114 117 118 111 107 108 109 103 107 112 108 105 103 104 104 103 102 101 102 104 104 103 103 102 102 104 105 106 111
80 87 89 88 86 87 83 82 86 91 95 99 100 105 107 106 110 114 116 115 112 111 105 103 105 108 110 112 114 115 116 116 114 112 112 108 107 106 111 110 112 114 113
88 83 80 81 83 81 83 81 83 85 87 91 95 97 95 100 104 105 106 108 109 106 106 108 106 106 108 107 107 107 109 108 107 111 114 116 114 114 117 116 114 113 110
83 81 77 81 80 79 81 83 80 78 80 85 87 90 93 97 98 98 102 106 106 105 103 105 102 102 101 101 102 102 104 105 106 108 109 113 115 116 115 112 111 109 109
70 71 73 79 81 82 79 76 80 82 84 85 87 87 86 89 91 93 96 97 98 98 99 102 101 101 102 102 103 104 105 105 106 106 108 109 110 111 112 112 113 109 108
69 68 70 74 77 77 76 75 78 81 82 82 81 81 83 84 86 89 91 90 90 89 92 94 96 96 98 98 99 102 104 106 106 107 107 108 110 112 111 112 111 109 107
62 63 65 67 69 70 71 73 76 77 77 78 77 78 80 82 84 86 85 86 87 87 88 90 91 91 92 94 96 97 98 99 99 100 101 104 105 106 107 106 105 105 106
61 62 63 65 67 69 71 72 74 74 75 76 78 79 80 80 81 82 83 83 85 86 88 88 89 91 91 92 93 94 94 96 97 98 98 99 100 101 101 103 104 105 105
57 59 61 62 65 68 70 71 71 71 72 73 76 76 77 79 80 81 82 82 83 84 86 87 88 89 91 92 93 93 94 95 96 98 97 99 101 102 102 102 102 103 104
55 56 57 58 59 62 63 65 67 68 69 71 72 74 75 76 78 79 79 79 81 82 83 85 85 87 88 89 90 91 91 92 94 96 97 98 99 99 99 97 96 94 93
52 54 55 56 57 58 61 64 65 67 68 69 68 69 71 75 75 76 77 77 78 79 80 80 82 83 83 83 84 84 86 87 88 90 91 91 92 92 92 90 89 88 86
48 51 53 54 55 57 59 61 63 64 66 66 66 68 70 71 72 73 73 73 75 75 75 76 76 76 76 78 79 80 81 83 84 86 87 88 89 88 87 86 84 82 80
46 48 50 51 53 55 57 59 60 62 64 65 66 68 69 71 71 70 70 71 72 72 72 74 75 75 75 76 77 78 80 81 82 83 84 84 82 81 80 78 74 70 66
44 45 47 49 52 54 56 58 59 61 62 64 66 67 68 68 67 67 67 69 71 70 71 71 70 70 72 73 73 72 72 74 76 76 76 75 74 70 66 61 57 54 52
43 45 47 50 52 54 55 57 59 60 62 63 65 66 66 66 66 67 68 68 68 69 68 69 69 70 69 68 68 66 65 67 67 65 63 62 60 57 53 50 47 45 44
44 45 47 49 51 52 54 56 58 58 60 62 63 63 64 65 65 65 66 68 68 67 68 68 67 66 64 63 59 57 57 56 56 56 54 52 51 48 46 43 42 41 40

GFSMW_250_spd_111.txt.gz
Wind_Speed
99 100 93 86 77 75 84 86 86 88 75 57 67 69 68 68 68 73 71 65 64 64 65 65 62 60 56 53 52 50 52 53 54 55 56 60 61 60 61 63 64 63 65
105 101 97 78 79 74 79 82 81 76 68 65 67 56 54 55 61 69 66 67 65 59 60 55 53 55 57 57 57 57 55 55 55 56 57 60 61 62 63 65 65 64 64
101 98 92 88 80 75 72 74 69 67 59 56 54 47 48 45 45 48 50 51 57 53 58 62 61 61 63 61 60 58 58 59 59 59 61 62 63 65 64 64 64 66 66
102 101 99 89 84 75 59 53 70 67 60 65 60 53 54 44 45 51 52 52 55 60 61 59 59 61 66 67 64 62 65 66 68 66 68 70 72 69 68 67 66 67 68
99 105 109 91 84 76 81 64 73 87 70 65 63 51 50 55 57 58 53 50 52 55 59 60 61 58 59 64 71 71 69 71 72 73 76 77 73 72 70 70 68 69 67
96 101 108 101 86 78 66 59 73 85 82 76 66 66 63 70 65 70 73 72 61 48 59 66 67 69 66 68 71 72 74 76 78 75 78 79 79 79 77 71 70 73 79
92 103 105 109 94 92 92 77 79 81 83 75 75 77 83 70 64 58 56 62 60 61 61 61 66 71 71 73 76 78 77 74 74 67 62 65 67 66 69 74 83 88 90
92 95 106 110 109 107 99 97 88 85 86 86 78 82 83 78 80 71 78 74 78 82 78 75 73 75 77 80 80 76 70 76 74 71 73 74 74 82 83 90 96 96 95
86 95 104 108 114 107 109 103 93 89 90 90 89 83 83 86 95 87 80 84 89 91 88 83 84 84 81 80 81 79 76 79 86 80 78 79 84 92 96 100 99 101 101
90 91 99 107 117 117 107 102 94 97 95 94 94 94 88 89 96 105 92 81 84 88 89 89 87 88 86 87 86 90 91 87 89 85 86 89 93 99 103 105 105 108 109
88 85 91 95 108 113 117 116 105 100 98 100 102 103 98 98 99 96 100 93 94 94 95 94 95 97 95 96 97 96 94 97 96 96 97 98 103 106 106 109 112 114 118
88 87 85 93 100 109 109 113 112 111 105 98 106 111 107 109 105 104 102 100 102 102 102 100 99 102 106 107 101 101 100 104 110 112 111 108 108 109 114 118 121 125 123
86 85 85 88 95 101 107 107 112 117 117 112 114 114 111 112 113 113 115 116 116 115 120 119 118 114 116 116 116 114 117 116 119 116 113 113 112 115 119 120 120 117 117
84 81 79 80 85 92 94 99 104 107 110 114 116 117 117 116 116 118 118 121 128 130 129 123 126 126 123 124 126 125 125 125 121 122 122 118 120 118 114 112 112 109 108
86 76 77 78 79 80 83 92 90 99 101 106 109 114 112 112 116 114 117 117 116 118 120 122 125 127 128 127 126 125 122 122 121 119 116 113 111 111 112 110 110 109 109
80 78 75 76 80 80 80 81 79 81 85 86 93 95 98 99 102 107 111 113 116 119 119 120 118 117 119 118 116 116 115 115 115 113 112 109 107 106 105 106 107 106 105
80 77 77 80 82 81 82 82 79 81 82 80 79 81 81 85 87 94 97 98 101 103 107 107 106 107 108 108 107 107 106 105 104 104 102 101 101 100 100 99 99 100 101
73 74 74 76 78 79 78 77 76 76 78 78 78 80 81 83 87 89 91 94 94 94 92 94 96 97 97 98 96 97 98 99 99 99 99 98 98 98 98 99 99 100 100
68 69 70 74 73 72 72 72 73 74 77 79 79 79 80 82 84 85 84 84 85 85 87 88 88 90 90 91 92 93 94 94 95 96 96 97 97 98 99 100 101 100 100
68 71 70 69 69 68 68 70 71 73 75 76 76 78 79 79 79 79 79 80 81 82 82 85 86 88 88 90 90 91 91 91 91 91 90 90 91 92 94 94 95 95 95
56 59 61 63 63 63 64 66 68 69 71 73 75 75 74 74 75 76 76 77 78 81 83 83 85 87 89 88 88 88 88 87 87 87 86 86 87 87 88 89 88 89 90
50 53 57 60 61 62 64 65 65 67 68 68 69 70 71 72 73 74 76 78 79 80 81 83 84 85 84 84 83 83 84 84 84 84 84 84 84 86 87 87 87 87 85
46 49 52 56 59 62 63 63 63 63 63 64 65 67 70 72 73 74 75 76 77 78 80 81 81 79 79 80 80 81 82 82 83 82 82 82 82 83 82 82 82 81 79
48 50 51 51 52 53 55 58 59 59 60 63 65 67 68 69 70 71 72 74 75 76 77 76 75 76 77 78 79 81 80 79 79 79 77 78 79 79 77 75 74 71 67
46 49 52 53 53 53 54 56 56 57 59 60 62 64 64 65 67 68 70 71 72 73 73 72 73 74 77 76 76 77 75 74 73 73 71 69 69 68 66 64 62 59 56
47 49 51 52 54 56 57 58 59 59 61 62 63 64 65 67 68 69 69 70 70 70 70 72 73 75 75 74 72 72 71 69 65 62 59 59 59 58 57 54 53 51 49

GFSMW_250_spd_114.txt.gz
Wind_Speed
107 114 94 88 73 50 48 50 61 63 62 57 52 52 59 59 54 62 67 62 56 60 65 68 66 62 60 58 56 55 51 52 56 58 56 56 54 56 56 57 57 57 57
107 111 96 85 68 53 34 28 33 43 51 59 58 56 43 48 58 59 62 62 65 67 67 68 68 63 55 55 50 51 51 54 55 57 54 55 56 57 60 61 60 62 64
108 111 99 79 71 60 67 53 43 59 48 50 48 54 48 46 44 47 52 56 57 60 63 61 63 64 63 62 61 62 63 60 58 57 58 60 59 63 63 63 66 68 70
99 106 95 89 79 83 78 65 47 33 52 53 64 65 67 68 65 58 53 52 45 47 56 66 67 68 61 62 60 61 64 62 63 63 62 62 61 66 68 69 70 72 76
100 112 101 99 90 82 82 76 62 54 57 54 54 58 56 53 52 55 52 56 57 50 58 66 67 69 65 62 62 60 60 61 61 60 62 67 69 71 71 74 76 77 76
96 112 110 105 93 89 91 90 64 80 77 52 63 50 40 52 55 55 56 56 52 49 59 63 60 60 60 61 61 68 66 67 70 67 67 65 65 68 73 75 75 70 70
92 113 112 106 102 94 89 92 70 65 69 58 65 50 58 53 57 54 54 50 53 53 50 53 51 55 57 58 62 73 72 76 78 75 72 68 69 68 71 71 76 71 76
93 104 112 101 98 101 94 80 75 70 65 66 68 76 61 59 58 65 65 59 55 60 57 43 55 56 62 60 61 64 63 69 74 77 76 75 75 73 66 70 69 80 81
87 103 107 107 103 99 96 92 80 76 83 83 84 79 69 66 71 67 67 68 70 73 69 76 77 76 68 68 69 69 66 67 69 72 72 74 75 73 76 76 80 84 91
77 95 109 106 104 102 90 101 84 84 89 87 97 88 86 80 80 82 83 70 68 76 80 79 78 83 87 80 78 74 74 80 79 79 81 80 80 81 80 85 94 92 98
84 90 106 112 105 104 100 104 97 89 91 93 94 100 101 97 92 82 83 84 79 77 82 83 79 82 89 89 88 91 96 98 96 95 95 93 91 92 93 94 94 98 99
73 87 95 111 111 110 111 111 110 98 97 96 99 100 102 105 97 100 99 95 95 96 94 96 96 94 93 94 95 97 99 99 98 100 100 100 99 100 103 104 106 108 108
73 81 92 107 109 115 113 111 113 113 102 101 102 100 97 109 110 110 106 109 105 105 104 101 102 104 108 110 111 102 100 100 100 104 107 107 108 108 110 114 117 119 122
76 72 76 93 108 113 117 115 110 117 110 98 108 104 101 105 106 106 108 107 111 110 109 107 105 108 107 106 107 111 112 113 115 116 116 115 118 124 126 130 131 130 129
82 78 81 91 100 111 117 119 125 118 117 108 99 96 96 100 103 106 108 108 109 109 110 112 114 110 111 111 113 117 119 119 121 125 129 133 134 136 133 128 127 127 127
90 84 80 85 98 102 107 116 115 123 120 118 119 117 110 108 109 109 109 107 110 110 112 112 113 114 112 115 120 123 129 132 134 137 138 139 138 133 134 129 125 122 120
86 85 82 82 84 99 103 106 111 115 118 128 129 128 127 122 119 119 118 117 119 118 122 120 118 121 122 123 127 129 132 133 135 137 139 138 138 139 131 123 118 114 110
82 83 78 76 74 79 86 98 106 109 120 122 125 128 131 132 131 130 127 124 120 123 118 118 120 124 130 133 136 138 138 137 140 141 139 135 126 120 117 113 110 107 104
75 79 79 77 74 72 76 80 87 89 100 109 117 127 127 127 126 125 123 122 125 124 126 127 129 130 133 135 138 137 136 131 128 125 123 116 112 110 107 106 102 98 97
69 71 73 75 75 74 75 72 71 76 79 99 96 108 116 115 118 112 112 108 108 113 116 119 123 125 127 129 119 118 121 121 117 111 108 106 103 100 99 97 95 93 91
67 71 69 72 77 80 79 79 77 77 79 82 85 87 92 98 98 105 105 106 106 104 104 106 111 112 109 109 108 106 105 103 100 99 97 97 97 94 93 92 90 89 88
57 61 65 68 73 75 76 76 78 80 81 83 84 85 87 90 93 90 89 91 94 94 96 97 97 95 93 93 94 94 95 94 93 92 91 91 91 90 89 88 88 88 87
50 51 55 59 64 67 68 69 75 78 81 83 84 86 87 86 86 85 84 83 84 85 86 88 89 89 89 89 89 90 90 89 90 89 88 89 88 87 87 86 85 86 86
45 49 54 56 59 61 65 67 70 72 73 77 79 80 80 79 79 81 81 82 83 84 85 87 87 86 86 86 86 88 88 88 86 87 88 86 85 85 83 82 82 82 82
40 47 51 56 59 62 64 67 68 69 71 73 75 75 76 77 78 79 80 81 81 82 82 82 83 83 83 82 84 84 85 85 85 87 87 84 82 82 79 78 77 77 75
35 44 50 56 58 61 64 66 68 69 72 74 75 75 76 76 76 76 77 78 77 76 75 76 77 79 81 82 81 82 83 84 85 84 84 81 79 77 75 73 70 69 67

GFSMW_250_spd_117.txt.gz
Wind_Speed
95 99 93 84 78 69 74 67 72 61 56 59 54 57 59 60 62 64 60 59 58 57 56 58 59 56 59 58 59 62 63 56 48 48 49 57 61 61 58 57 57 57 56
99 106 93 83 87 90 54 67 62 60 51 53 61 59 58 61 62 61 61 60 60 59 62 65 68 64 61 61 61 63 59 52 52 59 59 63 62 59 58 58 57 58 59
99 105 105 95 80 63 67 66 54 42 41 46 54 55 54 51 49 53 57 58 56 53 54 53 57 62 64 60 56 57 58 65 66 71 67 63 61 61 59 60 61 62 61
107 116 89 102 99 81 74 80 54 32 31 37 37 45 43 45 47 51 46 39 41 40 42 49 53 54 58 64 68 67 69 70 69 65 64 61 60 63 60 60 59 58 59
108 116 109 109 102 99 62 73 61 46 48 35 32 34 38 41 46 46 47 52 49 51 59 61 55 55 53 65 65 65 64 64 63 67 66 64 63 62 61 61 61 64 65
121 115 116 105 94 98 79 71 61 70 44 44 38 35 29 36 43 49 52 56 60 53 50 54 55 58 62 65 63 66 70 68 69 66 67 68 68 66 59 58 73 69 71
124 117 108 108 92 92 85 71 64 53 47 45 58 50 44 52 54 48 43 49 53 53 55 54 58 61 58 57 60 63 66 69 71 72 72 73 72 73 76 74 71 73 73
125 118 113 110 98 88 81 76 68 66 63 59 56 44 47 59 59 56 51 56 56 52 53 56 56 53 55 64 63 63 61 57 63 66 67 73 71 71 82 73 75 77 80
131 115 112 103 96 89 84 86 71 73 64 64 63 58 39 51 59 63 55 58 63 58 58 57 59 59 68 64 64 69 71 74 70 70 68 69 68 64 70 74 79 80 87
133 122 112 109 102 92 94 93 76 74 79 77 72 68 64 61 57 61 65 67 68 66 62 69 69 65 68 64 68 70 74 72 71 73 74 77 77 80 74 79 80 88 93
132 124 109 109 106 96 95 101 87 83 82 84 82 79 68 74 76 72 76 67 74 75 68 73 78 75 78 74 76 75 74 73 79 82 82 82 83 86 89 92 94 98 97
132 137 129 112 102 105 100 102 100 90 86 89 83 85 80 76 80 82 85 76 75 78 71 73 73 80 83 81 80 85 89 89 86 90 92 90 92 95 99 98 103 103 104
119 128 128 123 114 111 105 110 107 102 89 86 90 91 91 92 87 92 84 85 79 78 80 84 80 81 82 87 89 92 94 95 97 95 90 92 95 100 101 105 111 117 118
109 116 131 128 117 119 115 105 108 103 100 97 94 98 93 97 94 97 98 96 92 91 89 88 87 87 90 90 91 93 94 97 97 99 101 103 108 109 115 118 116 121 122
86 99 117 120 117 120 123 119 108 100 99 106 107 99 102 99 103 105 104 105 102 101 99 100 99 99 101 101 101 100 101 103 104 104 106 111 112 117 119 123 123 126 129
72 88 102 123 124 122 122 120 122 115 113 111 113 111 107 100 108 108 105 108 111 108 107 107 106 108 111 109 110 109 111 112 114 116 117 118 121 124 127 128 130 134 135
74 78 91 99 122 129 125 114 116 120 122 118 113 116 119 114 112 110 109 109 113 115 115 114 115 116 117 118 116 117 114 115 117 118 121 125 126 127 133 138 142 136 134
70 68 74 87 99 119 122 129 127 122 120 120 121 121 116 118 108 109 108 108 109 114 122 120 121 121 120 122 122 123 121 119 121 121 125 128 135 140 139 135 138 141 149
78 71 68 74 85 98 109 126 127 126 119 123 126 127 126 122 119 118 115 112 110 112 116 117 125 125 120 118 119 118 117 125 126 129 135 138 138 136 142 147 146 156 155
61 64 63 64 75 89 100 108 119 126 127 125 129 128 126 127 127 122 124 125 129 127 123 123 125 120 121 120 122 126 131 137 138 137 138 140 146 147 154 155 153 154 145
54 63 66 66 68 67 75 90 99 105 122 130 130 131 133 131 132 130 129 130 134 134 130 128 134 136 140 139 139 139 141 143 141 142 149 151 151 148 146 143 137 135 127
49 57 61 64 70 71 72 74 76 85 102 115 123 126 127 131 138 138 140 136 135 137 138 140 140 146 148 150 148 151 153 149 148 148 149 149 149 140 129 120 115 110 105
40 46 51 56 62 69 75 79 82 83 81 82 90 101 117 123 128 131 129 125 125 130 141 141 147 147 146 147 146 148 149 143 144 147 146 132 123 127 118 107 106 102 99
24 35 42 49 55 61 67 73 77 80 81 83 86 90 92 103 118 121 120 126 125 125 129 127 132 132 128 137 139 139 138 136 139 136 142 125 108 104 103 100 99 97 94
21 19 28 45 55 61 65 68 72 76 80 83 88 91 96 98 101 104 107 110 112 112 116 118 123 119 118 121 125 128 129 117 106 102 101 102 99 98 98 96 95 91 89
31 30 27 29 38 51 60 66 71 76 79 81 85 88 90 92 94 99 102 102 105 109 111 110 111 113 110 101 99 95 94 93 94 96 97 96 96 94 94 92 90 88 88